     2              OBSERVATION DATA    GPS                 RINEX VERSION / TYPE
ASHTORIN MIT 05 - NOV - 96 18:17                            PGM / RUN BY / DATE
                                                            COMMENT
CHINA LAKE 1996 EXPT#2 P-Code Ashtech                       COMMENT
Original Marker Name: KMED                                  COMMENT
Campaign Name: China Lake Nov 1996                          COMMENT
4-Character Station Name: GS08                              COMMENT
6-Character Antenna Code: ASHP12                            COMMENT
Vertical Measurement Point: TGP                             COMMENT
Vertical Offset to Rinex Ref. Point: 0.0640                 COMMENT
Radial Measurement Point: OOH                               COMMENT
Radial Offset to Rinex Ref. Point: 0.1318                   COMMENT
Antenna Height from Field Measurement: 1.1135 m             COMMENT
Additional Antenna Identification Info.:                    COMMENT
Ashtech L1/L2 Revision B (700228DE)                         COMMENT
Original XYZ: -2428152.4000 -4572505.9100 3715143.6800      COMMENT
New XYZ position is based on association with SCEC monument COMMENT
E1F1W1J5+0011. Position of that monument is believed to be  COMMENT
valid to within 1 m horizontally; vertical accuracy         COMMENT
should be no worse than 3-times this value.                 COMMENT
                                                            COMMENT
Revised Rinex header created by UCSD GPS archive for        COMMENT
GSAC on 31-Jul-2000 (2000:213) 17:17:34 GMT                 COMMENT
For assistance contact dagnew@ucsd.edu                      COMMENT
or anderson@python.ucsd.edu                                 COMMENT
                                                            COMMENT
3187 S                                                      MARKER NAME
                                                            MARKER NUMBER
JDT US DEFENSE MAPPING AGENCY                               OBSERVER / AGENCY
456 ASHTECH Z-XII3 1G001C7                                  REC # / TYPE / VERS
443 ASHTECH GEODETIC P                                      ANT # / TYPE
 -2436056.5893 -4555502.9878  3731342.1307                  APPROX POSITION XYZ
        1.0417        0.0000        0.0000                  ANTENNA: DELTA H/E/N
     1     1     0                                          WAVELENGTH FACT L1/2
     7    L1    L2    C1    P1    P2    D1    D2            # / TYPES OF OBSERV
    30                                                      INTERVAL
  1996    10    30    16    26    0.000000                  TIME OF FIRST OBS
  1996    10    30    22    29   60.000000                  TIME OF LAST OBS
                                                            END OF HEADER
 96 10 30 16 26  0.0000000  0  7 17 28  3 23 21  1 31               -0.000499585
      8374.43719      5151.22358  18570938.489           0.0005   18570948.7825
      -327.147        -254.920
     11947.47019      6863.14159  18191859.563           0.0005   18191867.5945
      -437.827        -341.164
    -77619.14919    -51414.12356  18904750.198           0.0005          0.0005
      2539.417        1978.766
     -3864.23119     -2268.58658  18357280.086           0.0005   18357286.9775
       142.496         111.036
    -60200.93619    -35613.38154  18368409.898           0.0005          0.0005
      2228.572        1736.550
   -116432.35519    -49470.33857  19643222.123           0.0005   19643231.3525
      4432.185        3453.651
    -52448.18119    -27715.59352  21718021.331           0.0005          0.0005
      4281.983        3336.610
 96 10 30 16 26 30.0000000  0  8 17 28  3 23 21  1  9 31            -0.000523430
     18268.882 9     12861.15348  18572821.881    18572824.8375   18572831.6254
      -332.969        -259.456
     25283.221 9     17254.60749  18194399.047    18194399.2635   18194405.4654
      -451.740        -352.005
   -153595.041 9   -110679.24256  18890292.707           0.0004          0.0005
      2524.999        1967.532
     -8098.377 9     -5567.94148  18356474.703    18356475.3055   18356481.4634
       139.300         108.545
   -127009.792 9    -88207.98955  18355694.636           0.0004          0.0005
      2224.919        1733.703
   -249323.158 9   -153021.60147  19617934.855    19617936.1945   19617943.0794
      4426.650        3449.338
    -80506.81119    -43922.12452  21449192.204           0.0005          0.0005
      2775.103        2162.418
   -180821.253 8   -127746.79556  21693597.405           0.0004          0.0005
      4275.622        3331.654
 96 10 30 16 27  0.0000000  0  7 17 28  3 23 21  1 31                0.000064458
     28360.290 9     20724.55848  21272874.188    21272877.3754   21272884.1024
      -340.600        -265.403
     39060.808 9     27990.360 9  20895152.575    20895153.216    20895159.448
      -467.612        -364.373
   -229082.416 9   -169505.00758  21574059.399    21574060.0025   21574066.2505
      2508.452        1954.638
    -12209.376 9     -8771.33448  21053826.769    21053825.2274   21053831.3294
       134.253         104.613
   -193661.403 9   -140708.29455  21041146.228           0.0004          0.0005
      2219.278        1729.308
   -381979.403 9   -256390.06648  22290820.626    22290824.7124   22290831.5524
      4419.083        3443.441
   -308926.340 9   -227568.88556  24367350.375           0.0004          0.0005
      4266.737        3324.730
 96 10 30 16 27 30.0000000  0  8 17 28  3 23 21  1  9 31             0.000040394
     38667.215 9     28755.90058  21274839.571    21274838.7495   21274845.4785
      -346.672        -270.134
     53297.446 9     39083.82319  20897860.316    20897862.3791   20897868.5901
      -481.457        -375.161
   -304114.536 9   -227971.60958  21559779.574    21559782.0115   21559788.0375
      2493.749        1943.181
    -16183.905 9    -11868.39158  21053067.887    21053068.9285   21053075.0205
       130.772         101.900
   -260184.243 9    -31593.91158  21028485.797           0.0005   21028493.6705
      2215.521        1726.380
   -514459.818 9   -359621.54058  22265614.660    22265614.5855   22265621.3835
      4412.952        3438.664
   -246426.242 9   -173209.89656  24115752.439           0.0004   24115759.6785
      2757.059        2148.358
   -436843.373 9   -327244.48256  24343005.135    24343005.8545   24343014.0705
      4261.115        3320.349
 96 10 30 16 28  0.0000000  0  8 17 28  3 23 21  1  9 31             0.000016068
     49180.279 9     36947.86948  21276839.113    21276839.3094   21276846.1014
      -355.013        -276.634
     67968.371 9     50515.687 9  20900652.448    20900654.177    20900660.387
      -497.358        -387.552
   -378684.638 9   -286078.19048  21545589.976    21545591.8514   21545597.8594
      2476.749        1929.934
    -20033.263 9    -14867.90548  21052335.755    21052336.4154   21052342.4964
       125.256          97.602
   -326573.579 9    -83325.86648  21015851.828    21015853.1155   21015860.0974
      2209.676        1721.825
   -646742.263 9   -462698.75648  22240441.510    22240442.0994   22240448.8614
      4405.191        3432.616
   -328994.268 9   -237548.61446  24100038.805    24100039.3095   24100047.8564
      2746.648        2140.245
   -564568.877 9   -426770.88856  24318701.733    24318702.1144   24318706.8385
      4253.035        3314.053
 96 10 30 16 28 30.0000000  0  8 17 28  3 23 21  1  9 31            -0.000008260
     59918.437 9     45315.23648  21278881.874    21278882.7344   21278889.5474
      -361.568        -281.741
     83080.588 9     62291.414 9  20903528.705    20903529.989    20903536.194
      -510.865        -398.077
   -452771.948 9   -343808.57948  21531491.837    21531493.5174   21531499.6114
      2461.572        1918.108
    -23767.209 9    -17777.49648  21051625.214    21051625.8684   21051631.9334
       122.987          95.834
   -392816.035 9   -134943.37548  21003246.700    21003247.6964   21003254.5524
      2205.754        1718.769
   -778823.406 9   -565619.10348  22215307.158    22215307.9284   22215314.6564
      4399.496        3428.179
   -411276.018 9   -301664.32756  24084381.002    24084382.6064   24084390.1315
      2738.047        2133.543
   -692083.154 9   -526132.65246  24294435.150    24294436.4205   24294442.5994
      4247.198        3309.505
 96 10 30 16 28 59.9990000  0  8 17 28  3 23 21  1  9 31            -0.000032621
     70905.158 9     53876.28548  21280972.504    21280973.4424   21280980.2624
      -370.083        -288.376
     98650.660 9     74423.912 9  20906491.702    20906492.925    20906499.065
      -526.262        -410.074
   -526346.164 9   -401139.14848  21517491.234    21517492.8004   21517499.0324
      2444.535        1904.832
    -27379.943 9    -20592.62848  21050937.606    21050938.4044   21050944.5314
       118.774          92.551
   -458883.519 9   -186424.54048  20990674.621    20990675.4774   20990682.3234
      2199.841        1714.162
   -910676.500 9   -668361.75048  22190215.639    22190217.1254   22190223.9074
      4391.786        3422.171
   -493238.771 9   -365531.38546  24068783.850    24068785.7325   24068793.4844
      2727.323        2125.187
   -819367.934 9   -625315.60546  24270214.361    24270215.0604   24270221.2214
      4239.599        3303.584
 96 10 30 16 29 29.9990000  0  8 17 28  3 23 21  1  9 31            -0.000057009
     82164.139 9     62649.47648  21283114.865    21283115.9394   21283122.8544
      -380.963        -296.854
    114694.471 9     86925.558 9  20909545.060    20909545.985    20909552.076
      -543.724        -423.681
   -599398.508 9   -458063.06848  21503589.993    21503591.4824   21503597.7414
      2425.162        1889.737
    -30859.098 9    -23303.67948  21050275.627    21050276.3854   21050282.5514
       112.931          87.998
   -524769.179 9   -237764.02748  20978136.947    20978137.8534   20978144.7474
      2192.224        1708.226
  -1042283.664 9   -770912.75348  22165171.800    22165173.0854   22165179.9634
      4381.744        3414.346
   -574876.775 9   -429145.41746  24053248.699    24053250.6304   24053257.9514
      2714.851        2115.468
   -946411.581 9   -724310.67046  24246039.165    24246039.4414   24246045.6874
      4229.153        3295.444
 96 10 30 16 29 59.9990000  0  8 17 28  3 23 21  1  9 31            -0.000081374
     93763.870 9     71688.20748  21285322.087    21285323.2954   21285330.2914
      -391.773        -305.278
    131269.943 9     99841.492 9  20912699.111    20912700.183    20912706.289
      -560.897        -437.062
   -671858.767 9   -514525.61748  21489801.478    21489802.8374   21489809.0814
      2405.829        1874.672
    -34161.603 9    -25877.07448  21049647.297    21049648.0094   21049654.1574
       107.783          83.987
   -590423.611 9   -288923.32948  20965643.217    20965644.2054   20965651.1454
      2185.078        1702.658
  -1173593.142 9   -873231.79548  22140184.334    22140185.6924   22140192.7054
      4372.613        3407.231
   -656127.929 9   -492458.02346  24037786.954    24037789.0764   24037796.1774
      2702.277        2105.670
  -1073110.614 9   -823037.15146  24221928.571    24221929.2864   24221935.9944
      4217.778        3286.580
 96 10 30 16 30 29.9990000  0  8 17 28  3 23 21  1  9 31            -0.000105751
    105636.807 9     80939.81148  21287581.608    21287582.6454   21287589.6974
      -399.763        -311.504
    148314.437 9    113122.883 9  20915942.498    20915943.630    20915949.767
      -575.359        -448.332
   -743780.586 9   -570568.61248  21476115.317    21476116.5814   21476122.9184
      2389.022        1861.576
    -37355.618 9    -28365.94048  21049039.377    21049040.2294   21049046.3924
       105.141          81.928
   -655900.253 9   -339944.09848  20953183.527    20953184.4404   20953191.3904
      2180.092        1698.773
  -1304667.867 9   -975367.91948  22115241.861    22115243.0034   22115250.0824
      4365.702        3401.846
   -737053.863 9   -555517.11446  24022387.133    24022389.1814   24022396.6364
      2692.874        2098.343
  -1199512.745 9   -921532.31146  24197874.803    24197875.6994   24197882.8884
      4209.119        3279.833
 96 10 30 16 30 59.9990000  0  8 17 28  3 23 21  1  9 31            -0.000130151
    117787.956 9     90408.20948  21289894.095    21289894.9794   21289902.0054
      -410.374        -319.772
    165826.682 9    126768.773 9  20919274.939    20919276.119    20919282.208
      -592.178        -461.437
   -815170.905 9   -626197.45148  21462529.951    21462531.4264   21462537.8304
      2370.270        1846.964
    -40430.982 9    -30762.34448  21048454.238    21048455.0524   21048461.1754
        99.883          77.831
   -721193.348 9   -390821.83748  20940758.781    20940759.6204   20940766.5094
      2172.662        1692.983
  -1435500.337 9  -1077315.27248  22090345.102    22090346.4394   22090353.5054
      4356.404        3394.601
   -817662.403 9   -618328.94246  24007047.916    24007049.8434   24007057.1374
      2680.982        2089.077
  -1325619.005 9  -1019796.93346  24173877.630    24173878.4814   24173885.8604
      4197.919        3271.106
 96 10 30 16 31 29.9990000  0  8 17 28  3 23 21  1  9 31            -0.000154571
    130234.499 9    100106.79148  21292262.362    21292263.5484   21292270.4744
      -419.336        -326.755
    183817.554 9    140787.614 9  20922698.664    20922699.731    20922705.772
      -607.182        -473.129
   -886023.238 9   -681407.07948  21449047.186    21449048.6974   21449055.0344
      2353.108        1833.591
    -43382.064 9    -33061.90848  21047892.700    21047893.5014   21047899.6114
        96.847          75.465
   -786285.846 9   -441543.27048  20928371.903    20928372.9674   20928379.8004
      2166.742        1688.370
  -1566084.586 9  -1179069.20648  22065495.856    22065497.0874   22065504.1144
      4349.212        3388.996
   -897942.775 9   -680885.04446  23991771.082    23991773.1444   23991780.1294
      2670.944        2081.255
  -1451417.151 9  -1117821.48146  24149939.067    24149939.8904   24149947.1174
      4188.549        3263.804
 96 10 30 16 31 59.9990000  0  8 17 28  3 23 21  1  9 31            -0.000179036
    142949.446 9    110014.52248  21294681.912    21294683.1934   21294690.0914
      -428.030        -333.530
    202258.716 9    155157.326 9  20926208.028    20926209.022    20926215.068
      -622.027        -484.696
   -956361.414 9   -736216.06148  21435662.543    21435663.8314   21435670.0934
      2336.335        1820.521
    -46238.259 9    -35287.53348  21047349.239    21047350.0034   21047356.1474
        93.701          73.014
   -851187.535 9   -492116.02248  20916021.654    20916022.6374   20916029.3954
      2160.132        1683.220
  -1696453.780 9  -1280655.56648  22040687.584    22040688.6544   22040695.6904
      4341.933        3383.324
   -977917.111 9   -743202.67646  23976552.888    23976554.5544   23976561.2714
      2660.815        2073.362
  -1576942.448 9  -1215633.38946  24126052.181    24126053.2114   24126060.4164
      4180.181        3257.284
 96 10 30 16 32 29.9990000  0  8 17 28  3 23 21  1  9 31            -0.000203557
    155934.097 9    120132.40648  21297152.937    21297154.2004   21297161.0754
      -437.610        -340.995
    221155.964 9    169882.425 9  20929804.143    20929805.103    20929811.148
      -637.511        -496.762
  -1026189.081 9   -790627.24148  21422374.783    21422376.0644   21422382.3404
      2319.184        1807.156
    -48982.834 9    -37426.18148  21046826.860    21046827.7944   21046833.9544
        89.421          69.679
   -915872.853 9   -542520.16948  20903712.514    20903713.4614   20903720.1764
      2152.734        1677.455
  -1826575.382 9  -1382049.00348  22015926.678    22015927.3224   22015934.3974
      4333.075        3376.422
  -1057574.546 9   -805273.39546  23961394.297    23961396.0894   23961402.5604
      2649.847        2064.816
  -1702217.994 9  -1313250.67846  24102213.588    24102214.2284   24102221.2944
      4171.691        3250.668
 96 10 30 16 32 59.9990000  0  8 17 28  3 23 21  1  9 31            -0.000228111
    169236.715 9    130498.05848  21299684.537    21299685.7174   21299692.6074
      -447.064        -348.362
    240539.659 9    184986.580 9  20933492.725    20933493.739    20933499.785
      -652.685        -508.586
  -1095482.661 9   -844622.25548  21409188.727    21409189.9364   21409196.2714
      2302.278        1793.983
    -51579.810 9    -39449.81648  21046332.784    21046333.6494   21046339.8614
        85.711          66.788
   -980328.221 9   -592745.13848  20891446.991    20891447.9934   20891454.7334
      2146.336        1672.470
  -1956408.511 9  -1483217.65048  21991220.173    21991220.8554   21991227.9944
      4324.525        3369.760
  -1136868.019 9   -867060.47146  23946305.660    23946307.0954   23946313.5414
      2638.469        2055.950
  -1827214.170 9  -1410650.28946  24078427.921    24078428.3924   24078435.3704
      4163.235        3244.079
 96 10 30 16 33 29.9990000  0  8 17 28  3 23 21  1  9 31            -0.000252696
    182834.828 9    141093.96148  21302272.339    21302273.4084   21302280.3244
      -457.159        -356.228
    260396.018 9    200459.041 9  20937271.106    20937272.317    20937278.367
      -668.738        -521.095
  -1164239.804 9   -898199.26448  21396104.611    21396105.9164   21396112.2674
      2283.731        1779.531
    -54045.995 9    -41371.53748  21045863.601    21045864.4374   21045870.6314
        80.882          63.025
  -1044575.733 9   -642808.13848  20879221.112    20879222.1274   20879228.8754
      2139.236        1666.937
  -2085957.319 9  -1584164.74948  21966567.621    21966568.4834   21966575.6594
      4314.295        3361.788
  -1215806.013 9   -928570.59046  23931284.553    23931285.6984   23931292.0754
      2626.326        2046.488
  -1951933.499 9  -1507834.17746  24054694.574    24054695.1294   24054702.2114
      4153.561        3236.541
 96 10 30 16 33 59.9990000  0  8 17 28  3 23 21  1  9 31            -0.000277321
    196699.296 9    151897.41848  21304910.728    21304911.8084   21304918.6794
      -468.151        -364.793
    280698.885 9    216279.435 9  20941134.663    20941135.897    20941141.918
      -685.882        -534.454
  -1232476.563 9   -951370.76448  21383119.288    21383120.9084   21383127.2794
      2264.309        1764.397
    -56395.368 9    -43202.23248  21045416.629    21045417.3874   21045423.5814
        74.641          58.162
  -1108649.552 9   -692735.79148  20867028.374    20867029.3294   20867036.0794
      2131.260        1660.722
  -2215227.670 9  -1684894.87348  21941968.200    21941969.1024   21941976.3174
      4302.651        3352.715
  -1294412.749 9   -989822.53246  23916326.111    23916327.3344   23916333.9624
      2613.111        2036.190
  -2076391.400 9  -1604814.36046  24031010.256    24031011.5944   24031018.4964
      4142.576        3227.981
 96 10 30 16 34 29.9990000  0  8 17 28  3 23 21  1  9 31            -0.000301958
    210868.799 9    162938.56548  21307607.226    21307608.2414   21307615.0704
      -476.652        -371.417
    301487.883 9    232478.633 9  20945090.694    20945091.964    20945097.953
      -700.224        -545.629
  -1300152.984 9  -1004105.64648  21370240.754    21370242.5274   21370248.8994
      2247.379        1751.204
    -58585.942 9    -44909.19148  21044999.625    21045000.4994   21045006.7444
        71.195          55.477
  -1172520.054 9   -742505.01748  20854874.221    20854875.1904   20854881.9044
      2126.706        1657.174
  -2344175.330 9  -1785373.54848  21917430.182    21917431.1374   21917438.3854
      4293.855        3345.861
  -1372653.453 9  -1050789.27146  23901437.350    23901438.5934   23901445.1594
      2602.752        2028.118
  -2200543.052 9  -1701555.90446  24007384.937    24007386.2224   24007393.0934
      4133.900        3221.221
 96 10 30 16 34 59.9990000  0  8 17 28  3 23 21  1  9 31            -0.000326621
    225307.877 9    174189.75948  21310354.992    21310355.9384   21310362.7834
      -485.503        -378.314
    322727.138 9    249028.680 9  20949132.542    20949133.684    20949139.715
      -715.492        -557.526
  -1367296.629 9  -1056425.38048  21357464.048    21357465.5244   21357471.9434
      2229.077        1736.943
    -60657.533 9    -46523.44248  21044605.352    21044606.2724   21044612.5454
        67.112          52.295
  -1236234.900 9   -792152.95248  20842749.718    20842750.6524   20842757.3784
      2120.936        1652.677
  -2472847.550 9  -1885637.59948  21892944.704    21892945.5974   21892952.8784
      4284.570        3338.626
  -1450562.292 9  -1111497.45146  23886611.762    23886612.8794   23886619.5204
      2591.461        2019.320
  -2324408.668 9  -1798074.57146  23983814.787    23983815.4724   23983822.2934
      4123.980        3213.491
 96 10 30 16 35 29.9990000  0  8 17 28  3 23 21  1  9 31            -0.000351318
    240014.766 9    185649.63748  21313153.514    21313154.6004   21313161.4704
      -495.378        -386.009
    344431.847 9    265941.410 9  20953262.745    20953263.951    20953270.093
      -731.799        -570.233
  -1433883.548 9  -1108311.29848  21344792.998    21344794.4684   21344800.9284
      2209.865        1721.973
    -62592.471 9    -48031.20248  21044237.245    21044238.1264   21044244.3564
        61.531          47.946
  -1299755.651 9   -841649.64548  20830662.102    20830663.0474   20830669.8034
      2113.534        1646.910
  -2601235.282 9  -1985679.96748  21868513.340    21868514.1874   21868521.5304
      4274.248        3330.583
  -1528127.597 9  -1171937.97146  23871851.167    23871852.4514   23871859.4094
      2579.151        2009.728
  -2447969.663 9  -1894355.85146  23960301.785    23960302.5774   23960309.7164
      4113.119        3205.028
 96 10 30 16 35 59.9990000  0  8 17 28  3 23 21  1  9 31            -0.000376048
    255011.348 9    197335.25548  21316007.347    21316008.4144   21316015.3334
      -503.720        -392.509
    366615.497 9    283227.341 9  20957484.207    20957485.347    20957491.529
      -746.429        -581.633
  -1499914.126 9  -1159763.70548  21332227.682    21332229.2834   21332235.7194
      2192.818        1708.689
    -64368.010 9    -49414.75748  21043899.503    21043900.2974   21043906.4914
        57.581          44.868
  -1363065.027 9   -890981.63848  20818614.847    20818615.7104   20818622.4584
      2107.701        1642.364
  -2729329.848 9  -2085493.89348  21844137.409    21844138.5874   21844146.0214
      4265.974        3324.136
  -1605326.582 9  -1232093.02946  23857160.676    23857161.8304   23857168.7374
      2568.175        2001.175
  -2571221.647 9  -1990396.35746  23936847.203    23936848.4694   23936855.8534
      4104.197        3198.076
 96 10 30 16 36 29.9990000  0  8 17 28  3 23 21  1  9 31            -0.000400824
    270281.016 9    209233.66348  21318913.100    21318914.1544   21318921.1274
      -513.977        -400.502
    389257.873 9    300870.731 9  20961792.865    20961794.068    20961800.258
      -762.815        -594.401
  -1565408.253 9  -1210798.09448  21319764.355    21319766.1634   21319772.5824
      2173.624        1693.733
    -66002.928 9    -50688.73848  21043588.524    21043589.2624   21043595.4774
        51.632          40.233
  -1426176.718 9   -940159.58248  20806605.160    20806605.9964   20806612.7554
      2100.019        1636.378
  -2857153.882 9  -2185097.02548  21819813.505    21819814.4874   21819821.8964
      4255.819        3316.223
  -1682171.987 9  -1291972.57046  23842537.858    23842538.7114   23842545.6444
      2555.045        1990.944
  -2694185.274 9  -2086212.16146  23913447.993    23913449.1914   23913456.6574
      4093.342        3189.617
 96 10 30 16 36 59.9990000  0  8 17 28  3 23 21  1  9 31            -0.000425640
    285819.243 9    221341.34148  21321869.884    21321870.9824   21321878.0424
      -522.440        -407.096
    412360.005 9    318872.363 9  20966189.093    20966190.305    20966196.526
      -777.821        -606.094
  -1630351.400 9  -1261403.15048  21307406.277    21307407.9154   21307414.3354
      2155.366        1679.506
    -67491.233 9    -51848.47748  21043305.380    21043306.0904   21043312.3734
        47.063          36.672
  -1489085.786 9   -989179.64448  20794634.014    20794634.8194   20794641.5654
      2093.318        1631.157
  -2984703.996 9  -2284486.72148  21795541.576    21795542.5334   21795549.8884
      4246.890        3309.265
  -1758651.619 9  -1351567.11346  23827984.595    23827985.3074   23827992.1354
      2543.126        1981.657
  -2816844.501 9  -2181790.77946  23890107.473    23890108.0804   23890115.4124
      4083.380        3181.855
 96 10 30 16 37 29.9990000  0  8 17 28  3 23 21  1  9 31            -0.000450506
    301615.073 9    233649.74948  21324875.589    21324876.8574   21324883.9614
      -531.293        -413.995
    435907.583 9    337221.088 9  20970670.453    20970671.336    20970677.540
      -792.540        -617.564
  -1694752.808 9  -1311586.07948  21295151.311    21295152.6944   21295159.2194
      2137.599        1665.662
    -68842.159 9    -52901.16848  21043048.269    21043049.0254   21043055.3774
        42.553          33.158
  -1551801.185 9  -1038048.79948  20782699.670    20782700.4744   20782707.1614
      2087.364        1626.517
  -3111979.589 9  -2383662.49648  21771321.854    21771322.8324   21771330.1314
      4237.406        3301.875
  -1834777.034 9  -1410885.64646  23813498.315    23813499.1824   23813506.0124
      2531.389        1972.511
  -2939207.593 9  -2277138.64446  23866822.544    23866823.3334   23866830.4534
      4073.557        3174.200
 96 10 30 16 37 59.9990000  0  8 17 28  3 23 21  1  9 31            -0.000475398
    317703.894 9    246186.46548  21327937.434    21327938.4554   21327945.5954
      -540.738        -421.354
    459914.028 9    355927.385 9  20975238.707    20975239.710    20975245.762
      -807.318        -629.079
  -1758597.813 9  -1361335.44948  21283001.915    21283003.3604   21283010.0174
      2119.248        1651.362
    -70047.284 9    -53840.24448  21042818.872    21042819.6864   21042826.0454
        38.392          29.916
  -1614326.321 9  -1086769.68848  20770801.594    20770802.3484   20770809.0014
      2081.400        1621.870
  -3238942.254 9  -2482594.42448  21747161.408    21747162.6164   21747169.9674
      4227.375        3294.058
  -1910532.907 9  -1469916.19546  23799082.160    23799083.3994   23799090.3974
      2519.615        1963.336
  -3061251.941 9  -2372238.12446  23843597.556    23843599.0154   23843606.1764
      4063.121        3166.068
 96 10 30 16 38 29.9990000  0  8 17 28  3 23 21  1  9 31            -0.000500319
    334066.793 9    258936.75248  21331051.370    21331052.1244   21331059.3304
      -551.230        -429.530
    484352.562 9    374970.375 9  20979889.096    20979890.268    20979896.225
      -822.991        -641.292
  -1821902.376 9  -1410663.70148  21270955.542    21270956.8364   21270963.6104
      2099.976        1636.345
    -71142.199 9    -54693.44548  21042610.518    21042611.3494   21042617.6964
        33.528          26.126
  -1676682.513 9  -1135358.94448  20758935.638    20758936.3694   20758943.0484
      2074.597        1616.569
  -3365609.664 9  -2581296.29248  21723057.537    21723058.6164   21723065.9244
      4215.982        3285.181
  -1985945.891 9  -1528679.63346  23784731.506    23784732.8704   23784739.7534
      2506.843        1953.384
  -3182985.325 9  -2467095.28046  23820432.395    23820433.8194   23820441.0594
      4051.445        3156.970
 96 10 30 16 38 59.9990000  0  8 17 28  3 23 21  1  9 31            -0.000525251
    350731.968 9    271922.58048  21334222.453    21334223.3044   21334230.6114
      -560.713        -436.919
    509245.992 9    394367.825 9  20984626.159    20984627.347    20984633.296
      -837.391        -652.512
  -1884647.802 9  -1459556.25448  21259015.302    21259016.7824   21259023.5404
      2082.257        1622.538
    -72112.613 9    -55449.62648  21042425.820    21042426.6914   21042433.0024
        30.298          23.609
  -1738851.025 9  -1183801.93948  20747105.408    20747106.0544   20747112.8104
      2069.140        1612.317
  -3491942.476 9  -2679737.43348  21699017.146    21699018.3034   21699025.5364
      4205.230        3276.803
  -2060988.079 9  -1587154.08646  23770451.584    23770452.9184   23770459.6964
      2495.157        1944.278
  -3304387.181 9  -2561694.10546  23797329.855    23797331.5454   23797339.0944
      4041.324        3149.084
 96 10 30 16 39 29.9990000  0  8 17 28  3 23 21  1  9 31            -0.000550198
    367704.024 9    285147.53248  21337451.978    21337452.9634   21337460.2654
      -571.628        -445.424
    534585.250 9    414112.673 9  20989448.021    20989449.251    20989455.178
      -852.836        -664.548
  -1946856.766 9  -1508030.78848  21247177.173    21247178.7864   21247185.5394
      2063.980        1608.296
    -72972.200 9    -56119.44848  21042262.311    21042263.1554   21042269.4084
        26.103          20.340
  -1800840.999 9  -1232105.83048  20735309.051    20735309.7564   20735316.4874
      2062.553        1607.184
  -3617926.099 9  -2777906.47648  21675043.280    21675044.4264   21675051.6284
      4192.842        3267.150
  -2135657.368 9  -1645337.97146  23756242.288    23756243.8084   23756250.7254
      2481.841        1933.902
  -3425477.683 9  -2656050.34246  23774287.068    23774288.7864   23774296.3734
      4030.186        3140.405
 96 10 30 16 39 59.9990000  0  8 17 28  3 23 21  1  9 31            -0.000575133
    385018.056 9    298638.96048  21340746.689    21340747.8094   21340754.9984
      -582.858        -454.175
    560406.385 9    434233.015 9  20994361.650    20994362.861    20994368.708
      -868.899        -677.064
  -2008493.079 9  -1556059.10648  21235448.265    21235449.8194   21235456.5504
      2044.780        1593.335
    -73692.027 9    -56680.36748  21042125.249    21042126.2124   21042132.4624
        21.477          16.735
  -1862608.674 9  -1280236.49648  20723555.216    20723555.7844   20723562.4964
      2054.906        1601.225
  -3743531.545 9  -2875780.83748  21651141.381    21651142.5364   21651149.6204
      4180.743        3257.722
  -2209906.727 9  -1703194.63246  23742113.265    23742114.6584   23742121.7084
      2467.628        1922.827
  -3546207.427 9  -2750125.45946  23751313.055    23751314.7914   23751322.2544
      4018.096        3130.984
 96 10 30 16 40 29.9990000  0  8 17 28  3 23 21  1  9 31            -0.000600052
    402669.795 9    312393.53048  21344105.876    21344106.9244   21344113.9294
      -592.311        -461.541
    586717.120 9    454734.867 9  20999368.380    20999369.650    20999375.455
      -883.575        -688.500
  -2069552.349 9  -1603637.77348  21223829.373    21223830.6694   21223837.3604
      2027.280        1579.699
    -74259.605 9    -57122.65448  21042017.266    21042018.2404   21042024.5124
        17.847          13.907
  -1924143.725 9  -1328185.89648  20711845.544    20711846.0624   20711852.7884
      2048.984        1596.611
  -3868766.925 9  -2973366.84248  21627310.223    21627311.0794   21627318.0564
      4169.926        3249.293
  -2283710.285 9  -1760703.91546  23728069.026    23728070.2954   23728077.3964
      2454.071        1912.263
  -3666568.255 9  -2843913.10446  23728409.674    23728411.0904   23728418.3214
      4007.477        3122.709
 96 10 30 16 40 59.9990000  0  8 17 28  3 23 21  1  9 31            -0.000624963
    420649.864 9    326403.94848  21347527.531    21347528.5174   21347535.3354
      -605.472        -471.796
    613510.409 9    475612.732 9  21004467.050    21004468.269    21004474.124
      -901.803        -702.704
  -2130038.817 9  -1650770.10048  21212319.033    21212320.5444   21212327.1494
      2005.760        1562.930
    -74668.553 9    -57441.33449  21041939.415    21041940.4334   21041946.7904
        10.168           7.923
  -1985456.279 9  -1375961.91748  20700177.976    20700178.6564   20700185.3814
      2039.198        1588.985
  -3993646.820 9  -3070675.83648  21603546.405    21603547.2274   21603554.0854
      4156.303        3238.678
  -2357057.444 9  -1817857.53947  23714111.688    23714112.8834   23714120.0044
      2436.438        1898.523
  -3786564.553 9  -2937416.69546  23705574.887    23705576.5154   23705583.6744
      3992.774        3111.252
 96 10 30 16 41 29.9990000  0  8 17 28  3 23 21  1  9 31            -0.000649867
    438951.071 9    340664.59548  21351010.594    21351011.2034   21351017.9194
      -615.941        -479.954
    640776.848 9    496859.275 9  21009655.781    21009656.883    21009662.850
      -917.376        -714.838
  -2189940.703 9  -1697446.91548  21200920.151    21200921.6344   21200928.1704
      1986.178        1547.671
    -74910.394 9    -57629.80448  21041893.586    21041894.4214   21041900.8494
         4.638           3.614
  -2046541.617 9  -1423560.88848  20688553.768    20688554.5404   20688561.2394
      2031.812        1583.230
  -4118203.799 9  -3167733.22148  21579844.073    21579844.8234   21579851.5184
      4146.174        3230.785
  -2429943.953 9  -1874652.23447  23700242.120    23700243.0814   23700250.1804
      2421.380        1886.790
  -3906182.007 9  -3030625.12246  23682812.887    23682813.9934   23682821.0854
      3980.030        3101.322
 96 10 30 16 41 59.9990000  0  8 17 28  3 23 21  1  9 31            -0.000674771
    457562.966 9    355167.33948  21354552.164    21354552.9664   21354559.6574
      -625.777        -487.618
    668510.137 9    518469.608 9  21014933.193    21014934.347    21014940.396
      -932.420        -726.561
  -2249240.700 9  -1743654.71648  21189635.716    21189637.2834   21189643.8204
      1966.288        1532.172
    -74987.889 9    -57690.20748  21041878.741    21041879.6394   21041886.1354
        -0.447          -0.348
  -2107411.162 9  -1470991.70848  20676970.879    20676971.5174   20676978.1824
      2025.171        1578.055
  -4242463.103 9  -3264558.65248  21556198.081    21556199.0714   21556205.6634
      4136.641        3223.357
  -2502384.412 9  -1931099.35947  23686457.267    23686458.2624   23686465.2214
      2407.087        1875.652
  -4025415.758 9  -3123534.53246  23660123.364    23660124.5234   23660131.4634
      3968.022        3091.965
 96 10 30 16 42 29.9990000  0  8 17 28  3 23 21  1  9 31            -0.000699694
    476459.489 9    369891.86548  21358147.849    21358148.8704   21358155.5654
      -634.823        -494.667
    696683.514 9    540422.868 9  21020294.564    21020295.558    21020301.727
      -946.586        -737.599
  -2307950.451 9  -1789402.58748  21178463.807    21178465.2764   21178471.8344
      1946.863        1517.036
    -74915.686 9    -57633.96348  21041892.325    21041893.3544   21041899.9164
        -5.115          -3.986
  -2168086.941 9  -1518271.54648  20665424.599    20665425.3234   20665431.9794
      2018.941        1573.201
  -4366428.711 9  -3361155.21748  21532608.023    21532609.2124   21532615.7824
      4126.947        3215.803
  -2574408.931 9  -1987222.33347  23672751.491    23672752.3504   23672759.5284
      2393.988        1865.445
  -4144303.734 9  -3216174.51046  23637500.019    23637500.7784   23637507.8964
      3956.872        3083.277
 96 10 30 16 42 59.9990000  0  8 17 28  3 23 21  1  9 31            -0.000724632
    495669.954 9    384861.01848  21361803.577    21361804.5644   21361811.2544
      -645.259        -502.799
    725320.899 9    562737.684 9  21025743.949    21025745.087    21025751.354
      -961.963        -749.582
  -2366027.871 9  -1834657.73148  21167412.003    21167413.5814   21167420.1594
      1925.681        1500.531
    -74663.457 9    -57437.44148  21041940.427    21041941.3494   21041947.9364
       -10.909          -8.501
  -2228520.665 9  -1565362.76848  20653924.304    20653925.1884   20653931.8014
      2010.574        1566.681
  -4490063.224 9  -3457493.78848  21509081.069    21509082.3294   21509088.9674
      4115.690        3207.031
  -2646008.646 9  -2043014.32547  23659126.233    23659127.4634   23659134.5704
      2380.097        1854.621
  -4262810.780 9  -3308517.65046  23614948.674    23614949.5154   23614956.7014
      3944.077        3073.307
 96 10 30 16 43 29.9990000  0  8 17 28  3 23 21  1  9 31            -0.000749622
    515136.023 9    400029.34448  21365508.290    21365508.9604   21365515.5844
      -653.236        -509.015
    754362.725 9    585367.654 9  21031270.336    21031271.573    21031277.885
      -974.898        -759.661
  -2423533.690 9  -1879467.47148  21156469.333    21156470.5834   21156477.2594
      1907.491        1486.357
    -74309.906 9    -57161.97148  21042007.752    21042008.6384   21042015.2064
       -13.290         -10.356
  -2288753.053 9  -1612297.10648  20642462.565    20642463.3654   20642469.9784
      2004.393        1561.865
  -4613401.045 9  -3553601.17048  21485610.567    21485611.9184   21485618.6454
      4106.005        3199.484
  -2717258.814 9  -2098533.94247  23645567.846    23645569.0644   23645576.0284
      2369.328        1846.230
  -4380989.247 9  -3400604.77446  23592460.404    23592461.0304   23592468.1354
      3933.772        3065.277
 96 10 30 16 43 59.9990000  0  8 17 28  3 23 21  1  9 31            -0.000774645
    534897.715 9    415428.02448  21369268.853    21369269.5554   21369276.1824
      -664.899        -518.103
    783850.600 9    608345.196 9  21036881.650    21036882.930    21036889.248
      -991.513        -772.608
  -2480448.465 9  -1923816.66248  21145638.781    21145640.1084   21145646.8414
      1886.353        1469.885
    -73831.037 9    -56788.85049  21042098.922    21042099.8214   21042106.3414
       -19.331         -15.063
  -2348747.168 9  -1659045.77048  20631045.995    20631046.8414   20631053.4834
      1994.525        1554.175
  -4736378.734 9  -3649427.92848  21462208.738    21462210.0294   21462216.8814
      4091.933        3188.519
  -2788130.062 9  -2153758.27947  23632081.580    23632082.6184   23632089.9254
      2354.813        1834.919
  -4498804.829 9  -3492409.11146  23570040.855    23570041.4284   23570048.5684
      3919.837        3054.418
 96 10 30 16 44 29.9990000  0  8 17 28  3 23 21  1  9 31            -0.000799677
    555006.321 9    431097.03148  21373095.546    21373096.1844   21373102.7664
      -676.654        -527.263
    813824.596 9    631701.532 9  21042585.555    21042586.796    21042593.129
     -1007.767        -785.273
  -2536755.026 9  -1967691.90848  21134924.035    21134925.3144   21134932.0564
      1866.417        1454.351
    -73176.921 9    -56279.17949  21042223.392    21042224.3454   21042230.8824
       -25.282         -19.700
  -2408446.842 9  -1705564.99848  20619685.372    20619686.3404   20619693.0284
      1984.630        1546.465
  -4858939.827 9  -3744930.06748  21438886.290    21438887.4364   21438894.3674
      4077.996        3177.659
  -2858571.956 9  -2208648.05546  23618677.107    23618677.9844   23618685.1704
      2340.274        1823.590
  -4616203.812 9  -3583888.84946  23547700.181    23547701.1434   23547708.3074
      3905.631        3043.349
 96 10 30 16 44 59.9990000  0  8 17 28  3 23 21  1  9 31            -0.000824719
    575451.164 9    447028.04148  21376986.034    21376986.7534   21376993.3144
      -686.738        -535.120
    844274.274 9    655428.527 9  21048380.037    21048381.192    21048387.519
     -1022.581        -796.816
  -2592477.076 9  -2011111.70048  21124320.379    21124321.7624   21124328.5024
      1848.004        1440.003
    -72361.393 9    -55643.72749  21042378.656    21042379.5904   21042386.1344
       -29.308         -22.837
  -2467871.592 9  -1751870.00448  20608377.437    20608378.1794   20608384.9054
      1976.890        1540.434
  -4981102.598 9  -3840121.81748  21415639.526    21415640.6604   21415647.6334
      4065.735        3168.105
  -2928583.167 9  -2263202.24646  23605354.866    23605355.3054   23605362.2714
      2326.583        1812.922
  -4733187.136 9  -3675044.65446  23525438.852    23525439.9644   23525447.2494
      3892.968        3033.482
 96 10 30 16 45 29.9990000  0  8 17 28  3 23 21  1  9 31            -0.000849783
    596188.785 9    463187.19348  21380932.107    21380933.0024   21380939.5534
      -696.691        -542.876
    875156.659 9    679492.696 9  21054256.748    21054257.927    21054264.190
     -1037.193        -808.202
  -2647656.657 9  -2054108.78948  21113819.987    21113821.4154   21113828.2184
      1829.617        1425.676
    -71434.768 9    -54921.70249  21042555.003    21042555.9694   21042562.5054
       -33.515         -26.116
  -2527089.993 9  -1798014.22148  20597108.733    20597109.3174   20597116.0364
      1970.244        1535.255
  -5102911.423 9  -3935037.77448  21392460.205    21392461.2454   21392468.2244
      4054.041        3158.993
  -2998188.275 9  -2317439.97646  23592109.843    23592109.8344   23592116.8234
      2312.779        1802.165
  -4849807.143 9  -3765917.35946  23503247.319    23503247.9814   23503255.1224
      3880.814        3024.011
 96 10 30 16 45 59.9990000  0  8 17 28  3 23 21  1  9 31            -0.000874859
    617235.903 9    479587.51248  21384937.068    21384938.1024   21384944.7904
      -706.972        -550.887
    906490.636 9    703908.755 9  21060219.378    21060220.616    21060226.769
     -1052.238        -819.926
  -2702260.900 9  -2096657.56348  21103429.138    21103430.5994   21103437.3704
      1809.984        1410.377
    -70350.187 9    -54076.59949  21042761.411    21042762.3714   21042768.9274
       -39.243         -30.579
  -2586105.084 9  -1844000.01948  20585878.233    20585879.1034   20585885.8094
      1963.403        1529.924
  -5224353.128 9  -4029667.66348  21369350.558    21369351.6514   21369358.6874
      4041.699        3149.376
  -3067349.915 9  -2371332.18346  23578948.152    23578948.7024   23578955.8654
      2297.460        1790.229
  -4966048.249 9  -3856494.86246  23481126.996    23481128.1124   23481135.1164
      3868.036        3014.054
 96 10 30 16 46 29.9990000  0  8 17 28  3 23 21  1  9 31            -0.000899938
    638589.478 9    496226.62748  21389000.431    21389001.5274   21389008.3754
      -716.851        -558.585
    938269.610 9    728671.566 9  21066266.790    21066267.965    21066274.100
     -1066.709        -831.202
  -2756268.410 9  -2138741.35448  21093151.931    21093153.3264   21093160.0934
      1790.026        1394.825
    -69100.544 9    -53102.87349  21042999.365    21043000.2374   21043006.7694
       -44.307         -34.525
  -2644914.679 9  -1889825.68448  20574687.173    20574688.0024   20574694.7114
      1957.059        1524.981
  -5345435.325 9  -4124017.41348  21346309.289    21346310.4274   21346317.5314
      4030.139        3140.368
  -3136047.742 9  -2424862.94546  23565875.003    23565875.8274   23565883.2464
      2282.099        1778.259
  -5081913.387 9  -3946779.38046  23459078.936    23459079.8544   23459086.5934
      3856.034        3004.702
 96 10 30 16 46 59.9990000  0  8 17 28  3 23 21  1  9 31            -0.000925007
    660255.956 9    513109.56048  21393123.621    21393124.5854   21393131.4774
      -727.973        -567.252
    970503.495 9    753788.853 9  21072400.572    21072401.861    21072408.017
     -1082.473        -843.485
  -2809638.752 9  -2180328.65448  21082995.738    21082997.3084   21083004.0574
      1767.780        1377.491
    -67686.541 9    -52001.07748  21043268.423    21043269.3064   21043275.8814
       -50.232         -39.142
  -2703518.752 9  -1935491.20048  20563535.243    20563536.0514   20563542.7574
      1949.570        1519.145
  -5466154.185 9  -4218084.04848  21323337.250    21323338.3504   21323345.5504
      4017.493        3130.514
  -3204263.728 9  -2478018.27146  23552894.340    23552894.7014   23552902.0804
      2265.476        1765.306
  -5197400.441 9  -4036769.29846  23437102.391    23437103.3824   23437109.8944
      3842.559        2994.202
 96 10 30 16 47 29.9990000  0  8 17 28  3 23 21  1  9 31            -0.000950075
    682228.814 9    530231.22948  21397304.770    21397305.8824   21397312.8934
      -737.576        -574.735
   1003174.289 9    779246.588 9  21078617.635    21078618.882    21078625.068
     -1096.273        -854.239
  -2862384.072 9  -2221428.91348  21072958.680    21072960.2854   21072966.9764
      1747.896        1361.997
    -66123.899 9    -50783.45448  21043565.685    21043566.6964   21043573.2144
       -54.683         -42.610
  -2761930.268 9  -1981006.67448  20552419.723    20552420.7364   20552427.4284
      1943.668        1514.546
  -5586525.553 9  -4311879.90848  21300431.146    21300432.3784   21300439.7184
      4006.401        3121.871
  -3272025.059 9  -2530819.32946  23539999.499    23540000.0304   23540007.3674
      2251.390        1754.330
  -5312507.912 9  -4126463.43746  23415198.132    23415199.1614   23415205.6034
      3830.404        2984.730
 96 10 30 16 47 59.9990000  0  8 17 28  3 23 21  1  9 31            -0.000975144
    704516.039 9    547597.85748  21401546.053    21401547.0394   21401554.1144
      -747.958        -582.824
   1036282.569 9    805045.221 9  21084918.196    21084919.206    21084925.416
     -1110.641        -865.435
  -2914510.993 9  -2262047.30248  21063039.216    21063040.8564   21063047.5584
      1727.523        1346.122
    -64410.356 9    -49448.24548  21043891.851    21043892.7494   21043899.2654
       -59.169         -46.106
  -2820134.537 9  -2026360.66348  20541343.926    20541344.9054   20541351.5304
      1936.749        1509.155
  -5706529.342 9  -4405389.34548  21277595.336    21277596.3134   21277603.8014
      3994.127        3112.307
  -3339337.673 9  -2583270.71646  23527190.864    23527190.8724   23527198.1644
      2236.565        1742.778
  -5427224.189 9  -4215852.76146  23393368.266    23393369.3624   23393375.7744
      3817.433        2974.623
 96 10 30 16 48 29.9990000  0  8 17 28  3 23 21  1  9 31            -0.001000199
    727154.546 9    565238.22348  21405854.149    21405855.0874   21405862.1394
      -760.482        -592.583
   1069854.406 9    831205.069 9  21091306.803    21091307.776    21091314.026
     -1126.662        -877.918
  -2966001.660 9  -2302169.91648  21053240.853    21053242.4754   21053249.1984
      1706.159        1329.475
    -62534.143 9    -47986.27648  21044248.915    21044249.8244   21044256.2824
       -65.151         -50.767
  -2878091.802 9  -2071522.17048  20530315.108    20530316.0374   20530322.6714
      1928.100        1502.416
  -5826126.431 9  -4498581.87848  21254836.734    21254837.7204   21254845.2074
      3979.681        3101.050
  -3406186.775 9  -2635360.92546  23514469.899    23514469.9614   23514477.4394
      2221.042        1730.682
  -5541511.019 9  -4304907.42746  23371620.445    23371621.3644   23371627.8324
      3802.385        2962.897
 96 10 30 16 48 59.9980000  0  8 17 28  3 23 21  1  9 31            -0.001025253
    750125.450 9    583137.60048  21410225.360    21410226.3364   21410233.4264
      -771.587        -601.237
   1103864.353 9    857706.292 9  21097778.649    21097779.706    21097786.025
     -1141.339        -889.355
  -3016898.558 9  -2341829.85448  21043555.683    21043557.1524   21043563.7644
      1686.534        1314.182
    -60517.503 9    -46414.88648  21044632.706    21044633.6014   21044640.0074
       -69.950         -54.506
  -2935837.502 9  -2116518.82848  20519326.466    20519327.4224   20519334.0724
      1921.012        1496.892
  -5945322.277 9  -4591461.76048  21232154.794    21232155.5524   21232162.9424
      3966.281        3090.609
  -3472621.695 9  -2687128.39646  23501827.533    23501827.8434   23501835.2304
      2207.465        1720.103
  -5655371.421 9  -4393629.80946  23349954.109    23349954.4904   23349961.0114
      3787.831        2951.557
 96 10 30 16 49 29.9980000  0  8 17 28  3 23 21  1  9 31            -0.001050319
    773424.936 9    601293.00248  21414659.397    21414660.0994   21414667.1754
      -782.209        -609.514
   1138304.970 9    884543.105 9  21104332.433    21104333.584    21104339.952
     -1155.266        -900.207
  -3067224.939 9  -2381045.22948  21033978.798    21033980.3834   21033986.9554
      1667.847        1299.621
    -58361.778 9    -44735.11748  21045042.966    21045043.8694   21045050.2114
       -74.262         -57.866
  -2993373.076 9  -2161351.75248  20508377.921    20508378.8224   20508385.4814
      1914.104        1491.510
  -6064115.019 9  -4684027.52748  21209549.199    21209550.0704   21209557.3874
      3952.745        3080.061
  -3538656.433 9  -2738584.04346  23489261.313    23489261.9094   23489269.2724
      2194.162        1709.737
  -5768806.367 9  -4482020.68646  23328367.405    23328368.4464   23328375.0444
      3774.087        2940.847
 96 10 30 16 49 59.9980000  0  8 17 28  3 23 21  1  9 31            -0.001075395
    797047.091 9    619699.84048  21419154.592    21419155.2774   21419162.2444
      -792.439        -617.485
   1173167.662 9    911708.811 9  21110966.550    21110967.775    21110974.159
     -1168.807        -910.759
  -3116982.830 9  -2419817.62948  21024510.082    21024511.7924   21024518.3604
      1649.311        1285.177
    -56075.635 9    -42953.73048  21045478.034    21045478.9274   21045485.2574
       -78.114         -60.868
  -3050696.839 9  -2206019.62848  20497469.586    20497470.5354   20497477.1304
      1907.575        1486.422
  -6182501.804 9  -4776276.95948  21187021.095    21187021.8514   21187029.0914
      3939.906        3070.057
  -3604275.165 9  -2789715.53046  23476774.860    23476775.0484   23476782.5214
      2180.451        1699.053
  -5881829.014 9  -4570090.28046  23306860.040    23306860.9544   23306867.5494
      3760.612        2930.347
 96 10 30 16 50 29.9980000  0  8 17 28  3 23 21  1  9 31            -0.001100475
    820995.850 9    638361.18148  21423711.786    21423712.6144   21423719.5464
      -804.175        -626.630
   1208451.654 9    939202.797 9  21117681.002    21117682.111    21117688.509
     -1183.493        -922.202
  -3166164.797 9  -2458141.25848  21015151.099    21015152.8444   21015159.3694
      1629.308        1269.591
    -53649.471 9    -41063.22948  21045939.813    21045940.6474   21045946.9414
       -83.565         -65.115
  -3107807.797 9  -2250521.68148  20486601.835    20486602.7584   20486609.2594
      1899.812        1480.373
  -6300492.368 9  -4868217.65448  21164568.334    21164569.0044   21164576.1524
      3926.187        3059.366
  -3669462.194 9  -2840510.62646  23464370.060    23464370.4204   23464377.7544
      2165.151        1687.131
  -5994422.591 9  -4657825.53246  23285434.352    23285435.2434   23285441.7634
      3745.567        2918.624
 96 10 30 16 50 59.9980000  0  8 17 28  3 23 21  1  9 31            -0.001125551
    845276.568 9    657281.17948  21428332.153    21428333.1714   21428340.0404
      -815.585        -635.521
   1244159.550 9    967027.098 9  21124476.059    21124477.132    21124483.508
     -1198.034        -933.533
  -3214748.330 9  -2495998.57448  21005906.188    21005907.7014   21005914.2104
      1608.463        1253.348
    -51086.268 9    -39065.94748  21046427.494    21046428.3964   21046434.7274
       -88.370         -68.860
  -3164698.688 9  -2294852.25248  20475775.838    20475776.8194   20475783.2264
      1891.800        1474.130
  -6418099.323 9  -4959859.43148  21142188.554    21142189.1614   21142196.2154
      3913.282        3049.311
  -3734192.740 9  -2890950.02147  23452052.314    23452052.6724   23452059.8974
      2149.069        1674.599
  -6106587.211 9  -4745226.54346  23264090.280    23264091.0704   23264097.5714
      3731.050        2907.312
 96 10 30 16 51 29.9980000  0  8 17 28  3 23 21  1  9 31            -0.001150601
    869925.593 9    676488.17248  21433022.604    21433023.7924   21433030.6704
      -827.701        -644.962
   1280323.297 9    995206.609 9  21131358.054    21131358.928    21131365.308
     -1212.969        -945.171
  -3262684.338 9  -2533351.32348  20996784.007    20996785.7734   20996792.2054
      1587.146        1236.737
    -48354.575 9    -36937.37348  21046947.359    21046948.2414   21046954.5394
       -93.802         -73.092
  -3221328.022 9  -2338979.02348  20464999.546    20465000.5994   20465007.0414
      1883.434        1467.611
  -6535291.826 9  -5051178.25948  21119887.556    21119888.1724   21119895.2044
      3899.501        3038.572
  -3798401.373 9  -2940982.72147  23439833.555    23439834.2554   23439841.4594
      2131.494        1660.904
  -6218302.135 9  -4832277.13246  23242831.199    23242832.4154   23242838.8874
      3716.461        2895.944
 96 10 30 16 51 59.9980000  0  8 17 28  3 23 21  1  9 31            -0.001175616
    894935.618 9    695976.46848  21437781.942    21437783.0694   21437789.9924
      -840.547        -654.972
   1316939.262 9   1023738.503 9  21138325.670    21138326.765    21138333.173
     -1229.081        -957.725
  -3309969.738 9  -2570197.10748  20987786.004    20987787.6684   20987794.0784
      1564.206        1218.862
    -45461.344 9    -34682.92748  21047497.967    21047498.8164   21047505.1374
      -100.099         -77.999
  -3277704.750 9  -2382908.94548  20454271.390    20454272.4554   20454278.9744
      1874.001        1460.261
  -6652073.815 9  -5142177.20748  21097664.688    21097665.3644   21097672.3594
      3884.885        3027.183
  -3862079.791 9  -2990602.27147  23427715.793    23427716.6374   23427724.0104
      2112.779        1646.321
  -6329570.145 9  -4918979.47046  23221658.125    23221658.9104   23221665.3804
      3700.237        2883.302
 96 10 30 16 52 29.9980000  0  8 17 28  3 23 21  1  9 31            -0.001200603
    920290.947 9    715733.82948  21442607.007    21442608.0834   21442615.0564
      -850.988        -663.108
   1353999.075 9   1052616.246 9  21145377.941    21145379.060    21145385.487
     -1242.812        -968.425
  -3356597.672 9  -2606530.57448  20978913.617    20978914.7034   20978921.1334
      1543.227        1202.514
    -42415.416 9    -32309.50248  21048077.647    21048078.4674   21048084.8004
      -104.099         -81.116
  -3333833.967 9  -2426646.00748  20443590.264    20443591.3904   20443598.0004
      1866.796        1454.646
  -6768448.378 9  -5232858.68648  21075519.300    21075520.0784   21075526.9654
      3872.217        3017.312
  -3925234.959 9  -3039814.08947  23415697.314    23415698.5134   23415706.0384
      2096.365        1633.531
  -6440393.433 9  -5005335.26546  23200568.950    23200569.8704   23200576.4924
      3686.809        2872.838
 96 10 30 16 52 59.9980000  0  8 17 28  3 23 21  1  9 31            -0.001225569
    945974.804 9    735747.19248  21447494.566    21447495.6164   21447502.5674
      -862.094        -671.762
   1391497.197 9   1081835.531 9  21152513.460    21152514.747    21152521.164
     -1257.864        -980.154
  -3402577.107 9  -2642358.72348  20970164.343    20970165.0874   20970171.6384
      1521.421        1185.523
    -39223.209 9    -29822.08948  21048685.209    21048685.9664   21048692.2514
      -109.699         -85.480
  -3389729.010 9  -2470200.59348  20432953.796    20432954.9184   20432961.5174
      1858.731        1448.362
  -6884409.759 9  -5323218.20148  21053452.687    21053453.3644   21053460.2084
      3857.557        3005.889
  -3987867.967 9  -3088619.03247  23403778.616    23403779.9254   23403787.2854
      2078.537        1619.639
  -6550793.512 9  -5091361.29946  23179560.644    23179561.3514   23179568.0594
      3672.160        2861.423
 96 10 30 16 53 29.9980000  0  8 17 28  3 23 21  1  9 31            -0.001250518
    971974.235 9    756006.45148  21452442.017    21452443.1854   21452450.0914
      -870.401        -678.235
   1429426.546 9   1111390.840 9  21159731.140    21159732.490    21159738.922
     -1270.051        -989.650
  -3447936.955 9  -2677704.07848  20961532.540    20961533.3894   20961540.0134
      1503.248        1171.362
    -35875.978 9    -27213.88248  21049322.138    21049322.9284   21049329.2994
      -112.606         -87.745
  -3445406.013 9  -2513585.28048  20422358.992    20422359.9464   20422366.4934
      1853.728        1444.463
  -6999939.208 9  -5413241.14048  21031467.991    21031468.8254   21031475.6214
      3845.237        2996.289
  -4049994.365 9  -3137029.22547  23391956.718    23391957.7744   23391964.9594
      2063.984        1608.299
  -6660762.298 9  -5177051.26846  23158634.584    23158634.9254   23158641.6934
      3659.689        2851.706
 96 10 30 16 53 59.9980000  0  8 17 28  3 23 21  1  9 31            -0.001275468
    998271.471 9    776497.75848  21457446.081    21457447.3654   21457454.2794
      -882.564        -687.712
   1467771.304 9   1141269.840 9  21167028.033    21167029.278    21167035.758
     -1285.939       -1002.030
  -3492700.472 9  -2712584.75848  20953014.127    20953015.2024   20953021.8074
      1481.450        1154.377
    -32395.451 9    -24501.80448  21049984.563    21049985.2944   21049991.6094
      -119.210         -92.891
  -3500876.178 9  -2556808.79948  20411803.393    20411804.3524   20411810.8194
      1844.539        1437.303
  -7115056.481 9  -5502942.91148  21009561.704    21009562.6754   21009569.4624
      3829.543        2984.059
  -4111640.206 9  -3185064.95947  23380226.072    23380227.0224   23380234.1874
      2046.095        1594.360
  -6770309.639 9  -5262412.85246  23137787.846    23137788.7674   23137795.5274
      3643.682        2839.233
 96 10 30 16 54 29.9980000  0  8 17 28  3 23 21  1  9 31            -0.001300428
   1024882.784 9    797233.80948  21462510.049    21462511.3304   21462518.2974
      -891.877        -694.969
   1506532.769 9   1171473.542 9  21174404.125    21174405.343    21174411.876
     -1298.395       -1011.736
  -3536884.127 9  -2747013.59448  20944606.521    20944607.3924   20944613.9694
      1463.829        1140.646
    -28770.584 9    -21677.25448  21050674.213    21050675.0854   21050681.4034
      -122.741         -95.642
  -3556129.742 9  -2599863.53448  20401289.031    20401289.9124   20401296.4044
      1838.743        1432.787
  -7229758.946 9  -5592321.44848  20987734.414    20987735.4834   20987742.3074
      3817.073        2974.343
  -4172814.533 9  -3232733.27747  23368584.901    23368586.0054   23368593.0754
      2031.932        1583.324
  -6879437.022 9  -5347447.16946  23117021.956    23117022.5084   23117029.1864
      3631.129        2829.451
 96 10 30 16 54 59.9980000  0  8 17 28  3 23 21  1  9 31            -0.001325400
   1051828.214 9    818230.20848  21467637.841    21467638.8924   21467645.8404
      -904.342        -704.682
   1545716.667 9   1202006.415 9  21181860.562    21181861.805    21181868.305
     -1313.601       -1023.585
  -3580490.624 9  -2780992.69648  20936308.447    20936309.3464   20936315.9884
      1443.301        1124.650
    -24991.993 9    -18732.91448  21051393.349    21051394.1804   21051400.3914
      -128.986        -100.508
  -3611152.521 9  -2642738.42948  20390818.456    20390819.3514   20390825.9314
      1829.515        1425.596
  -7344041.188 9  -5681372.53748  20965987.141    20965988.3264   20965995.2014
      3802.058        2962.642
  -4233515.787 9  -3280032.95046  23357033.530    23357034.9144   23357041.8974
      2015.171        1570.263
  -6988129.457 9  -5432142.56646  23096338.472    23096339.0694   23096345.4554
      3615.036        2816.911
 96 10 30 16 55 29.9980000  0  8 17 28  3 23 21  1  9 31            -0.001350387
   1079118.763 9    839495.53448  21472831.122    21472832.0934   21472839.1064
      -916.010        -713.774
   1585314.745 9   1232862.032 9  21189396.039    21189397.133    21189403.515
     -1327.362       -1034.308
  -3623510.702 9  -2814514.84748  20928122.047    20928122.9084   20928129.5864
      1423.341        1109.097
    -21071.020 9    -15677.62848  21052139.619    21052140.3254   21052146.5374
      -133.463        -103.997
  -3665926.016 9  -2685419.07948  20380395.421    20380396.2544   20380402.9034
      1820.797        1418.803
  -7457921.393 9  -5770110.35048  20944316.671    20944317.7004   20944324.5494
      3788.969        2952.443
  -4293752.079 9  -3326970.31647  23345570.882    23345572.2904   23345579.2024
      1999.343        1557.930
  -7096374.208 9  -5516489.12947  23075740.300    23075740.7984   23075747.2154
      3600.084        2805.260
 96 10 30 16 55 59.9980000  0  8 17 28  3 23 21  1  9 31            -0.001375386
   1106768.937 9    861041.08148  21478092.781    21478093.7484   21478100.8314
      -927.997        -723.115
   1625338.180 9   1264049.091 9  21197012.378    21197013.399    21197019.678
     -1341.603       -1045.405
  -3665906.864 9  -2847550.83348  20920054.253    20920055.2464   20920061.9604
      1402.353        1092.743
    -16998.102 9    -12503.95848  21052914.619    21052915.3744   21052921.6494
      -138.925        -108.253
  -3720412.428 9  -2727876.03648  20370026.974    20370027.8054   20370034.4544
      1811.032        1411.194
  -7571396.986 9  -5858532.88748  20922723.123    20922724.0504   20922730.8904
      3775.179        2941.698
  -4353495.507 9  -3373523.64647  23334202.312    23334203.5224   23334210.3324
      1982.802        1545.041
  -7204160.191 9  -5600478.20146  23055229.240    23055229.8534   23055236.3324
      3584.529        2793.139
 96 10 30 16 56 29.9980000  0  8 17 28  3 23 21  1  9 31            -0.001400387
   1134762.474 9    882854.18948  21483419.861    21483420.7064   21483427.9344
      -938.552        -731.339
   1665779.443 9   1295561.726 9  21204708.146    21204709.156    21204715.414
     -1354.791       -1055.681
  -3707668.527 9  -2880092.40548  20912107.461    20912108.3114   20912115.0564
      1381.281        1076.323
    -12766.387 9     -9206.53648  21053719.723    21053720.5964   21053726.8974
      -143.488        -111.809
  -3774620.422 9  -2770116.04148  20359711.581    20359712.3584   20359719.0334
      1802.583        1404.610
  -7684462.718 9  -5946636.05448  20901207.570    20901208.3734   20901215.2644
      3762.077        2931.488
  -4412744.075 9  -3419691.38647  23322927.624    23322928.8144   23322935.6064
      1966.630        1532.439
  -7311472.668 9  -5684098.31647  23034809.072    23034808.9724   23034815.4804
      3569.280        2781.257
 96 10 30 16 56 59.9980000  0  8 17 28  3 23 21  1  9 31            -0.001425386
   1163076.740 9    904917.21348  21488807.720    21488808.6654   21488816.0104
      -949.145        -739.594
   1706622.822 9   1327387.699 9  21212480.573    21212481.419    21212487.636
     -1368.246       -1066.166
  -3748777.269 9  -2912125.20648  20904285.185    20904285.6104   20904292.3354
      1359.260        1059.164
     -8388.326 9     -5795.08348  21054552.800    21054553.7104   21054560.0704
      -148.546        -115.750
  -3828568.610 9  -2812153.59548  20349445.420    20349446.3514   20349453.0844
      1793.924        1397.863
  -7797122.501 9  -6034422.89348  20879769.078    20879769.9794   20879776.8644
      3748.319        2920.768
  -4471490.213 9  -3465467.58647  23311748.658    23311749.8434   23311756.7584
      1949.773        1519.304
  -7418314.708 9  -5767351.83247  23014477.362    23014477.6074   23014484.1924
      3553.239        2768.758
 96 10 30 16 57 29.9980000  0  8 17 28  3 23 21  1  9 31            -0.001450380
   1191688.565 9    927212.10448  21494252.172    21494253.2824   21494260.6094
      -958.773        -747.096
   1747855.113 9   1359516.724 9  21220326.863    21220327.712    21220333.849
     -1381.037       -1076.133
  -3789248.589 9  -2943661.31748  20896583.726    20896584.1694   20896590.9274
      1338.542        1043.020
     -3871.669 9     -2275.63148  21055412.377    21055413.2514   21055419.5854
      -152.941        -119.175
  -3882285.453 9  -2854010.88248  20339223.342    20339224.3674   20339231.1614
      1786.831        1392.336
  -7909370.163 9  -6121888.60048  20858409.025    20858409.9744   20858416.7984
      3734.400        2909.922
  -4529744.017 9  -3510860.16647  23300663.369    23300664.6554   23300671.6194
      1933.371        1506.523
  -7524694.713 9  -5850245.34847  22994234.088    22994234.2324   22994240.7704
      3538.248        2757.076
 96 10 30 16 57 59.9980000  0  8 17 28  3 23 21  1  9 31            -0.001475364
   1220607.279 9    949746.12748  21499755.575    21499756.4104   21499763.7504
      -969.076        -755.124
   1789488.525 9   1391958.315 9  21228249.472    21228250.343    21228256.365
     -1394.328       -1086.489
  -3829089.024 9  -2974705.83748  20889002.048    20889002.8124   20889009.6344
      1317.797        1026.855
       801.520 9      1365.79948  21056301.630    21056302.6134   21056308.8834
      -158.405        -123.432
  -3935779.263 9  -2895694.37948  20329043.854    20329044.8784   20329051.6634
      1779.696        1386.776
  -8021176.251 9  -6209010.23048  20837133.133    20837134.0284   20837140.7384
      3719.524        2898.330
  -4587495.296 9  -3555861.16947  23289674.004    23289674.9934   23289682.0034
      1916.946        1493.724
  -7630605.724 9  -5932773.40047  22974079.492    22974079.8844   22974086.5334
      3522.528        2744.827
 96 10 30 16 58 29.9980000  0  8 17 28  3 23 21  1  9 31            -0.001500323
   1249855.974 9    972537.27448  21505321.774    21505322.3414   21505329.6534
      -981.257        -764.616
   1831534.438 9   1424721.340 9  21236250.782    21236251.498    21236257.363
     -1409.059       -1097.968
  -3868294.926 9  -3005255.90848  20881541.213    20881542.1964   20881549.0144
      1295.730        1009.660
      5644.744 9      5139.72548  21057223.453    21057224.2814   21057230.5404
      -164.804        -128.419
  -3989051.875 9  -2937205.50748  20318906.520    20318907.5144   20318914.2214
      1771.347        1380.270
  -8132518.943 9  -6295770.77048  20815945.275    20815946.2484   20815952.8924
      3702.918        2885.391
  -4644740.823 9  -3600468.05647  23278780.745    23278781.5064   23278788.4684
      1899.177        1479.878
  -7736030.534 9  -6014922.59447  22954017.434    22954018.2294   22954024.6474
      3505.531        2731.582
 96 10 30 16 58 59.9980000  0  8 17 28  3 23 21  1  9 31            -0.001525278
   1279437.615 9    995587.86048  21510951.002    21510951.6284   21510958.8254
      -992.534        -773.403
   1873982.067 9   1457797.382 9  21244328.284    21244329.068    21244334.849
     -1422.495       -1108.438
  -3906892.971 9  -3035332.32248  20874196.140    20874197.2624   20874204.0244
      1275.811         994.138
     10640.100 9      9032.19848  21058174.082    21058174.9244   21058181.1624
      -169.725        -132.253
  -4042106.604 9  -2978546.86248  20308810.545    20308811.5944   20308818.2634
      1763.877        1374.450
  -8243400.056 9  -6382171.63448  20794845.179    20794846.2514   20794852.9574
      3687.541        2873.409
  -4701500.345 9  -3644696.29147  23267979.491    23267980.5504   23267987.4474
      1883.197        1467.426
  -7840990.447 9  -6096709.52847  22934044.549    22934045.0614   22934051.3684
      3489.909        2719.410
 96 10 30 16 59 29.9980000  0  8 17 28  3 23 21  1  9 31            -0.001550237
   1309353.582 9   1018898.97748  21516644.186    21516644.5534   21516651.5994
     -1003.161        -781.684
   1916821.056 9   1491178.380 9  21252480.349    21252481.109    21252486.780
     -1434.668       -1117.923
  -3944905.837 9  -3064952.75148  20866962.481    20866963.6284   20866970.3834
      1256.931         979.427
     15760.873 9     13022.38848  21059148.588    21059149.3824   21059155.6794
      -172.900        -134.727
  -4094946.894 9  -3019721.12148  20298755.506    20298756.4754   20298763.0784
      1757.489        1369.472
  -8353838.009 9  -6468227.17448  20773829.571    20773830.5834   20773837.3684
      3673.845        2862.736
  -4757786.491 9  -3688555.63247  23257268.576    23257269.6664   23257276.5894
      1867.874        1455.486
  -7945493.301 9  -6178140.33346  22914157.905    22914158.7144   22914165.0014
      3475.592        2708.254
 96 10 30 16 59 59.9980000  0  8 17 28  3 23 21  1  9 31            -0.001575181
   1339640.950 9   1042499.48948  21522407.771    21522408.1144   21522415.0874
     -1014.443        -790.475
   1960072.411 9   1524880.703 9  21260710.810    21260711.625    21260717.214
     -1447.343       -1127.800
  -3982288.800 9  -3094082.35148  20859848.658    20859849.8544   20859856.6364
      1236.548         963.544
     21031.171 9     17129.09648  21060151.390    21060152.2864   21060158.6264
      -177.025        -137.942
  -4147535.320 9  -3060699.12448  20288748.367    20288749.2434   20288755.8054
      1749.931        1363.582
  -8463815.783 9  -6553924.14348  20752901.464    20752902.4824   20752909.3394
      3659.272        2851.381
  -4813567.181 9  -3732021.11847  23246653.566    23246655.0004   23246661.9274
      1852.040        1443.148
  -8049506.802 9  -6259189.81347  22894364.447    22894365.5734   22894371.8334
      3459.967        2696.078
 96 10 30 17  0 29.9980000  0  8 17 28  3 23 21  1  9 31            -0.001600110
   1370272.353 9   1066368.06748  21528236.661    21528237.0734   21528244.0804
     -1026.827        -800.125
   2003717.796 9   1558890.062 9  21269016.263    21269017.097    21269022.695
     -1461.642       -1138.942
  -4019041.524 9  -3122720.85448  20852854.861    20852856.0994   20852862.8354
      1214.339         946.238
     26431.107 9     21336.81948  21061178.934    21061179.8624   21061186.2994
      -182.280        -142.036
  -4199891.264 9  -3101495.97348  20278785.288    20278786.2204   20278792.7884
      1741.174        1356.759
  -8573335.721 9  -6639264.35148  20732060.553    20732061.4964   20732068.3994
      3642.738        2838.497
  -4868847.532 9  -3775096.73147  23236134.241    23236135.4264   23236142.3894
      1834.017        1429.104
  -8153040.673 9  -6339865.55947  22874662.659    22874663.7134   22874669.9924
      3442.900        2682.779
 96 10 30 17  0 59.9980000  0  8 17 28  3 23 21  1  9 31            -0.001625015
   1401244.839 9   1090502.43148  21534130.191    21534130.8534   21534137.9584
     -1038.180        -808.971
   2047758.258 9   1593207.273 9  21277396.714    21277397.701    21277403.395
     -1474.597       -1149.037
  -4055158.616 9  -3150864.05948  20845982.289    20845983.2974   20845989.9734
      1193.246         929.802
     31959.125 9     25644.34048  21062230.956    21062231.7884   21062238.2694
      -186.443        -145.280
  -4252017.098 9  -3142113.51848  20268865.883    20268866.9814   20268873.5604
      1733.711        1350.944
  -8682394.691 9  -6724245.36248  20711307.275    20711308.2234   20711315.2574
      3627.683        2826.766
  -4923609.436 9  -3817768.33847  23225713.564    23225714.5714   23225721.3514
      1816.544        1415.489
  -8256085.503 9  -6420160.21147  22855053.931    22855054.8814   22855061.4324
      3426.419        2669.937
 96 10 30 17  1 29.9980000  0  8 17 28  3 23 21  1  9 31            -0.001649888
   1432551.578 9   1114897.24548  21540087.695    21540088.2844   21540095.4024
     -1048.523        -817.031
   2092185.562 9   1627825.912 9  21285850.903    21285851.917    21285857.727
     -1486.942       -1158.656
  -4090642.291 9  -3178513.70348  20839229.903    20839231.0134   20839237.6824
      1172.652         913.755
     37621.315 9     30056.41348  21063308.346    21063309.2514   21063315.7154
      -190.978        -148.814
  -4303931.004 9  -3182565.91948  20258987.177    20258988.1074   20258994.6594
      1727.466        1346.077
  -8791001.375 9  -6808873.94148  20690640.187    20690641.0394   20690648.1884
      3613.000        2815.325
  -4977845.760 9  -3860030.41247  23215392.619    23215393.6754   23215400.6444
      1799.502        1402.209
  -8358638.130 9  -6500071.35147  22835538.731    22835539.7204   22835546.4804
      3410.624        2657.629
 96 10 30 17  1 59.9980000  0  8 17 28  3 23 21  1  9 31            -0.001674734
   1464177.410 9   1139540.71048  21546105.811    21546106.4234   21546113.6424
     -1059.457        -825.551
   2137001.604 9   1662747.471 9  21294378.832    21294380.083    21294385.974
     -1500.448       -1169.180
  -4125495.692 9  -3205672.21648  20832597.383    20832598.6824   20832605.3504
      1151.418         897.209
     43451.243 9     34599.19448  21064417.769    21064418.6554   21064425.1414
      -197.219        -153.677
  -4355637.799 9  -3222856.93648  20249147.790    20249148.6814   20249155.2274
      1719.951        1340.222
  -8899138.316 9  -6893136.49548  20670062.111    20670063.2244   20670070.3604
      3596.605        2802.549
  -5031557.860 9  -3901884.01847  23205171.447    23205172.4824   23205179.5724
      1781.541        1388.214
  -8460696.568 9  -6579597.40347  22816118.001    22816118.6854   22816125.4654
      3393.685        2644.430
 96 10 30 17  2 29.9980000  0  8 17 28  3 23 21  1  9 31            -0.001699580
   1496088.701 9   1164406.59348  21552178.212    21552178.9604   21552186.3364
     -1068.606        -832.680
   2182180.885 9   1697952.078 9  21302976.195    21302977.396    21302983.352
     -1511.997       -1178.179
  -4159765.349 9  -3232375.85948  20826076.099    20826077.4034   20826084.0654
      1132.686         882.612
     49421.106 9     39251.00948  21065553.786    21065554.6904   21065561.2124
      -201.297        -156.855
  -4407159.822 9  -3263003.97448  20239343.309    20239344.3704   20239350.9934
      1714.144        1335.697
  -9006838.357 9  -6977058.60348  20649567.623    20649568.5864   20649575.6744
      3583.017        2791.961
  -5084767.759 9  -3943346.28647  23195046.273    23195046.9944   23195054.1814
      1765.422        1375.654
  -8562297.167 9  -6658766.69547  22796784.541    22796784.8644   22796791.5044
      3379.112        2633.074
 96 10 30 17  2 59.9980000  0  8 17 28  3 23 21  1  9 31            -0.001724428
   1528326.087 9   1189526.59148  21558312.679    21558313.6494   21558320.9614
     -1080.161        -841.684
   2227742.108 9   1733454.289 9  21311646.346    21311647.388    21311653.415
     -1524.997       -1188.309
  -4193436.616 9  -3258613.24248  20819668.555    20819669.9874   20819676.6204
      1112.476         866.864
     55558.991 9     44033.75848  21066721.801    21066722.7564   21066729.2914
      -207.492        -161.682
  -4458454.878 9  -3302974.15548  20229582.182    20229583.2464   20229589.9284
      1705.932        1329.298
  -9114099.419 9  -7060638.64548  20629156.616    20629157.5084   20629164.6154
      3568.123        2780.356
  -5137459.798 9  -3984405.02547  23185019.215    23185019.9664   23185027.2744
      1747.851        1361.962
  -8663422.999 9  -6737566.03847  22777540.712    22777541.2174   22777548.0014
      3363.005        2620.523
 96 10 30 17  3 29.9980000  0  8 17 28  3 23 21  1  9 31            -0.001749287
   1560898.583 9   1214907.70448  21564510.929    21564512.1264   21564519.3884
     -1090.758        -849.941
   2273683.216 9   1769252.516 9  21320388.490    21320389.699    21320395.780
     -1537.146       -1197.776
  -4226510.141 9  -3284384.84048  20813375.111    20813376.3584   20813382.9504
      1092.876         851.592
     61871.414 9     48952.50848  21067923.097    21067924.0034   21067930.5644
      -212.615        -165.674
  -4509515.013 9  -3342761.28048  20219865.874    20219866.8334   20219873.5474
      1698.438        1323.458
  -9220923.387 9  -7143878.09748  20608828.836    20608829.6234   20608836.6554
      3554.084        2769.416
  -5189635.902 9  -4025061.74247  23175090.341    23175091.2394   23175098.8294
      1731.116        1348.922
  -8764083.445 9  -6816002.75347  22758385.462    22758386.0894   22758393.0874
      3348.161        2608.957
 96 10 30 17  3 59.9980000  0  8 17 28  3 23 21  1  9 31            -0.001774165
   1593803.370 9   1240547.74448  21570772.618    21570773.8124   21570781.1094
     -1103.264        -859.686
   2319996.692 9   1805340.900 9  21329201.862    21329202.908    21329209.003
     -1550.636       -1208.288
  -4258983.354 9  -3309688.66348  20807195.713    20807196.9184   20807203.4734
      1071.682         835.077
     68332.709 9     53987.26748  21069152.640    21069153.5674   21069160.1454
      -218.206        -170.031
  -4560323.409 9  -3382352.24348  20210197.372    20210198.3284   20210205.0214
      1688.542        1315.747
  -9327316.902 9  -7226782.13048  20588582.910    20588583.6364   20588590.5174
      3538.463        2757.244
  -5241299.995 9  -4065319.50447  23165258.970    23165259.9384   23165267.4104
      1712.884        1334.715
  -8864284.794 9  -6894081.72147  22739317.545    22739318.4044   22739325.3354
      3331.544        2596.008
 96 10 30 17  4 29.9980000  0  8 17 28  3 23 21  1  9 31            -0.001799053
   1627062.532 9   1266463.93448  21577101.591    21577102.8294   21577110.2074
     -1114.334        -868.312
   2366687.940 9   1841723.654 9  21338086.902    21338088.027    21338094.105
     -1562.403       -1217.457
  -4290839.258 9  -3334511.46448  20801133.711    20801134.9214   20801141.4274
      1051.620         819.444
     74932.544 9     59129.97848  21070408.528    21070409.4704   21070416.0544
      -222.168        -173.118
  -4610859.499 9  -3421731.02148  20200580.739    20200581.6574   20200588.3544
      1680.343        1309.358
  -9433263.779 9  -7309338.13748  20568421.614    20568422.6494   20568429.4384
      3524.156        2746.096
  -5292439.944 9  -4105168.81447  23155527.157    23155528.4184   23155535.8814
      1696.130        1321.660
  -8964007.434 9  -6971787.66047  22720340.559    22720341.8624   22720348.7864
      3316.247        2584.089
 96 10 30 17  4 59.9980000  0  8 17 28  3 23 21  1  9 31            -0.001823946
   1660666.002 9   1292648.41248  21583496.019    21583497.4044   21583504.9074
     -1125.384        -876.923
   2413747.192 9   1878393.165 9  21347042.104    21347043.173    21347049.227
     -1574.477       -1226.865
  -4322068.842 9  -3358846.22648  20795190.572    20795192.1424   20795198.5834
      1030.871         803.276
     81667.601 9     64378.05848  21071690.157    21071691.1264   21071697.7154
      -226.434        -176.442
  -4661136.651 9  -3460908.02348  20191013.303    20191014.2104   20191020.9604
      1672.066        1302.909
  -9538750.286 9  -7391535.40848  20548348.372    20548349.2434   20548355.9574
      3508.596        2733.971
  -5343058.520 9  -4144611.87047  23145895.112    23145896.0154   23145903.5454
      1678.803        1308.158
  -9063248.276 9  -7049118.18147  22701455.467    22701456.9144   22701463.8674
      3300.183        2571.571
 96 10 30 17  5 29.9980000  0  8 17 28  3 23 21  1  9 31            -0.001848834
   1694595.928 9   1319087.26248  21589952.949    21589954.0314   21589961.6614
     -1137.425        -886.305
   2461174.678 9   1915349.602 9  21356067.466    21356068.394    21356074.450
     -1588.115       -1237.492
  -4352669.423 9  -3382690.85448  20789367.684    20789369.1194   20789375.4334
      1008.375         785.747
     88531.044 9     69726.17448  21072996.278    21072997.2344   21073003.8094
      -231.945        -180.736
  -4711166.163 9  -3499892.05848  20181492.953    20181493.8634   20181500.6324
      1662.437        1295.405
  -9643759.917 9  -7473361.09248  20528365.615    20528366.5684   20528373.2424
      3491.194        2720.411
  -5393147.875 9  -4183642.54147  23136363.351    23136364.3804   23136371.7894
      1659.718        1293.287
  -9161992.109 9  -7126061.40447  22682665.553    22682666.6194   22682673.5684
      3281.830        2557.270
 96 10 30 17  5 59.9980000  0  8 17 28  3 23 21  1  9 31            -0.001873693
   1728870.313 9   1345794.52848  21596475.435    21596476.2204   21596483.9464
     -1147.558        -894.201
   2508994.834 9   1952612.022 9  21365167.324    21365168.314    21365174.389
     -1599.887       -1246.665
  -4382612.060 9  -3406022.79748  20783670.079    20783671.2244   20783677.4804
       987.770         769.691
     95550.038 9     75195.50248  21074331.913    21074332.9354   21074339.5384
      -236.049        -183.934
  -4760924.246 9  -3538664.59948  20172024.343    20172025.2134   20172031.9554
      1654.978        1289.593
  -9748256.532 9  -7554787.01649  20508480.583    20508481.5644   20508488.2244
      3475.169        2707.924
  -5442681.702 9  -4222240.33847  23126937.201    23126938.4444   23126945.4834
      1642.445        1279.827
  -9260193.530 9  -7202581.98147  22663979.106    22663979.6174   22663986.5804
      3264.805        2544.004
 96 10 30 17  6 29.9980000  0  8 17 28  3 23 21  1  9 31            -0.001898530
   1763459.117 9   1372746.79448  21603057.432    21603058.3104   21603066.1464
     -1157.304        -901.795
   2557176.848 9   1990156.404 9  21374336.094    21374337.053    21374343.142
     -1611.207       -1255.486
  -4411926.637 9  -3428865.34948  20778091.571    20778092.8394   20778099.0494
       967.555         753.939
    102709.753 9     80774.48048  21075694.523    21075695.4244   21075701.9724
      -240.202        -187.170
  -4810464.207 9  -3577267.16748  20162597.320    20162598.0964   20162604.7584
      1648.820        1284.795
  -9852264.996 9  -7635832.56949  20488688.689    20488689.4514   20488696.1224
      3459.815        2695.960
  -5491676.872 9  -4260418.36447  23117613.371    23117614.8844   23117622.1184
      1624.924        1266.175
  -9357874.045 9  -7278696.66547  22645391.313    22645391.5474   22645398.6864
      3248.239        2531.095
 96 10 30 17  6 59.9980000  0  8 17 28  3 23 21  1  9 31            -0.001923342
   1798350.671 9   1399934.97048  21609697.064    21609698.0284   21609705.8054
     -1168.322        -910.381
   2605703.891 9   2027969.648 9  21383570.482    21383571.462    21383577.546
     -1623.341       -1264.941
  -4440630.361 9  -3451231.89948  20772629.737    20772630.7894   20772636.9124
       946.724         737.707
    109994.194 9     86450.64948  21077080.802    21077081.6364   21077088.1754
      -244.847        -190.790
  -4859814.891 9  -3615722.25248  20153206.270    20153207.0194   20153213.6024
      1641.718        1279.261
  -9955814.487 9  -7716520.47149  20468983.926    20468984.6634   20468991.3534
      3444.149        2683.752
  -5540136.043 9  -4298178.72347  23108391.724    23108393.3244   23108400.6504
      1606.385        1251.729
  -9455052.584 9  -7354420.18347  22626898.343    22626899.0624   22626906.1424
      3230.846        2517.542
 96 10 30 17  7 29.9980000  0  8 17 28  3 23 21  1  9 31            -0.001948123
   1833557.107 9   1427368.51448  21616396.636    21616397.6944   21616405.3384
     -1178.032        -917.947
   2654571.317 9   2066048.117 9  21392869.324    21392870.629    21392876.740
     -1633.785       -1273.079
  -4468734.147 9  -3473130.97248  20767281.559    20767282.8724   20767288.9324
       927.502         722.729
    117399.683 9     92221.14448  21078489.959    21078490.8504   21078497.3564
      -248.200        -193.403
  -4908974.416 9  -3654028.38448  20143851.645    20143852.3294   20143858.9124
      1636.182        1274.947
 -10058923.118 9  -7796864.85848  20449363.017    20449363.7464   20449370.4054
      3430.415        2673.051
  -5588056.419 9  -4335519.27947  23099273.371    23099274.3364   23099281.7354
      1589.001        1238.183
  -9551729.876 9  -7429753.13347  22608500.813    22608501.8924   22608508.9934
      3214.975        2505.175
 96 10 30 17  7 59.9980000  0  8 17 28  3 23 21  1  9 31            -0.001972868
   1869092.378 9   1455058.28548  21623158.968    21623159.9224   21623167.4574
     -1190.051        -927.312
   2703792.533 9   2104402.268 9  21402236.046    21402237.145    21402243.289
     -1646.736       -1283.171
  -4496217.708 9  -3494546.74948  20762051.689    20762052.9234   20762059.0304
       905.618         705.676
    124949.416 9     98104.04148  21079926.497    21079927.4864   21079933.9724
      -254.244        -198.112
  -4957925.766 9  -3692172.29948  20134536.503    20134537.2184   20134543.8114
      1628.083        1268.636
 -10161571.194 9  -7876850.37048  20429829.850    20429830.4524   20429837.0834
      3413.725        2660.045
  -5635418.441 9  -4372424.74847  23090260.974    23090261.6374   23090268.9494
      1569.259        1222.799
  -9647897.250 9  -7504688.75947  22590200.386    22590201.8344   22590208.7694
      3196.988        2491.159
 96 10 30 17  8 29.9980000  0  8 17 28  3 23 21  1  9 31            -0.001997592
   1904943.747 9   1482994.37548  21629981.231    21629982.2674   21629989.8474
     -1199.903        -934.989
   2753354.933 9   2143022.277 9  21411667.749    21411668.591    21411674.746
     -1657.355       -1291.445
  -4523095.435 9  -3515490.44448  20756936.826    20756938.2284   20756944.4464
       886.232         690.570
    132632.407 9    104090.77148  21081388.751    21081389.5394   21081396.0224
      -257.805        -200.887
  -5006674.878 9  -3730158.62348  20125259.717    20125260.6344   20125267.1934
      1621.710        1263.670
 -10263766.938 9  -7956483.40648  20410382.455    20410383.2154   20410389.8894
      3399.438        2648.913
  -5682231.321 9  -4408902.31947  23081352.831    23081353.3304   23081360.7794
      1551.921        1209.289
  -9743569.518 9  -7579238.56147  22571994.728    22571996.1174   22572002.7864
      3181.208        2478.863
 96 10 30 17  8 59.9980000  0  8 17 28  3 23 21  1  9 31            -0.002022327
   1941094.877 9   1511164.04247  21636860.539    21636861.7234   21636869.2294
     -1210.696        -943.399
   2803242.826 9   2181895.924 9  21421160.950    21421161.976    21421168.110
     -1669.079       -1300.581
  -4549383.876 9  -3535974.96148  20751934.611    20751935.7334   20751941.9924
       865.727         674.592
    140428.061 9    110165.29648  21082872.307    21082873.0084   21082879.4954
      -262.604        -204.626
  -5055206.668 9  -3767975.60948  20116024.606    20116025.3584   20116031.8874
      1613.164        1257.011
 -10365523.618 9  -8035774.31448  20391018.785    20391019.5524   20391026.3174
      3383.791        2636.720
  -5728532.107 9  -4444980.82747  23072541.897    23072542.4654   23072550.1164
      1534.341        1195.590
  -9838759.131 9  -7653412.29747  22553880.839    22553882.1334   22553888.8484
      3164.047        2465.491
 96 10 30 17  9 29.9970000  0  8 17 28  3 23 21  1  9 31            -0.002047054
   1977570.918 9   1539586.88147  21643801.829    21643802.9364   21643810.3924
     -1221.224        -951.603
   2853490.995 9   2221050.304 9  21430722.731    21430723.923    21430730.044
     -1681.060       -1309.917
  -4575038.535 9  -3555965.61548  20747052.966    20747053.8074   20747060.1644
       844.540         658.083
    148386.509 9    116366.66848  21084386.695    21084387.4584   21084393.9744
      -268.037        -208.860
  -5103467.854 9  -3805581.72748  20106840.740    20106841.5204   20106848.0254
      1604.082        1249.934
 -10466795.142 9  -8114687.18548  20371747.177    20371748.2114   20371754.9894
      3367.645        2624.139
  -5774299.684 9  -4480643.87847  23063832.339    23063833.1814   23063840.7524
      1516.882        1181.986
  -9933410.519 9  -7727166.60947  22535869.590    22535870.4974   22535877.4194
      3146.096        2451.503
 96 10 30 17  9 59.9970000  0  8 17 28  3 23 21  1  9 31            -0.002071798
   2014363.235 9   1568256.17347  21650803.427    21650804.3474   21650811.7684
     -1232.029        -960.023
   2904092.850 9   2260480.274 9  21440352.162    21440353.170    21440359.276
     -1692.649       -1318.947
  -4600072.197 9  -3575472.38248  20742289.314    20742290.0874   20742296.5154
       824.083         642.143
    156494.231 9    122684.35648  21085929.558    21085930.3584   21085936.8534
      -272.762        -212.542
  -5151456.371 9  -3842975.38548  20097708.667    20097709.5734   20097716.0424
      1594.884        1242.767
 -10567585.553 9  -8193225.15948  20352567.351    20352568.3984   20352575.1884
      3351.540        2611.590
  -5819565.109 9  -4515915.63947  23055218.376    23055219.5674   23055227.0724
      1500.528        1169.243
 -10027531.760 9  -7800507.83247  22517958.572    22517959.8374   22517966.7584
      3128.318        2437.650
 96 10 30 17 10 29.9970000  0  8 17 28  3 23 21  1  9 31            -0.002096572
   2051469.377 9   1597169.99547  21657864.495    21657865.3504   21657872.8514
     -1241.525        -967.422
   2955018.619 9   2300162.643 9  21450043.292    21450044.084    21450050.178
     -1702.218       -1326.404
  -4624515.917 9  -3594519.44948  20737637.565    20737638.5764   20737645.0904
       805.558         627.707
    164721.299 9    129095.04348  21087495.114    21087495.9924   21087502.4354
      -275.472        -214.654
  -5199182.960 9  -3880164.93748  20088626.799    20088627.4844   20088633.9724
      1587.110        1236.709
 -10667921.968 9  -8271409.36549  20333473.781    20333474.9664   20333481.8214
      3337.691        2600.798
  -5864361.527 9  -4550821.93547  23046694.052    23046694.9694   23046702.5474
      1486.031        1157.946
 -10121141.241 9  -7873450.28947  22500145.575    22500146.6314   22500153.5094
      3112.463        2425.296
 96 10 30 17 10 59.9970000  0  8 17 28  3 23 21  1  9 31            -0.002121375
   2088891.439 9   1626330.01247  21664985.285    21664986.5144   21664993.9384
     -1252.953        -976.327
   3006264.629 9   2340094.560 9  21459794.986    21459795.923    21459802.058
     -1713.781       -1335.414
  -4648362.364 9  -3613101.10748  20733099.741    20733100.6684   20733107.3104
       784.618         611.391
    173068.312 9    135599.19248  21089083.599    21089084.4454   21089090.8784
      -280.591        -218.642
  -5246650.447 9  -3917152.58948  20079593.847    20079594.7184   20079601.1984
      1578.027        1229.631
 -10767803.987 9  -8349239.49348  20314466.464    20314467.9864   20314474.8594
      3321.475        2588.162
  -5908681.820 9  -4585357.22147  23038260.241    23038261.1314   23038268.5894
      1468.737        1144.470
 -10214243.554 9  -7945997.52247  22482429.048    22482429.8674   22482436.7924
      3094.598        2411.375
 96 10 30 17 11 29.9970000  0  8 17 28  3 23 21  1  9 31            -0.002146174
   2126651.902 9   1655753.69847  21672170.700    21672172.0644   21672179.5284
     -1264.310        -985.177
   3057844.065 9   2380286.285 9  21469609.931    21469611.173    21469617.387
     -1724.694       -1343.917
  -4671588.348 9  -3631199.28848  20728680.059    20728680.9514   20728687.5804
       764.074         595.382
    181553.600 9    142211.08548  21090698.287    21090699.2114   21090705.6524
      -284.885        -221.988
  -5293868.387 9  -3953945.79148  20070608.528    20070609.4404   20070615.9774
      1570.038        1223.406
 -10867208.348 9  -8426697.43148  20295550.633    20295551.9464   20295558.7484
      3305.471        2575.692
  -5952478.067 9  -4619484.17747  23029926.182    23029927.1204   23029934.2944
      1451.030        1130.673
 -10306816.071 9  -8018131.95647  22464812.719    22464813.9364   22464820.8074
      3077.060        2397.709
 96 10 30 17 11 59.9970000  0  8 17 28  3 23 21  1  9 31            -0.002170954
   2164765.325 9   1685452.42947  21679423.018    21679424.7034   21679432.2484
     -1277.005        -995.069
   3109756.891 9   2420737.791 9  21479488.722    21479489.857    21479496.151
     -1736.584       -1353.182
  -4694197.502 9  -3648816.82848  20724377.769    20724378.5954   20724385.2264
       742.661         578.697
    190175.750 9    148929.61748  21092339.137    21092339.9744   21092346.4874
      -290.360        -226.255
  -5340847.630 9  -3990552.99548  20061668.857    20061669.5924   20061676.1414
      1561.632        1216.856
 -10966112.250 9  -8503765.40548  20276730.020    20276731.1854   20276737.8804
      3287.685        2561.832
  -5995722.513 9  -4653181.15047  23021697.069    23021698.0014   23021705.0774
      1431.365        1115.349
 -10398859.948 9  -8089854.45847  22447297.599    22447298.5454   22447305.3674
      3058.572        2383.303
 96 10 30 17 12 29.9970000  0  8 17 28  3 23 21  1  9 31            -0.002195700
   2203212.528 9   1715411.24247  21686738.933    21686740.9244   21686748.5024
     -1286.494       -1002.463
   3161986.135 9   2461435.865 9  21489427.686    21489428.744    21489435.126
     -1745.819       -1360.378
  -4716193.907 9  -3665956.90348  20720191.967    20720192.8874   20720199.4484
       723.327         563.631
    198924.179 9    155746.55248  21094004.154    21094004.7934   21094011.3094
      -293.288        -228.536
  -5387633.361 9  -4027009.40648  20052765.957    20052766.5764   20052773.1354
      1556.982        1213.233
 -11064523.456 9  -8580449.45148  20258002.931    20258004.1424   20258010.7974
      3272.441        2549.954
  -6038401.897 9  -4686437.82847  23013575.318    23013576.3504   23013583.3254
      1413.499        1101.428
 -10490382.357 9  -8161170.61647  22429881.770    22429882.4034   22429889.1204
      3042.307        2370.629
 96 10 30 17 12 59.9970000  0  8 17 28  3 23 21  1  9 31            -0.002220393
   2241985.600 9   1745623.96547  21694117.457    21694119.2184   21694126.8274
     -1298.265       -1011.635
   3214537.284 9   2502384.763 9  21499427.719    21499428.853    21499435.349
     -1757.444       -1369.437
  -4737566.107 9  -3682610.57248  20716125.105    20716125.9814   20716132.3574
       701.668         546.754
    207807.688 9    162668.74748  21095694.539    21095695.2964   21095701.7934
      -298.769        -232.807
  -5434246.003 9  -4063330.94748  20043895.720    20043896.4684   20043903.0714
      1550.593        1208.254
 -11162422.775 9  -8656734.62648  20239373.208    20239374.4904   20239381.1344
      3254.439        2535.926
  -6080494.977 9  -4719237.62047  23005565.379    23005566.3774   23005573.2754
      1392.956        1085.420
 -10581365.606 9  -8232066.65747  22412567.968    22412568.8434   22412575.6804
      3023.323        2355.836
 96 10 30 17 13 29.9970000  0  8 17 28  3 23 21  1  9 31            -0.002245037
   2281084.695 9   1776090.73947  21701557.989    21701559.4824   21701567.1524
     -1308.508       -1019.617
   3267401.191 9   2543577.376 9  21509487.557    21509488.468    21509495.100
     -1767.116       -1376.974
  -4758326.092 9  -3698787.19548  20712174.330    20712175.4994   20712181.8424
       682.165         531.557
    216821.131 9    169692.18748  21097409.782    21097410.5064   21097416.9944
      -302.447        -235.673
  -5480689.879 9  -4099520.98248  20035057.759    20035058.4904   20035065.1034
      1545.207        1204.057
 -11259814.966 9  -8732624.62948  20220839.975    20220841.3254   20220848.0484
      3238.035        2523.144
  -6122011.668 9  -4751588.28247  22997665.120    22997665.9614   22997672.8524
      1374.776        1071.254
 -10671812.975 9  -8302545.12047  22395356.926    22395357.1774   22395364.2164
      3006.341        2342.603
 96 10 30 17 13 59.9970000  0  8 17 28  3 23 21  1  9 31            -0.002269666
   2320504.936 9   1806807.77247  21709060.069    21709060.9324   21709068.6584
     -1319.786       -1028.405
   3320580.137 9   2585015.473 9  21519607.244    21519608.055    21519614.803
     -1778.485       -1385.832
  -4778485.103 9  -3714495.52548  20708338.014    20708339.3604   20708345.7354
       661.214         515.232
    225967.361 9    176819.10148  21099150.227    21099150.9494   21099157.4574
      -307.565        -239.661
  -5526942.111 9  -4135561.68048  20026256.368    20026256.9854   20026263.5654
      1537.732        1198.233
 -11356685.816 9  -8808108.39149  20202406.061    20202407.3664   20202414.1934
      3219.857        2508.979
  -6162968.946 9  -4783503.03147  22989870.985    22989871.9794   22989878.7544
      1355.466        1056.207
 -10761739.362 9  -8372617.61947  22378244.458    22378244.7684   22378251.8454
      2988.302        2328.547
 96 10 30 17 14 29.9970000  0  8 17 28  3 23 21  1  9 31            -0.002294301
   2360226.888 9   1837759.89547  21716618.917    21716619.8764   21716627.5804
     -1328.807       -1035.434
   3374062.408 9   2626689.929 9  21529784.125    21529785.360    21529792.201
     -1787.607       -1392.941
  -4798042.471 9  -3729735.05248  20704616.737    20704617.7294   20704624.0814
       642.141         500.370
    235227.658 9    184034.89948  21100912.383    21100913.1424   21100919.6024
      -310.466        -241.922
  -5572990.166 9  -4171443.28648  20017493.624    20017494.3534   20017500.8924
      1531.321        1193.237
 -11453064.812 9  -8883208.89548  20184065.954    20184067.0144   20184073.9144
      3204.733        2497.195
  -6203391.070 9  -4815000.76847  22982179.352    22982179.8854   22982186.7204
      1338.845        1043.256
 -10851164.277 9  -8442299.37147  22361227.178    22361227.8034   22361234.7644
      2972.686        2316.379
 96 10 30 17 14 59.9970000  0  8 17 28  3 23 21  1  9 31            -0.002318957
   2400258.152 9   1868953.05047  21724236.652    21724237.7334   21724245.2464
     -1339.469       -1043.742
   3427862.917 9   2668612.359 9  21540022.141    21540023.234    21540030.145
     -1798.558       -1401.474
  -4816987.888 9  -3744497.73448  20701011.343    20701012.5294   20701018.8794
       621.361         484.177
    244626.432 9    191358.60148  21102701.036    21102701.6574   21102708.1384
      -315.624        -245.941
  -5618777.483 9  -4207121.71948  20008780.571    20008781.3534   20008787.8764
      1521.604        1185.665
 -11548944.182 9  -8957920.08049  20165820.733    20165821.7904   20165828.7184
      3187.847        2484.037
  -6243271.802 9  -4846076.64947  22974590.421    22974590.9414   22974597.7864
      1320.400        1028.883
 -10940085.638 9  -8511588.73747  22344306.168    22344306.6494   22344313.5624
      2955.630        2303.088
 96 10 30 17 15 29.9970000  0  8 17 28  3 23 21  1  9 31            -0.002343656
   2440583.836 9   1900375.62947  21731910.357    21731911.5884   21731919.0074
     -1348.773       -1050.992
   3481966.633 9   2710771.050 9  21550317.347    21550318.840    21550325.799
     -1808.260       -1409.034
  -4835334.748 9  -3758793.99948  20697519.853    20697521.2244   20697527.5834
       601.836         468.963
    254154.758 9    198783.25648  21104514.130    21104514.8824   21104521.3034
      -319.465        -248.934
  -5664286.037 9  -4242582.93348  20000120.687    20000121.3504   20000127.9524
      1512.417        1178.507
 -11644347.654 9  -9032260.44249  20147666.061    20147667.1644   20147674.0334
      3172.405        2472.004
  -6282630.452 9  -4876745.72547  22967100.486    22967101.2824   22967108.0444
      1303.520        1015.730
 -11028511.032 9  -8580491.64047  22327479.245    22327479.8294   22327486.7114
      2939.321        2290.380
 96 10 30 17 15 59.9970000  0  8 17 28  3 23 21  1  9 31            -0.002368379
   2481203.674 9   1932027.41147  21739640.425    21739641.3684   21739648.8544
     -1357.355       -1057.679
   3536384.072 9   2753174.204 9  21560672.625    21560674.179    21560681.162
     -1817.580       -1416.296
  -4853067.114 9  -3772611.45148  20694145.398    20694146.8724   20694153.2654
       582.206         453.667
    263816.704 9    206312.03148  21106352.823    21106353.4744   21106359.8804
      -322.713        -251.465
  -5709503.329 9  -4277817.19248  19991515.984    19991516.7144   19991523.4374
      1504.204        1172.107
 -11739269.664 9  -9106225.63649  20129603.239    20129604.1354   20129611.0004
      3157.781        2460.609
  -6321450.500 9  -4906995.09447  22959713.173    22959714.0314   22959720.8534
      1286.316        1002.324
 -11116415.254 9  -8648988.42147  22310751.277    22310752.2644   22310759.0404
      2922.715        2277.440
 96 10 30 17 16 29.9970000  0  8 17 28  3 23 21  1  9 31            -0.002393106
   2522105.121 9   1963898.64047  21747424.081    21747424.7164   21747432.2284
     -1368.445       -1066.321
   3591094.029 9   2795805.294 9  21571084.178    21571085.188    21571092.206
     -1828.781       -1425.024
  -4870197.100 9  -3785959.50948  20690885.766    20690887.1724   20690893.6064
       560.933         437.091
    273601.290 9    213936.37348  21108214.688    21108215.4394   21108221.7374
      -328.653        -256.093
  -5754467.338 9  -4312854.08748  19982959.532    19982960.3104   19982967.0894
      1494.662        1164.672
 -11833741.053 9  -9179839.68849  20111625.789    20111626.8024   20111633.6714
      3141.002        2447.534
  -6359734.360 9  -4936826.63947  22952427.470    22952428.7334   22952435.6784
      1266.853         987.158
 -11203794.372 9  -8717076.04247  22294123.113    22294124.5784   22294131.3424
      2903.415        2262.401
 96 10 30 17 16 59.9970000  0  8 17 28  3 23 21  1  9 31            -0.002417819
   2563301.365 9   1995999.56247  21755263.398    21755264.1994   21755271.6524
     -1378.409       -1074.085
   3646095.670 9   2838663.665 9  21581550.672    21581551.677    21581558.768
     -1838.438       -1432.549
  -4886740.134 9  -3798850.20548  20687737.695    20687739.1704   20687745.6584
       541.441         421.902
    283527.517 9    221671.07948  21110103.706    21110104.3384   21110110.5724
      -333.377        -259.774
  -5799207.318 9  -4347716.41648  19974445.707    19974446.5624   19974453.3454
      1487.696        1159.244
 -11927736.544 9  -9253082.91949  20093739.098    20093740.1114   20093746.9584
      3124.872        2434.965
  -6397469.814 9  -4966230.90347  22945246.856    22945247.9614   22945254.5974
      1248.373         972.758
 -11290629.864 9  -8784740.07047  22277599.224    22277600.3234   22277606.9824
      2885.104        2248.133
 96 10 30 17 17 29.9970000  0  8 17 28  3 23 21  1  9 31            -0.002442511
   2604786.629 9   2028325.68747  21763158.180    21763158.6284   21763166.1024
     -1387.661       -1081.294
   3701376.538 9   2881739.613 9  21592070.539    21592071.310    21592078.488
     -1847.279       -1439.438
  -4902705.962 9  -3811291.13148  20684699.399    20684700.9744   20684707.5294
       522.643         407.254
    293573.889 9    229499.41048  21112015.444    21112016.0844   21112022.2314
      -336.649        -262.324
  -5843759.998 9  -4382432.79348  19965967.525    19965968.4324   19965975.2654
      1482.128        1154.905
 -12021254.557 9  -9325954.08949  20075943.324    20075944.2874   20075951.1084
      3109.304        2422.834
  -6434660.406 9  -4995210.56447  22938169.954    22938170.9224   22938177.5964
      1230.649         958.947
 -11376923.526 9  -8851981.86647  22261178.123    22261179.2044   22261185.7424
      2867.558        2234.461
 96 10 30 17 17 59.9970000  0  8 17 28  3 23 21  1  9 31            -0.002467176
   2646575.789 9   2060888.62747  21771110.725    21771110.8344   21771118.3444
     -1398.762       -1089.944
   3756944.396 9   2925039.189 9  21602644.815    21602645.593    21602652.743
     -1857.623       -1447.498
  -4918091.178 9  -3823279.62648  20681771.526    20681773.2854   20681779.8544
       502.650         391.675
    303740.986 9    237421.81248  21113950.244    21113950.8464   21113956.9834
      -341.599        -266.181
  -5888130.306 9  -4417007.05848  19957524.128    19957524.9874   19957531.8514
      1475.412        1149.672
 -12114277.801 9  -9398439.71649  20058241.692    20058242.5914   20058249.3804
      3091.824        2409.214
  -6471294.332 9  -5023756.45847  22931198.818    22931199.5974   22931206.5424
      1211.251         943.832
 -11462675.659 9  -8918801.71147  22244860.429    22244861.0714   22244867.6864
      2848.817        2219.857
 96 10 30 17 18 29.9970000  0  8 17 28  3 23 21  1  9 31            -0.002491825
   2688679.283 9   2093696.48147  21779122.615    21779122.9354   21779130.3774
     -1408.723       -1097.706
   3812795.223 9   2968559.263 9  21613272.877    21613273.730    21613280.824
     -1866.321       -1454.276
  -4932906.147 9  -3834823.78248  20678952.589    20678954.0524   20678960.7394
       484.394         377.450
    314037.146 9    245444.77448  21115909.683    21115910.1994   21115916.2934
      -345.259        -269.033
  -5932313.808 9  -4451435.76548  19949116.250    19949117.0724   19949123.9864
      1469.404        1144.990
 -12206799.710 9  -9470534.70349  20040635.393    20040636.2864   20040643.0134
      3075.704        2396.652
  -6507380.821 9  -5051875.80447  22924331.460    22924332.5124   22924339.3644
      1194.034         930.416
 -11547888.229 9  -8985201.12647  22228644.941    22228645.7164   22228652.2804
      2831.435        2206.313
 96 10 30 17 18 59.9970000  0  8 17 28  3 23 21  1  9 31            -0.002516467
   2731098.423 9   2126750.31447  21787194.846    21787195.0534   21787202.4104
     -1418.720       -1105.496
   3868925.716 9   3012297.262 9  21623954.077    21623955.103    21623962.103
     -1875.279       -1461.256
  -4947145.922 9  -3845919.73448  20676243.060    20676244.3344   20676251.1064
       465.198         362.492
    324450.871 9    253559.34948  21117891.291    21117891.8874   21117897.9874
      -348.489        -271.550
  -5976286.059 9  -4485699.86148  19940748.623    19940749.4334   19940756.2934
      1462.213        1139.387
 -12298822.360 9  -9542240.64649  20023124.087    20023124.9494   20023131.6534
      3059.681        2384.167
  -6542934.298 9  -5079579.79547  22917565.892    22917566.9954   22917573.7714
      1176.583         916.818
 -11632560.329 9  -9051179.36047  22212532.744    22212533.2164   22212539.8154
      2813.746        2192.529
 96 10 30 17 19 29.9970000  0  8 17 28  3 23 21  1  9 31            -0.002541101
   2773838.041 9   2160053.86547  21795327.815    21795328.0924   21795335.4724
     -1430.208       -1114.448
   3925341.022 9   3056257.177 9  21634689.353    21634690.633    21634697.593
     -1885.147       -1468.946
  -4960787.823 9  -3856549.80548  20673646.997    20673648.3804   20673655.1164
       444.819         346.612
    334965.652 9    261752.66948  21119892.081    21119892.7654   21119898.9324
      -352.076        -274.345
  -6020015.276 9  -4519774.58448  19932427.231    19932428.0704   19932434.8754
      1453.572        1132.654
 -12390356.492 9  -9613565.93349  20005705.439    20005706.5544   20005713.2714
      3043.191        2371.318
  -6577951.205 9  -5106865.69147  22910902.590    22910903.5724   22910910.5044
      1158.318         902.585
 -11716681.116 9  -9116728.03447  22196525.017    22196525.5064   22196532.2934
      2794.625        2177.630
 96 10 30 17 19 59.9970000  0  8 17 28  3 23 21  1  9 31            -0.002565721
   2816912.639 9   2193618.44547  21803524.402    21803524.9864   21803532.2364
     -1441.736       -1123.431
   3982030.178 9   3100430.484 9  21645477.085    21645478.305    21645485.177
     -1894.510       -1476.242
  -4973840.225 9  -3866720.52848  20671163.219    20671164.5394   20671171.2914
       424.775         330.994
    345580.358 9    270023.84548  21121911.911    21121912.6534   21121918.8734
      -355.976        -277.384
  -6063505.434 9  -4553663.02248  19924151.398    19924152.2124   19924158.9284
      1445.340        1126.239
 -12481413.043 9  -9684519.08049  19988378.180    19988379.0584   19988385.7914
      3026.800        2358.545
  -6612435.082 9  -5133736.24547  22904340.517    22904341.4494   22904348.4004
      1140.099         888.389
 -11800241.432 9  -9181839.95947  22180623.781    22180624.4704   22180631.3854
      2775.556        2162.771
 96 10 30 17 20 29.9970000  0  8 17 28  3 23 21  1  9 31            -0.002590318
   2860326.618 9   2227447.48547  21811785.781    21811786.4224   21811793.6074
     -1452.372       -1131.718
   4038995.885 9   3144819.301 9  21656317.160    21656318.563    21656325.342
     -1903.110       -1482.943
  -4986280.620 9  -3876414.36348  20668796.100    20668797.2394   20668803.9194
       404.762         315.399
    356307.827 9    278382.89248  21123953.349    21123954.0114   21123960.3044
      -359.083        -279.805
  -6106746.347 9  -4587357.24148  19915922.853    19915923.7354   19915930.4314
      1437.598        1120.206
 -12571977.767 9  -9755088.98949  19971144.376    19971145.1974   19971151.8724
      3010.927        2346.177
  -6646374.679 9  -5160182.69647  22897881.806    22897882.9034   22897889.9334
      1122.597         874.751
 -11883223.973 9  -9246501.67947  22164832.128    22164833.3544   22164840.2834
      2756.757        2148.122
 96 10 30 17 20 59.9970000  0  8 17 28  3 23 21  1  9 31            -0.002614884
   2904073.462 9   2261535.90347  21820110.404    21820111.1994   21820118.3624
     -1463.305       -1140.238
   4096235.979 9   3189421.921 9  21667209.380    21667211.033    21667217.701
     -1912.253       -1490.067
  -4998103.361 9  -3885626.90548  20666546.289    20666547.4614   20666554.0174
       384.219         299.391
    367143.720 9    286826.41848  21126015.204    21126016.0004   21126022.3744
      -362.707        -282.629
  -6149745.837 9  -4620863.33848  19907740.102    19907741.1614   19907747.8884
      1429.817        1114.143
 -12662044.583 9  -9825270.91449  19954005.385    19954006.0864   19954012.6654
      2994.115        2333.077
  -6679758.047 9  -5186195.71747  22891529.067    22891530.2404   22891537.3274
      1103.593         859.942
 -11965630.148 9  -9310714.27747  22149151.225    22149152.0464   22149158.7734
      2737.609        2133.202
 96 10 30 17 21 29.9970000  0  8 17 28  3 23 21  1  9 31            -0.002639425
   2948136.797 9   2295870.92247  21828494.869    21828496.1464   21828503.3654
     -1474.156       -1148.693
   4153736.367 9   3234227.370 9  21678151.862    21678153.043    21678159.589
     -1921.132       -1496.986
  -5009331.995 9  -3894376.50448  20664409.435    20664410.7114   20664417.2254
       364.364         283.920
    378081.910 9    295349.65748  21128096.617    21128097.4714   21128103.9064
      -366.697        -285.738
  -6192536.816 9  -4654206.96448  19899597.316    19899598.3084   19899605.0044
      1423.007        1108.837
 -12751619.137 9  -9895069.26049  19936959.809    19936960.5804   19936967.1194
      2977.428        2320.074
  -6712579.976 9  -5211771.25847  22885282.933    22885284.5004   22885291.5554
      1084.508         845.071
 -12047473.214 9  -9374488.09247  22133576.816    22133577.8044   22133584.4554
      2718.515        2118.323
 96 10 30 17 21 59.9970000  0  8 17 28  3 23 21  1  9 31            -0.002663942
   2992497.249 9   2330437.47847  21836936.339    21836937.7344   21836944.9824
     -1483.516       -1155.986
   4211490.155 9   3279230.271 9  21689142.248    21689143.219    21689149.839
     -1929.580       -1503.569
  -5019979.531 9  -3902673.30148  20662383.685    20662384.5624   20662391.0924
       345.051         268.871
    389141.914 9    303967.82248  21130201.390    21130202.1344   21130208.5374
      -371.050        -289.130
  -6235136.605 9  -4687401.60648  19891491.008    19891491.8904   19891498.5324
      1416.592        1103.838
 -12840697.691 9  -9964481.10649  19920008.562    19920009.4744   19920015.9874
      2960.658        2307.006
  -6744843.914 9  -5236911.99747  22879143.441    22879144.9274   22879151.9974
      1066.076         830.709
 -12128765.005 9  -9437832.34947  22118107.915    22118108.5694   22118115.0934
      2700.539        2104.316
 96 10 30 17 22 29.9970000  0  8 17 28  3 23 21  1  9 31            -0.002688458
   3037129.337 9   2365215.68147  21845429.602    21845431.0134   21845438.3174
     -1492.117       -1162.688
   4269496.801 9   3324430.195 9  21700180.758    21700181.482    21700188.235
     -1937.600       -1509.818
  -5030051.289 9  -3910521.44248  20660466.607    20660467.9134   20660474.5764
       326.562         254.464
    400326.798 9    312683.28448  21132329.963    21132330.5854   21132337.0304
      -374.715        -291.986
  -6277547.082 9  -4720448.74048  19883420.751    19883421.5274   19883428.0914
      1410.678        1099.230
 -12929274.707 9 -10033502.14749  19903153.042    19903153.8374   19903160.3064
      2944.462        2294.386
  -6776560.696 9  -5261626.39547  22873108.069    22873109.5264   22873116.6704
      1048.335         816.884
 -12209520.184 9  -9500758.44447  22102740.866    22102741.3874   22102747.9714
      2683.089        2090.719
 96 10 30 17 22 59.9970000  0  8 17 28  3 23 21  1  9 31            -0.002712971
   3082041.436 9   2400212.07647  21853976.259    21853977.4754   21853984.9704
     -1501.572       -1170.056
   4327759.484 9   3369829.630 9  21711267.904    21711268.489    21711275.361
     -1946.204       -1516.523
  -5039561.061 9  -3917931.66648  20658657.101    20658658.2854   20658664.9804
       307.756         239.810
    411641.805 9    321500.15548  21134483.332    21134483.8624   21134490.3104
      -379.154        -295.445
  -6319765.619 9  -4753346.30048  19875386.925    19875387.6724   19875394.2074
      1404.243        1094.215
 -13017353.765 9 -10102135.16649  19886392.357    19886392.9684   19886399.4084
      2927.845        2281.438
  -6807727.020 9  -5285911.85547  22867177.025    22867178.6864   22867185.9614
      1029.877         802.502
 -12289746.627 9  -9563272.55347  22087474.297    22087474.7934   22087481.4874
      2665.579        2077.075
 96 10 30 17 23 29.9970000  0  8 17 28  3 23 21  1  9 31            -0.002737487
   3127228.894 9   2435423.03347  21862574.813    21862576.4304   21862584.0384
     -1511.400       -1177.714
   4386270.169 9   3415422.318 9  21722401.778    21722402.738    21722409.624
     -1954.968       -1523.352
  -5048513.637 9  -3924907.70948  20656953.788    20656954.7774   20656961.3894
       288.542         224.838
    423084.628 9    330416.62148  21136660.581    21136661.4154   21136667.8944
      -384.212        -299.386
  -6361795.865 9  -4786097.14548  19867388.948    19867389.5664   19867396.1544
      1397.102        1088.651
 -13104942.975 9 -10170386.47849  19869724.371    19869725.2754   19869731.7564
      2910.888        2268.224
  -6838357.004 9  -5309779.39647  22861348.435    22861349.9384   22861357.1644
      1011.548         788.219
 -12369453.121 9  -9625381.49347  22072306.580    22072307.1154   22072313.8744
      2647.702        2063.144
 96 10 30 17 23 59.9970000  0  8 17 28  3 23 21  1  9 31            -0.002762021
   3172693.432 9   2470849.89647  21871226.935    21871228.0904   21871235.8524
     -1520.740       -1184.992
   4445026.363 9   3461206.313 9  21733582.587    21733583.759    21733590.647
     -1963.090       -1529.681
  -5056907.615 9  -3931448.48548  20655356.420    20655357.4934   20655364.0454
       270.052         210.430
    434658.976 9    339435.56448  21138863.226    21138864.0094   21138870.5514
      -388.206        -302.498
  -6403613.175 9  -4818682.06648  19859431.322    19859431.9654   19859438.5884
      1389.723        1082.901
 -13192033.887 9 -10238249.52249  19853151.712    19853152.4734   19853158.9834
      2894.166        2255.194
  -6868457.679 9  -5333234.48447  22855620.658    22855622.0884   22855629.2204
       994.137         774.652
 -12448644.242 9  -9687088.86247  22057236.802    22057237.5234   22057244.2364
      2630.564        2049.790
 96 10 30 17 24 29.9970000  0  8 17 28  3 23 21  1  9 31            -0.002786564
   3218466.548 9   2506517.21747  21879937.887    21879938.4824   21879946.3684
     -1529.702       -1191.976
   4504038.142 9   3507189.464 9  21744812.409    21744813.364    21744820.302
     -1969.893       -1534.982
  -5064727.457 9  -3937541.88548  20653868.303    20653869.4384   20653875.9374
       252.396         196.672
    446357.765 9    348551.48748  21141089.394    21141090.2844   21141096.8344
      -390.672        -304.420
  -6445192.821 9  -4851081.79548  19851518.930    19851519.6154   19851526.1754
      1383.340        1077.927
 -13278603.996 9 -10305706.73149  19836678.119    19836678.7214   19836685.2614
      2878.446        2242.945
  -6898015.665 9  -5356266.66947  22849996.082    22849997.4054   22850004.5114
       977.468         761.663
 -12527301.452 9  -9748380.18347  22042269.277    22042269.5594   22042276.2504
      2614.276        2037.098
 96 10 30 17 24 59.9970000  0  8 17 28  3 23 21  1  9 31            -0.002811113
   3264558.737 9   2542433.15747  21888709.332    21888709.5754   21888717.5284
     -1541.380       -1201.075
   4563303.601 9   3553370.279 9  21756090.520    21756091.278    21756098.174
     -1979.505       -1542.471
  -5071963.277 9  -3943180.19748  20652491.341    20652492.5274   20652499.0324
       231.468         180.365
    458186.070 9    357768.33348  21143340.437    21143341.1454   21143347.6854
      -396.214        -308.738
  -6486522.248 9  -4883286.55348  19843654.325    19843654.9364   19843661.4144
      1373.444        1070.216
 -13364652.854 9 -10372757.77549  19820303.509    19820304.1344   19820310.7144
      2859.727        2228.359
  -6927018.126 9  -5378865.99247  22844477.211    22844478.4704   22844485.5704
       957.645         746.217
 -12605414.769 9  -9809247.70247  22027404.735    22027405.0974   22027411.8134
      2594.683        2021.831
 96 10 30 17 25 29.9970000  0  8 17 28  3 23 21  1  9 31            -0.002835674
   3310945.062 9   2578578.29447  21897536.336    21897536.6224   21897544.6714
     -1550.542       -1208.215
   4622805.588 9   3599735.399 9  21767413.363    21767414.187    21767421.080
     -1986.737       -1548.107
  -5078616.858 9  -3948364.82048  20651225.144    20651226.3724   20651232.9354
       212.686         165.729
    470130.982 9    367076.03548  21145613.469    21145614.1784   21145620.7674
      -399.623        -311.394
  -6527601.048 9  -4915296.01748  19835837.391    19835837.9364   19835844.3014
      1365.705        1064.186
 -13450188.423 9 -10439408.85649  19804026.687    19804027.2434   19804033.7754
      2843.197        2215.478
  -6955476.367 9  -5401041.26347  22839062.360    22839063.1194   22839070.2344
       940.005         732.471
 -12682977.776 9  -9869686.43047  22012644.675    22012645.2654   22012651.9854
      2576.659        2007.786
 96 10 30 17 25 59.9970000  0  8 17 28  3 23 21  1  9 31            -0.002860235
   3357631.214 9   2614957.07047  21906420.022    21906420.7504   21906428.6854
     -1561.530       -1216.777
   4682546.775 9   3646286.913 9  21778781.534    21778782.642    21778789.518
     -1995.669       -1555.067
  -5084684.610 9  -3953092.95648  20650070.412    20650071.7064   20650078.3564
       192.184         149.754
    482193.247 9    376475.19348  21147908.926    21147909.5414   21147916.0634
      -404.195        -314.957
  -6568427.855 9  -4947109.12048  19828068.276    19828068.8854   19828075.2034
      1356.721        1057.185
 -13535203.315 9 -10505654.20849  19787848.586    19787849.4374   19787855.9444
      2824.887        2201.211
  -6983384.178 9  -5422787.57947  22833751.574    22833752.4124   22833759.6404
       920.882         717.570
 -12759972.861 9  -9929682.59447  21997993.073    21997993.6804   21998000.2974
      2556.581        1992.141
 96 10 30 17 26 29.9970000  0  8 17 28  3 23 21  1  9 31            -0.002884791
   3404609.188 9   2651563.24947  21915359.697    21915360.4404   21915368.3134
     -1570.714       -1223.933
   4742517.828 9   3693017.533 9  21790194.133    21790194.803    21790201.717
     -2002.994       -1560.774
  -5090171.296 9  -3957368.31448  20649026.394    20649027.6634   20649034.3394
       173.175         134.942
    494363.154 9    385958.22348  21150224.434    21150225.3924   21150231.8874
      -407.757        -317.733
  -6609034.076 9  -4978750.33748  19820341.157    19820341.7854   19820348.1404
      1349.768        1051.767
 -13619709.097 9 -10571502.86249  19771767.873    19771768.5454   19771774.9654
      2808.382        2188.350
  -7010749.977 9  -5444111.56947  22828543.448    22828544.8034   22828551.9474
       902.904         703.562
 -12836402.287 9  -9989238.00247  21983449.053    21983449.7204   21983456.2924
      2538.055        1977.705
 96 10 30 17 26 59.9970000  0  8 17 28  3 23 21  1  9 31            -0.002909332
   3451871.470 9   2688390.97347  21924353.408    21924354.2334   21924362.0144
     -1579.579       -1230.841
   4802723.337 9   3739930.850 9  21801651.228    21801651.607    21801658.569
     -2010.163       -1566.361
  -5095084.046 9  -3961196.45048  20648091.496    20648092.8654   20648099.4124
       154.891         120.694
    506652.606 9    395534.39748  21152563.028    21152563.9904   21152570.4854
      -410.869        -320.158
  -6649414.277 9  -5010215.43548  19812657.038    19812657.6854   19812664.1074
      1342.808        1046.344
 -13703706.325 9 -10636955.24149  19755783.796    19755784.4324   19755790.7844
      2791.931        2175.531
  -7037557.429 9  -5465000.51347  22823442.015    22823443.3084   22823450.3814
       884.811         689.463
 -12912257.693 9 -10048346.10247  21969014.314    21969014.9154   21969021.5074
      2519.481        1963.232
 96 10 30 17 27 29.9970000  0  8 17 28  3 23 21  1  9 31            -0.002933871
   3499398.251 9   2725424.79647  21933397.830    21933398.3904   21933405.9454
     -1588.497       -1237.790
   4863139.949 9   3787008.670 9  21813148.203    21813148.555    21813155.566
     -2017.140       -1571.797
  -5099458.450 9  -3964605.08648  20647259.270    20647260.5244   20647266.9714
       137.198         106.907
    519028.643 9    405178.05148  21154918.275    21154919.1614   21154925.5814
      -413.696        -322.361
  -6689597.241 9  -5041526.83248  19805010.652    19805011.1724   19805017.6474
      1336.626        1041.527
 -13787213.229 9 -10702025.54449  19739892.923    19739893.6064   19739899.9664
      2775.614        2162.816
  -7063825.112 9  -5485468.83747  22818443.755    22818444.8034   22818452.0424
       866.796         675.425
 -12987554.630 9 -10107019.04747  21954685.822    21954686.3784   21954692.9704
      2500.729        1948.620
 96 10 30 17 27 59.9970000  0  8 17 28  3 23 21  1  9 31            -0.002958406
   3547193.409 9   2762667.73747  21942492.806    21942493.5114   21942501.1274
     -1597.929       -1245.139
   4923762.526 9   3834246.973 9  21824684.287    21824684.663    21824691.774
     -2024.493       -1577.527
  -5103312.064 9  -3967607.91348  20646526.143    20646527.2434   20646533.6674
       119.497          93.115
    531484.047 9    414883.54648  21157288.534    21157289.3484   21157295.8164
      -416.861        -324.827
  -6729602.400 9  -5072699.68748  19797397.777    19797398.4834   19797405.0094
      1330.194        1036.515
 -13870228.352 9 -10766712.63949  19724095.801    19724096.3474   19724102.7354
      2758.708        2149.642
  -7089548.865 9  -5505513.32147  22813548.638    22813549.6974   22813557.0354
       847.892         660.695
 -13062294.207 9 -10165257.68247  21940463.639    21940463.9154   21940470.5414
      2481.646        1933.750
 96 10 30 17 28 29.9970000  0  8 17 28  3 23 21  1  9 31            -0.002982919
   3595274.365 9   2800133.37647  21951642.366    21951642.9194   21951650.4974
     -1607.211       -1252.372
   4984609.230 9   3881659.937 9  21836262.733    21836263.447    21836270.472
     -2031.828       -1583.243
  -5106631.611 9  -3970194.59148  20645894.420    20645895.5474   20645901.9554
       101.927          79.424
    544047.601 9    424673.31348  21159679.474    21159680.1154   21159686.6324
      -420.531        -327.686
  -6769404.035 9  -5103713.95148  19789823.746    19789824.4794   19789831.0484
      1323.207        1031.070
 -13952735.663 9 -10831004.03149  19708395.027    19708395.7154   19708402.1334
      2741.925        2136.565
  -7114692.566 9  -5525105.82147  22808764.362    22808765.1224   22808772.4594
       828.491         645.577
 -13136453.730 9 -10223044.34347  21926351.437    21926351.7744   21926358.4774
      2462.313        1918.685
 96 10 30 17 28 59.9970000  0  8 17 28  3 23 21  1  9 31            -0.003007402
   3643650.267 9   2837828.83747  21960848.658    21960848.6334   21960856.1854
     -1617.493       -1260.384
   5045690.304 9   3929255.519 9  21847886.408    21847886.874    21847893.798
     -2039.792       -1589.448
  -5109404.345 9  -3972355.17948  20645367.089    20645367.9094   20645374.3374
        83.190          64.823
    556736.959 9    434561.10348  21162094.088    21162094.8254   21162101.3644
      -425.051        -331.209
  -6808974.895 9  -5134548.39548  19782293.615    19782294.3874   19782300.9494
      1315.331        1024.933
 -14034725.421 9 -10894892.14549  19692792.946    19692793.6314   19692800.0354
      2724.430        2122.932
  -7139241.270 9  -5544234.69247  22804092.908    22804093.6184   22804101.0494
       808.695         630.152
 -13210010.410 9 -10280361.23847  21912354.074    21912354.4214   21912361.0214
      2441.861        1902.749
 96 10 30 17 29 29.9960000  0  8 17 28  3 23 21  1  9 31            -0.003031857
   3692310.529 9   2875745.88947  21970108.248    21970108.3824   21970115.8854
     -1626.668       -1267.534
   5106983.935 9   3977016.723 9  21859550.309    21859550.812    21859557.589
     -2046.579       -1594.737
  -5111623.421 9  -3974084.35148  20644944.574    20644945.6454   20644952.1334
        64.662          50.386
    569545.961 9    444542.12248  21164531.725    21164532.3104   21164538.8554
      -429.025        -334.305
  -6848338.616 9  -5165221.43448  19774802.866    19774803.6794   19774810.2484
      1308.881        1019.907
 -14116213.927 9 -10958389.67049  19677286.024    19677286.8904   19677293.2824
      2708.199        2110.285
  -7163228.371 9  -5562925.96147  22799528.005    22799529.0584   22799536.4894
       790.527         615.995
 -13282973.385 9 -10337215.50047  21898469.486    21898470.0284   21898476.5364
      2422.430        1887.608
 96 10 30 17 29 59.9960000  0  8 17 28  3 23 21  1  9 31            -0.003056287
   3741256.977 9   2913885.93847  21979422.321    21979422.6594   21979430.0794
     -1636.996       -1275.581
   5168489.890 9   4024943.379 9  21871254.666    21871255.152    21871261.790
     -2054.407       -1600.837
  -5113273.375 9  -3975370.04448  20644630.358    20644631.7064   20644638.1894
        44.599          34.752
    582487.625 9    454626.51748  21166994.276    21166995.0164   21167001.5924
      -434.326        -338.436
  -6887498.024 9  -5195735.26148  19767351.015    19767351.8754   19767358.4334
      1301.044        1013.801
 -14197203.429 9 -11021498.36049  19661874.151    19661875.0244   19661881.4714
      2690.512        2096.503
  -7186663.031 9  -5581186.74347  22795068.600    22795069.5274   22795077.0734
       771.309         601.020
 -13355353.541 9 -10393615.64647  21884696.270    21884696.6204   21884702.9294
      2402.320        1871.938
 96 10 30 17 30 29.9960000  0  8 17 28  3 23 21  1  9 31            -0.003080696
   3790504.982 9   2952260.95647  21988793.235    21988794.3764   21988801.7594
     -1647.134       -1283.481
   5230213.423 9   4073039.559 9  21883000.088    21883000.840    21883007.379
     -2061.423       -1606.304
  -5114328.299 9  -3976192.07848  20644429.625    20644431.0004   20644437.4854
        24.816          19.337
    595569.943 9    464820.50348  21169484.034    21169484.5044   21169491.0854
      -438.618        -341.780
  -6926434.634 9  -5226075.48248  19759941.792    19759942.5234   19759949.0514
      1293.777        1008.138
 -14277673.144 9 -11084202.02949  19646560.970    19646562.1364   19646568.6084
      2673.056        2082.901
  -7209548.981 9  -5599019.96447  22790713.758    22790714.5744   22790722.0614
       753.502         587.144
 -13427149.535 9 -10449560.56947  21871033.490    21871034.2304   21871040.5714
      2383.167        1857.013
 96 10 30 17 30 59.9960000  0  8 17 28  3 23 21  1  9 31            -0.003105088
   3840074.624 9   2990886.59847  21998226.175    21998227.1804   21998234.6724
     -1657.631       -1291.660
   5292159.228 9   4121308.948 9  21894788.456    21894788.824    21894795.275
     -2068.282       -1611.648
  -5114768.952 9  -3976535.46148  20644345.730    20644347.1244   20644353.6974
         4.575           3.565
    608788.997 9    475121.04548  21171999.422    21172000.0134   21172006.5724
      -442.599        -344.882
  -6965138.905 9  -5256234.66148  19752576.663    19752577.4084   19752583.8884
      1286.469        1002.443
 -14357597.436 9 -11146480.69149  19631351.926    19631353.0424   19631359.5264
      2655.167        2068.961
  -7231887.751 9  -5616426.82947  22786462.628    22786463.6774   22786470.8734
       735.742         573.305
 -13498363.118 9 -10505051.67347  21857481.688    21857482.6404   21857489.2324
      2364.391        1842.383
 96 10 30 17 31 29.9960000  0  8 17 28  3 23 21  1  9 31            -0.003129490
   3889951.485 9   3029751.64147  22007717.640    22007718.3924   22007725.9334
     -1667.653       -1299.470
   5354299.149 9   4169729.603 9  21906612.496    21906613.700    21906620.142
     -2074.585       -1616.560
  -5114619.242 9  -3976418.83348  20644374.301    20644375.5364   20644382.1824
       -14.609         -11.384
    622109.537 9    485500.66548  21174534.117    21174534.8314   21174541.3544
      -445.645        -347.256
  -7003631.067 9  -5286228.57148  19745251.787    19745252.6004   19745259.0614
      1279.438         996.965
 -14436984.114 9 -11208340.42949  19616245.333    19616246.2214   19616252.7664
      2637.087        2054.873
  -7253701.959 9  -5633424.91247  22782311.403    22782312.5794   22782319.7484
       718.215         559.648
 -13569031.615 9 -10560118.03147  21844033.769    21844034.9144   21844041.5934
      2346.484        1828.429
 96 10 30 17 31 59.9960000  0  8 17 28  3 23 21  1  9 31            -0.003153907
   3940136.218 9   3068856.55747  22017267.603    22017268.2684   22017275.8594
     -1677.256       -1306.953
   5416639.081 9   4218306.099 9  21918475.404    21918476.612    21918483.102
     -2080.682       -1621.311
  -5113892.298 9  -3975852.40148  20644512.751    20644513.8744   20644520.4514
       -33.008         -25.721
    635524.216 9    495953.63548  21177086.888    21177087.5454   21177094.1014
      -447.946        -349.049
  -7041893.646 9  -5316043.57848  19737970.601    19737971.4534   19737977.8794
      1272.173         991.304
 -14515811.204 9 -11269764.12349  19601245.090    19601245.8874   19601252.4714
      2618.953        2040.743
  -7274967.533 9  -5649995.53046  22778264.534    22778265.8014   22778272.9224
       700.270         545.665
 -13639152.375 9 -10614757.60947  21830690.634    21830691.3574   21830698.0544
      2328.915        1814.739
 96 10 30 17 32 29.9960000  0  8 17 28  3 23 21  1  9 31            -0.003178355
   3990611.601 9   3108187.98447  22026873.291    22026873.3924   22026880.9514
     -1687.943       -1315.280
   5479169.809 9   4267031.270 9  21930374.102    21930375.880    21930382.377
     -2088.296       -1627.244
  -5112613.154 9  -3974855.67648  20644756.176    20644757.3194   20644763.8554
       -52.358         -40.798
    649016.242 9    506466.88848  21179654.324    21179655.0324   21179661.5834
      -451.902        -352.131
  -7079927.384 9  -5345680.26448  19730733.111    19730733.8384   19730740.2524
      1263.170         984.288
 -14594092.054 9 -11330762.17849  19586348.764    19586349.5244   19586356.0874
      2599.593        2025.657
  -7295687.343 9  -5666140.83847  22774321.548    22774322.8654   22774329.9994
       680.621         530.354
 -13708740.329 9 -10668981.99047  21817448.128    21817449.1084   21817455.9544
      2309.835        1799.871
 96 10 30 17 32 59.9960000  0  8 17 28  3 23 21  1  9 31            -0.003202808
   4041382.596 9   3147749.73747  22036534.014    22036534.6254   22036542.4664
     -1697.093       -1322.410
   5541915.848 9   4315924.225 9  21942315.285    21942316.074    21942322.629
     -2095.191       -1632.616
  -5110777.340 9  -3973425.19748  20645105.751    20645106.6914   20645113.2714
       -70.368         -54.832
    662624.834 9    517070.96448  21182244.096    21182244.6784   21182251.2624
      -455.851        -355.209
  -7117701.232 9  -5375114.44448  19723544.894    19723545.6714   19723552.1584
      1254.724         977.707
 -14671819.095 9 -11391328.69349  19571557.822    19571558.5044   19571565.0894
      2581.858        2011.837
  -7315825.327 9  -5681832.81047  22770489.363    22770490.7414   22770498.0384
       661.595         515.529
 -13777766.860 9 -10722768.90647  21804312.780    21804313.7934   21804320.5764
      2291.409        1785.514
 96 10 30 17 33 29.9960000  0  8 17 28  3 23 21  1  9 31            -0.003227280
   4092406.137 9   3187508.28647  22046243.691    22046244.0304   22046252.0974
     -1704.898       -1328.492
   5604851.463 9   4364964.901 8  21954291.384    21954292.304    21954298.905
     -2100.964       -1637.115
  -5108433.426 9  -3971598.79448  20645551.640    20645552.7264   20645559.3674
       -86.430         -67.348
    676335.842 9    527754.84548  21184853.039    21184853.8164   21184860.4234
      -458.860        -357.553
  -7155249.152 9  -5404372.57348  19716399.708    19716400.5104   19716407.0914
      1248.105         972.549
 -14749035.851 9 -11451497.58348  19556863.761    19556864.6154   19556871.1764
      2565.563        1999.140
  -7335410.255 9  -5697093.82247  22766761.822    22766763.8284   22766771.1654
       643.642         501.539
 -13846257.273 9 -10776138.06847  21791279.899    21791280.5264   21791287.2704
      2273.943        1771.904
 96 10 30 17 33 59.9960000  0  8 17 28  3 23 21  1  9 31            -0.003251760
   4143663.766 9   3227449.23147  22055997.900    22055998.1754   22056006.2064
     -1713.170       -1334.938
   5667962.660 9   4414142.393 9  21966301.118    21966301.937    21966308.651
     -2107.151       -1641.936
  -5105599.346 9  -3969390.43648  20646091.034    20646092.0404   20646098.7234
      -103.251         -80.455
    690146.612 9    538516.45648  21187481.052    21187481.9784   21187488.5444
      -462.716        -360.558
  -7192602.079 9  -5433478.76248  19709291.694    19709292.4864   19709299.1494
      1241.369         967.301
 -14825775.223 9 -11511294.48748  19542260.565    19542261.5944   19542268.0974
      2549.658        1986.746
  -7354460.092 9  -5711937.87947  22763136.810    22763138.7764   22763145.9894
       625.640         487.512
 -13914210.033 9 -10829088.28647  21778348.693    21778349.4704   21778356.4214
      2255.520        1757.548
 96 10 30 17 34 29.9960000  0  8 17 28  3 23 21  1  9 31            -0.003276240
   4195155.935 9   3267572.97147  22065796.526    22065797.0074   22065804.7434
     -1720.490       -1340.641
   5731237.169 9   4463447.134 9  21978341.912    21978342.647    21978349.540
     -2111.885       -1645.625
  -5102285.848 9  -3966808.50248  20646721.442    20646722.6184   20646729.3144
      -118.431         -92.284
    704062.231 9    549359.77748  21190129.591    21190130.0564   21190136.5974
      -465.674        -362.863
  -7229776.241 9  -5462445.64748  19702217.599    19702218.5034   19702225.1874
      1236.138         963.224
 -14902062.182 9 -11570738.85048  19527743.461    19527744.6074   19527751.1714
      2535.300        1975.558
  -7372993.179 9  -5726379.23747  22759610.377    22759612.0334   22759619.3784
       609.154         474.665
 -13981624.020 9 -10881618.65747  21765519.748    21765520.9844   21765527.9944
      2237.761        1743.710
 96 10 30 17 34 59.9960000  0  8 17 28  3 23 21  1  9 31            -0.003300703
   4246902.302 9   3307894.76547  22075643.337    22075644.2264   22075651.7194
     -1729.479       -1347.646
   5794678.315 9   4512881.716 9  21990414.128    21990415.089    21990422.191
     -2117.695       -1650.152
  -5098486.128 9  -3963847.68948  20647444.722    20647445.6964   20647452.3974
      -135.207        -105.356
    718097.915 9    560296.64948  21192800.636    21192800.9844   21192807.5274
      -470.106        -366.316
  -7266768.388 9  -5491270.69848  19695178.240    19695179.1774   19695185.7844
      1229.872         958.342
 -14977892.299 9 -11629827.23848  19513313.577    19513314.5884   19513321.1884
      2519.659        1963.371
  -7391006.568 9  -5740415.67347  22756182.589    22756184.2914   22756191.4674
       591.560         460.956
 -14048470.228 9 -10933706.62247  21752799.449    21752800.4954   21752807.6274
      2218.344        1728.580
 96 10 30 17 35 29.9960000  0  8 17 28  3 23 21  1  9 31            -0.003325128
   4298938.496 9   3348442.38847  22085545.755    22085546.4444   22085553.8664
     -1739.786       -1355.677
   5858305.061 9   4562460.915 9  22002521.463    22002522.902    22002530.165
     -2124.335       -1655.326
  -5094162.842 9  -3960478.91548  20648267.095    20648268.3774   20648275.0724
      -153.375        -119.513
    732267.961 9    571338.21148  21195497.118    21195497.4464   21195504.0244
      -474.854        -370.016
  -7303565.783 9  -5519943.99748  19688176.040    19688176.9154   19688183.4414
      1222.904         952.912
 -15053226.271 9 -11688529.02349  19498978.078    19498979.0234   19498985.5784
      2502.305        1949.848
  -7408475.021 9  -5754027.46547  22752858.625    22752860.2634   22752867.3464
       572.756         446.303
 -14114708.367 9 -10985320.76147  21740194.670    21740195.7744   21740202.9854
      2197.141        1712.058
 96 10 30 17 35 59.9960000  0  8 17 28  3 23 21  1  9 31            -0.003349519
   4351251.587 9   3389205.79547  22095500.429    22095501.3124   22095508.8114
     -1749.150       -1362.974
   5922102.786 9   4612173.356 9  22014662.356    22014663.241    22014670.630
     -2130.227       -1659.917
  -5089311.423 9  -3956698.61148  20649189.873    20649191.5404   20649198.2464
      -171.229        -133.425
    746556.026 9    582471.73748  21198215.980    21198216.3214   21198222.9484
      -479.066        -373.298
  -7340166.037 9  -5548463.68548  19681211.315    19681212.1774   19681218.6154
      1215.575         947.201
 -15128060.584 9 -11746841.46649  19484737.660    19484738.5454   19484745.1074
      2485.186        1936.509
  -7425403.885 9  -5767218.79847  22749637.579    22749638.8144   22749645.9294
       554.379         431.984
 -14180328.789 9 -11036453.56547  21727707.811    21727708.7084   21727715.8224
      2176.282        1695.804
 96 10 30 17 36 29.9960000  0  8 17 28  3 23 21  1  9 31            -0.003373882
   4403852.587 9   3430193.54646  22105510.348    22105510.8714   22105518.4344
     -1757.185       -1369.235
   5986083.553 9   4662028.431 9  22026837.101    22026838.391    22026845.894
     -2134.794       -1663.476
  -5083924.003 9  -3952500.63148  20650214.965    20650216.7124   20650223.4294
      -187.760        -146.306
    760979.323 9    593710.65048  21200960.367    21200961.0004   21200967.6444
      -482.102        -375.664
  -7376534.500 9  -5576802.74948  19674290.585    19674291.5154   19674297.9314
      1209.327         942.333
 -15202362.341 9 -11804738.92049  19470598.673    19470599.3504   19470605.9784
      2468.567        1923.559
  -7441765.052 9  -5779967.76847  22746523.470    22746525.3344   22746532.2134
       536.693         418.202
 -14245319.361 9 -11087095.56847  21715340.615    21715341.5374   21715348.5184
      2156.716        1680.558
 96 10 30 17 36 59.9960000  0  8 17 28  3 23 21  1  9 31            -0.003398228
   4456717.382 9   3471386.85146  22115570.386    22115570.6804   22115578.1844
     -1766.480       -1376.478
   6050226.135 9   4712009.584 9  22039043.065    22039044.331    22039051.951
     -2140.717       -1668.091
  -5078002.105 9  -3947886.18948  20651341.896    20651343.5764   20651350.2924
      -206.421        -160.847
    775514.511 9    605036.73848  21203726.259    21203726.9994   21203733.6784
      -486.167        -378.831
  -7412695.021 9  -5604979.78748  19667409.504    19667410.3674   19667416.8314
      1202.008         936.630
 -15276133.860 9 -11862223.21549  19456560.304    19456561.1514   19456567.7384
      2450.203        1909.249
  -7457565.327 9  -5792279.69747  22743517.083    22743518.6824   22743525.6344
       517.351         403.131
 -14309705.180 9 -11137266.33647  21703088.464    21703089.3304   21703096.2804
      2136.417        1664.741
 96 10 30 17 37 29.9960000  0  8 17 28  3 23 21  1  9 31            -0.003422557
   4509868.567 9   3512803.30546  22125684.452    22125684.8974   22125692.6444
     -1775.733       -1383.688
   6114552.327 9   4762133.817 9  22051283.529    22051285.203    22051292.950
     -2146.494       -1672.593
  -5071518.012 9  -3942833.67248  20652575.907    20652577.4694   20652584.1714
      -224.643        -175.046
    790165.162 9    616452.80548  21206514.097    21206514.9024   21206521.6244
      -489.446        -381.386
  -7448625.651 9  -5632977.68948  19660572.063    19660572.9524   19660579.5464
      1194.448         930.739
 -15349343.576 9 -11919269.74549  19442628.892    19442629.8634   19442636.4334
      2431.738        1894.861
  -7472780.253 9  -5804135.50447  22740621.933    22740623.4144   22740630.2804
       498.169         388.184
 -14373480.055 9 -11186961.05347  21690952.338    21690953.3914   21690960.4534
      2116.442        1649.176
 96 10 30 17 37 59.9960000  0  8 17 28  3 23 21  1  9 31            -0.003446898
   4563271.300 9   3554415.76547  22135846.543    22135847.1554   22135854.9664
     -1784.245       -1390.321
   6179017.126 9   4812366.059 9  22063551.269    22063552.493    22063560.413
     -2150.870       -1676.003
  -5064523.265 9  -3937383.23748  20653907.366    20653908.5574   20653915.2434
      -241.367        -188.078
    804885.003 9    627922.80548  21209315.508    21209316.0384   21209322.6674
      -491.578        -383.048
  -7484356.403 9  -5660819.83748  19653772.740    19653773.5704   19653780.2834
      1187.938         925.666
 -15422036.315 9 -11975913.41649  19428795.867    19428796.8814   19428803.5014
      2414.803        1881.665
  -7487449.101 9  -5815565.78147  22737830.736    22737832.0484   22737838.9604
       480.009         374.033
 -14436703.216 9 -11236225.86147  21678921.483    21678922.3474   21678929.5724
      2098.648        1635.310
 96 10 30 17 38 29.9960000  0  9 17 28  3 25 23 21  1  9 31         -0.003471241
   4616957.183 9   3596248.86246  22146062.752    22146063.2304   22146071.0764
     -1794.689       -1398.459
   6243631.977 9   4862715.209 9  22075847.570    22075848.369    22075856.354
     -2156.742       -1680.578
  -5057000.980 9  -3931521.73848  20655338.717    20655340.0264   20655346.6364
      -260.094        -202.671
  -1926043.67818  -1480457.93355  24260082.717    24260083.2095   24260092.7335
      4411.814        3437.777
    819682.270 9    639453.12048  21212131.433    21212131.8644   21212138.5994
      -494.796        -385.555
  -7519885.889 9  -5688505.15748  19647011.740    19647012.5384   19647019.2894
      1180.793         920.098
 -15494203.251 9 -12032147.38549  19415062.949    19415063.9584   19415070.5864
      2396.380        1867.309
  -7501549.386 9  -5826553.03247  22735147.408    22735148.9824   22735155.9164
       460.160         358.566
 -14499374.375 9 -11285060.53247  21666995.444    21666996.4134   21667003.6314
      2079.346        1620.270
 96 10 30 17 38 59.9960000  0  9 17 28  3 25 23 21  1  9 31         -0.003495594
   4670910.538 9   3638290.37746  22156330.102    22156330.1664   22156338.1414
     -1803.608       -1405.409
   6308374.331 9   4913163.709 9  22088167.142    22088168.478    22088176.547
     -2160.850       -1683.779
  -5048962.630 9  -3925258.10048  20656868.674    20656869.7364   20656876.2194
      -277.042        -215.877
  -2058497.418 8  -1583668.50645  24234877.310    24234877.9764   24234887.6824
      4417.265        3442.025
    834521.517 9    651016.13848  21214955.054    21214955.6644   21214962.4484
      -496.069        -386.547
  -7555244.288 9  -5716057.15648  19640283.199    19640284.0694   19640290.8224
      1174.980         915.569
 -15565867.616 9 -12087989.73748  19401425.554    19401426.6504   19401433.2964
      2379.891        1854.461
  -7515108.528 9  -5837118.63847  22732567.713    22732568.8094   22732575.5574
       442.454         344.769
 -14561512.712 9 -11333480.02047  21655171.263    21655171.9364   21655179.1364
      2061.602        1606.443
 96 10 30 17 39 29.9960000  0  9 17 28  3 25 23 21  1  9 31         -0.003519956
   4725138.428 9   3680545.82146  22166648.906    22166649.4684   22166657.6794
     -1812.321       -1412.198
   6373254.065 9   4963719.283 9  22100513.023    22100514.761    22100522.796
     -2165.145       -1687.126
  -5040412.755 9  -3918595.88348  20658495.936    20658496.7414   20658503.2304
      -293.773        -228.914
  -2191117.945 8  -1687009.11145  24209640.369    24209641.1194   24209650.5744
      4423.422        3446.822
    849419.968 9    662625.30448  21217789.972    21217790.7564   21217797.4744
      -498.090        -388.122
  -7590406.434 9  -5743456.23448  19633592.087    19633592.9054   19633599.7134
      1168.428         910.463
 -15637024.843 9 -12143436.92049  19387884.860    19387885.8604   19387892.4924
      2363.246        1841.490
  -7528125.034 9  -5847261.36347  22730090.345    22730091.9894   22730098.6084
       424.616         330.870
 -14623105.453 9 -11381474.37647  21643450.328    21643451.2614   21643458.3784
      2043.570        1592.392
 96 10 30 17 39 59.9960000  0  9 17 28  3 25 23 21  1  9 31         -0.003544315
   4779632.804 9   3723008.88446  22177018.831    22177019.3564   22177027.8034
     -1820.707       -1418.733
   6438266.223 9   5014378.037 9  22112885.508    22112886.213    22112894.313
     -2169.143       -1690.241
  -5031347.027 9  -3911531.70648  20660220.724    20660221.8774   20660228.4124
      -310.723        -242.122
  -2323920.333 8  -1790491.41045  24184368.468    24184369.7244   24184378.7094
      4429.914        3451.881
    864398.254 9    674296.66948  21220640.402    21220641.0294   21220647.8064
      -500.623        -390.096
  -7625368.481 9  -5770699.39648  19626938.987    19626939.8304   19626946.6224
      1162.279         905.672
 -15707681.332 9 -12198493.91849  19374439.506    19374440.4094   19374447.0684
      2347.098        1828.908
  -7540603.645 9  -5856984.96947  22727716.094    22727717.2884   22727724.0544
       407.154         317.263
 -14684139.493 9 -11429033.39247  21631835.927    21631836.8854   21631843.9334
      2025.174        1578.058
 96 10 30 17 40 29.9960000  0  9 17 28  3 25 23 21  1  9 31         -0.003568660
   4834392.683 9   3765678.87446  22187439.235    22187439.9904   22187448.3414
     -1829.692       -1425.734
   6503422.947 9   5065149.421 9  22125285.390    22125285.204    22125293.369
     -2174.491       -1694.409
  -5021752.074 9  -3904055.14148  20662046.397    20662047.7764   20662054.2674
      -328.645        -256.087
  -2456892.304 8  -1894105.91345  24159064.766    24159066.0414   24159074.9234
      4434.893        3455.761
    879482.987 9    686050.98048  21223510.764    21223511.5294   21223518.3214
      -504.942        -393.461
  -7660122.101 9  -5797780.15248  19620325.653    19620326.5184   19620333.1774
      1154.543         899.644
 -15777828.160 9 -12253153.77748  19361090.938    19361091.8594   19361098.6014
      2329.496        1815.192
  -7552539.435 9  -5866285.59447  22725444.631    22725445.9094   22725452.8714
       388.738         302.913
 -14744595.082 9 -11476141.64447  21620331.980    21620332.5964   21620339.5714
      2005.301        1562.572
 96 10 30 17 40 59.9960000  0  9 17 28  3 25 23 21  1  9 31         -0.003593000
   4889412.018 9   3808551.00746  22197909.364    22197909.8514   22197918.1604
     -1838.460       -1432.566
   6568732.707 9   5116040.062 9  22137713.002    22137713.326    22137721.506
     -2179.708       -1698.474
  -5011637.521 9  -3896173.68848  20663971.283    20663972.5434   20663979.0104
      -345.863        -269.504
  -2590000.160 8  -1997826.24145  24133735.146    24133736.4174   24133745.3794
      4438.711        3458.736
    894703.076 9    697910.76248  21226406.959    21226407.8154   21226414.6404
      -509.971        -397.380
  -7694637.057 9  -5824674.93048  19613757.796    19613758.6134   19613765.1344
      1146.211         893.151
 -15847452.842 9 -12307406.77548  19347841.995    19347842.7084   19347849.3934
      2311.976        1801.540
  -7563936.974 9  -5875166.79747  22723275.689    22723277.0034   22723284.2774
       370.904         289.016
 -14804464.068 9 -11522792.81947  21608939.371    21608939.9954   21608946.8394
      1985.737        1547.328
 96 10 30 17 41 29.9960000  0  9 17 28  3 25 23 21  1  9 31         -0.003617343
   4944668.767 9   3851608.16846  22208424.803    22208424.8914   22208433.1194
     -1846.508       -1438.837
   6634177.695 9   5167036.081 9  22150166.454    22150167.178    22150175.384
     -2184.472       -1702.186
  -5001028.325 9  -3887906.80548  20665990.480    20665991.4224   20665997.9434
      -362.666        -282.597
  -2723238.518 8  -2101648.31445  24108380.799    24108381.8684   24108391.0914
      4442.439        3461.641
    910055.770 9    709873.87348  21229328.902    21229329.3714   21229336.2504
      -514.616        -400.999
  -7728920.822 9  -5851389.55448  19607233.914    19607234.7004   19607241.1134
      1138.204         886.912
 -15916570.170 9 -12361264.42248  19334689.374    19334690.1304   19334696.7484
      2294.600        1788.000
  -7574814.665 9  -5883642.94947  22721205.899    22721207.0324   22721214.3794
       353.066         275.116
 -14863762.943 9 -11568999.73547  21597655.194    21597655.8594   21597662.6614
      1966.167        1532.078
 96 10 30 17 41 59.9960000  0  9 17 28  3 25 23 21  1  9 31         -0.003641688
   5000160.991 9   3894848.82546  22218984.571    22218984.8014   22218993.0024
     -1854.078       -1444.736
   6699758.887 9   5218138.236 9  22162647.328    22162646.976    22162655.165
     -2188.758       -1705.526
  -4989924.083 9  -3879254.17548  20668103.786    20668104.5814   20668111.0604
      -378.728        -295.113
  -2856576.639 8  -2205548.09245  24083006.022    24083008.2194   24083017.6264
      4445.503        3464.028
    925538.355 9    721938.18748  21232274.629    21232275.6324   21232282.5554
      -518.652        -404.144
  -7762975.560 9  -5877925.71948  19600753.591    19600754.3094   19600760.6794
      1130.986         881.288
 -15985169.092 9 -12414718.12248  19321635.470    19321636.2234   19321642.7244
      2277.476        1774.657
  -7585165.128 9  -5891708.27247  22719236.337    22719237.4004   22719244.7034
       335.733         261.610
 -14922480.882 9 -11614753.97947  21586481.343    21586482.2914   21586489.0704
      1947.196        1517.296
 96 10 30 17 42 29.9960000  0  9 17 28  3 25 23 21  1  9 31         -0.003666037
   5055898.252 9   3938280.40046  22229590.502    22229591.3764   22229599.5914
     -1862.534       -1451.325
   6765487.925 9   5269355.589 8  22175155.174    22175154.849    22175162.999
     -2193.855       -1709.497
  -4978321.821 9  -3870213.46748  20670311.512    20670312.4714   20670318.9054
      -395.559        -308.228
  -2989981.920 8  -2309500.22045  24057620.037    24057621.7824   24057631.2144
      4447.605        3465.666
    941156.826 9    734108.40048  21235246.797    21235247.8364   21235254.7004
      -523.229        -407.711
  -7796793.890 9  -5904277.67248  19594318.091    19594318.8814   19594325.2174
      1122.903         874.989
 -16053225.681 9 -12467749.22848  19308684.813    19308685.5024   19308691.9244
      2258.847        1760.140
  -7594973.206 9  -5899350.96947  22717369.984    22717371.0004   22717378.2414
       317.443         247.358
 -14980611.129 9 -11660050.28647  21575419.352    21575420.4244   21575427.2784
      1927.307        1501.798
 96 10 30 17 42 59.9960000  0  9 17 28  3 25 23 21  1  9 31         -0.003690407
   5111861.903 9   3981888.39946  22240240.032    22240241.0884   22240249.2034
     -1868.599       -1456.051
   6831331.162 9   5320661.933 8  22187684.360    22187684.493    22187692.547
     -2195.851       -1711.053
  -4966241.316 9  -3860800.10748  20672610.269    20672611.2874   20672617.8284
      -410.063        -319.530
  -3123492.073 8  -2413534.05545  24032214.219    24032215.5684   24032225.0554
      4453.060        3469.917
    956871.534 9    746353.59648  21238237.347    21238238.2974   21238245.1064
      -524.496        -408.698
  -7830411.287 9  -5930473.05448  19587920.906    19587921.7224   19587928.0124
      1118.260         871.371
 -16120752.463 9 -12520367.49748  19295834.804    19295835.5374   19295841.9874
      2242.891        1747.707
  -7604268.356 9  -5906593.96747  22715601.361    22715602.2464   22715609.3594
       301.970         235.301
 -15038177.563 9 -11704907.27647  21564464.775    21564465.8784   21564472.7474
      1910.166        1488.441
 96 10 30 17 43 29.9960000  0  9 17 28  3 25 23 21  1  9 31         -0.003714790
   5168051.316 9   4025672.31847  22250933.013    22250933.7324   22250941.7664
     -1876.766       -1462.415
   6897277.179 9   5372048.361 9  22200233.232    22200233.601    22200241.700
     -2199.858       -1714.175
  -4953672.048 9  -3851005.89548  20675002.185    20675003.1764   20675009.7064
      -427.151        -332.845
  -3257138.619 8  -2517674.18145  24006781.368    24006783.0674   24006792.6114
      4457.473        3473.356
    972661.738 9    758657.62448  21241242.382    21241243.1414   21241249.7954
      -527.413        -410.971
  -7863850.781 9  -5956529.80548  19581557.735    19581558.4474   19581564.6644
      1111.752         866.300
 -16187763.075 9 -12572583.54748  19283083.305    19283083.8394   19283090.2994
      2225.225        1733.942
  -7613041.147 9  -5913429.92947  22713931.871    22713932.9454   22713940.0814
       283.686         221.054
 -15095179.935 9 -11749324.72947  21553617.375    21553618.6814   21553625.5584
      1890.682        1473.259
 96 10 30 17 43 59.9960000  0  9 17 28  3 25 23 21  1  9 31         -0.003739162
   5224501.586 9   4069659.48446  22261675.471    22261675.9524   22261683.9494
     -1886.544       -1470.034
   6963348.651 9   5423532.548 9  22212806.028    22212806.668    22212814.727
     -2204.809       -1718.033
  -4940580.657 9  -3840804.82848  20677493.679    20677494.3604   20677500.9234
      -445.442        -347.098
  -3390912.288 8  -2621913.34245  23981325.094    23981326.8224   23981335.8854
      4460.967        3476.078
    988545.605 9    771034.64548  21244264.925    21244265.8244   21244272.3674
      -531.345        -414.035
  -7897094.232 9  -5982433.80048  19575231.746    19575232.4364   19575238.6484
      1104.489         860.641
 -16254238.945 9 -12624382.92248  19270433.337    19270433.9384   19270440.3514
      2206.629        1719.451
  -7621268.549 9  -5919840.94047  22712366.186    22712367.2934   22712374.5294
       264.813         206.348
 -15151596.506 9 -11793285.70847  21542881.819    21542882.9884   21542889.8814
      1870.425        1457.474
 96 10 30 17 44 29.9960000  0  9 17 28  3 25 23 21  1  9 31         -0.003763519
   5281229.283 9   4113862.82246  22272469.925    22272470.9994   22272478.8384
     -1895.505       -1477.017
   7029550.413 9   5475118.268 9  22225404.294    22225404.484    22225412.567
     -2208.762       -1721.113
  -4926959.789 9  -3830191.19548  20680085.584    20680086.3294   20680092.9234
      -462.683        -360.532
  -3524820.939 8  -2726257.68345  23955844.085    23955845.1414   23955853.8984
      4466.152        3480.118
   1004524.294 9    783485.53748  21247305.521    21247306.5244   21247312.9654
      -534.148        -416.219
  -7930127.798 9  -6008174.25248  19568945.641    19568946.3754   19568952.6054
      1097.545         855.230
 -16320177.818 9 -12675763.85748  19257885.545    19257886.2154   19257892.6024
      2189.194        1705.865
  -7628941.512 9  -5925819.89947  22710906.220    22710907.1014   22710914.5084
       246.539         192.108
 -15207423.761 9 -11836787.48947  21532257.842    21532259.3864   21532266.3924
      1851.142        1442.448
 96 10 30 17 44 59.9960000  0  9 17 28  3 25 23 21  1  9 31         -0.003787861
   5338224.135 9   4158274.34546  22283315.636    22283316.9114   22283324.3594
     -1904.502       -1484.028
   7095871.418 9   5526796.889 9  22238024.797    22238024.989    22238033.178
     -2212.968       -1724.391
  -4912827.859 9  -3819179.32948  20682774.941    20682775.6134   20682782.1844
      -479.713        -373.802
  -3658879.499 8  -2830718.82945  23930333.591    23930334.8464   23930343.4834
      4470.606        3483.589
   1020591.722 9    796005.58948  21250363.075    21250364.0614   21250370.4334
      -537.452        -418.794
  -7962949.599 9  -6033749.68848  19562699.866    19562700.5394   19562706.8954
      1090.175         849.487
 -16385603.423 9 -12726744.84148  19245435.402    19245436.1864   19245442.5394
      2172.262        1692.672
  -7636061.576 9  -5931368.05847  22709551.479    22709552.1604   22709559.5814
       227.736         177.457
 -15262671.565 9 -11879837.75048  21521744.422    21521746.0694   21521753.1384
      1831.640        1427.252
 96 10 30 17 45 29.9960000  0  9 17 28  3 25 23 21  1  9 31         -0.003812170
   5395500.809 9   4202905.44746  22294215.231    22294216.3334   22294223.7154
     -1914.036       -1491.457
   7162330.277 9   5578582.916 8  22250671.146    22250671.749    22250679.941
     -2217.937       -1728.263
  -4898181.467 9  -3807766.57848  20685561.941    20685562.7694   20685569.2694
      -496.954        -387.237
  -3793050.865 8  -2935267.86345  23904802.021    23904803.0804   23904811.4194
      4473.888        3486.146
   1036775.434 9    808616.24248  21253442.773    21253443.7524   21253450.1584
      -541.761        -422.151
  -7995532.165 9  -6059138.71348  19556499.590    19556500.2424   19556506.7644
      1081.665         842.856
 -16450513.122 9 -12777323.82248  19233083.410    19233084.3474   19233090.6384
      2154.508        1678.837
  -7642605.253 9  -5936467.04847  22708305.704    22708306.9614   22708314.3524
       208.447         162.426
 -15317319.581 9 -11922420.62548  21511345.214    21511346.9604   21511354.0634
      1811.165        1411.297
 96 10 30 17 45 59.9960000  0  9 17 28  3 25 23 21  1  9 31         -0.003836460
   5453042.156 9   4247742.83746  22305165.408    22305166.0114   22305173.3854
     -1920.843       -1496.761
   7228919.031 9   5630470.183 8  22263341.914    22263343.297    22263351.417
     -2220.265       -1730.077
  -4883041.145 9  -3795968.95748  20688442.957    20688443.9154   20688450.4554
      -511.365        -398.466
  -3927331.157 8  -3039901.82845  23879249.546    23879250.4794   23879258.3834
      4479.081        3490.193
   1053073.377 9    821315.90948  21256544.336    21256545.1564   21256551.6564
      -543.887        -423.808
  -8027874.690 9  -6084340.69448  19550345.013    19550345.6314   19550352.2784
      1075.392         837.968
 -16514895.805 9 -12827492.14548  19220831.924    19220832.7564   19220839.0354
      2138.688        1666.510
  -7648591.715 9  -5941131.86447  22707166.671    22707167.8554   22707175.2034
       191.492         149.215
 -15371365.111 9 -11964534.04147  21501061.171    21501062.5294   21501069.6244
      1792.786        1396.976
 96 10 30 17 46 29.9960000  0  9 17 28  3 25 23 21  1  9 31         -0.003860781
   5510756.016 9   4292714.60246  22316147.672    22316148.6314   22316156.2474
     -1927.312       -1501.802
   7295554.622 9   5682393.944 8  22276023.081    22276023.685    22276031.725
     -2222.539       -1731.849
  -4867498.056 9  -3783857.48248  20691400.805    20691401.6964   20691408.3154
      -525.365        -409.375
  -4061793.420 8  -3144677.55345  23853662.296    23853662.9304   23853670.8504
      4484.525        3494.435
   1069422.075 9    834055.11448  21259655.618    21259656.2244   21259662.8544
      -546.679        -425.984
  -8060043.213 9  -6109407.08248  19544223.480    19544224.1484   19544230.8564
      1068.759         832.799
 -16578825.364 9 -12877307.37748  19208666.593    19208667.3294   19208673.7294
      2122.763        1654.101
  -7654084.374 9  -5945411.87747  22706121.640    22706122.6284   22706130.1844
       174.243         135.774
 -15424884.587 9 -12006237.55347  21490877.095    21490878.1504   21490885.2024
      1774.470        1382.704
 96 10 30 17 46 59.9960000  0  9 17 28  3 25 23 21  1  9 31         -0.003885091
   5568709.060 9   4337872.76446  22327175.813    22327176.8524   22327184.5724
     -1937.076       -1509.410
   7362299.980 9   5734403.238 8  22288724.177    22288724.980    22288732.896
     -2227.898       -1736.024
  -4851489.731 9  -3771383.49048  20694447.118    20694447.9914   20694454.6574
      -542.771        -422.938
  -4196363.800 8  -3249537.52945  23828053.956    23828054.9974   23828062.5664
      4486.186        3495.729
   1085905.425 9    846899.26348  21262792.355    21262792.9414   21262799.6004
      -552.817        -430.766
  -8091971.191 9  -6134286.03748  19538147.833    19538148.4614   19538155.1734
      1059.049         825.233
 -16642231.563 9 -12926714.79248  19196600.693    19196601.4294   19196607.9624
      2103.487        1639.081
  -7659018.116 9  -5949256.39447  22705183.079    22705183.8294   22705191.3684
       153.907         119.928
 -15477806.621 9 -12047475.50048  21480806.461    21480807.4434   21480814.5244
      1752.839        1365.849
 96 10 30 17 47 29.9960000  0  9 17 28  3 25 23 21  1  9 31         -0.003909384
   5626912.543 9   4383226.07946  22338251.693    22338252.6144   22338260.4954
     -1944.346       -1515.075
   7429163.974 9   5786504.961 8  22301448.119    22301448.806    22301456.674
     -2230.976       -1738.423
  -4834993.796 9  -3758529.55448  20697586.331    20697587.1024   20697593.7414
      -558.262        -435.009
  -4331023.469 8  -3354467.04145  23802428.864    23802430.0194   23802437.6534
      4489.898        3498.622
   1102528.073 9    859851.94648  21265955.477    21265956.1034   21265962.7944
      -556.507        -433.642
  -8123646.517 9  -6158968.12848  19532120.334    19532120.9444   19532127.5454
      1051.339         819.225
 -16705093.494 9 -12975698.11548  19184638.370    19184639.1384   19184645.7234
      2085.897        1625.374
  -7663384.792 9  -5952659.04147  22704351.973    22704352.9844   22704360.5254
       135.919         105.911
 -15530114.226 9 -12088234.69847  21470852.786    21470853.6464   21470860.8344
      1733.134        1350.494
 96 10 30 17 47 59.9960000  0  9 17 28  3 25 23 21  1  9 31         -0.003933667
   5685350.154 9   4428761.83746  22349372.304    22349373.0044   22349380.8184
     -1951.895       -1520.957
   7496137.069 9   5838691.705 8  22314192.983    22314193.442    22314201.308
     -2234.355       -1741.056
  -4818013.866 9  -3745298.46648  20700817.459    20700818.3364   20700824.9594
      -574.179        -447.412
  -4465773.559 8  -3459467.03745  23776784.993    23776787.7524   23776795.9544
      4492.871        3500.938
   1119275.058 9    872901.52048  21269142.316    21269142.8674   21269149.6634
      -560.440        -436.706
  -8155071.903 9  -6183455.45448  19526140.413    19526140.9804   19526147.4884
      1043.214         812.894
 -16767414.735 9 -13024260.11748  19172778.957    19172779.7594   19172786.3834
      2068.466        1611.792
  -7667185.798 9  -5955620.90647  22703628.849    22703629.7264   22703637.1554
       116.899          91.090
 -15581822.275 9 -12128526.70847  21461013.064    21461013.9084   21461021.1594
      1713.560        1335.242
 96 10 30 17 48 29.9960000  0  9 17 28  3 25 23 21  1  9 31         -0.003957956
   5743999.560 9   4474462.58246  22360533.176    22360533.6544   22360541.6174
     -1958.665       -1526.232
   7563184.503 9   5890936.372 8  22326951.773    22326952.220    22326960.088
     -2236.274       -1742.551
  -4800583.817 9  -3731716.63848  20704134.371    20704135.1424   20704141.8254
      -588.768        -458.780
  -4600631.524 8  -3564551.07945  23751122.689    23751124.9294   23751133.4074
      4496.719        3503.937
   1136111.133 9    886020.50848  21272346.010    21272346.6434   21272353.5084
      -562.720        -438.483
  -8186281.014 9  -6207774.25448  19520201.558    19520202.1484   19520208.6164
      1036.808         807.902
 -16829240.694 9 -13072436.19148  19161013.982    19161014.7004   19161021.2524
      2052.416        1599.285
  -7670451.212 9  -5958165.39547  22703008.001    22703008.3674   22703015.7074
       100.135          78.027
 -15632971.636 9 -12168383.37148  21451279.865    21451280.6214   21451287.7394
      1695.475        1321.149
 96 10 30 17 48 59.9960000  0  9 17 28  3 25 23 21  1  9 31         -0.003982256
   5802855.733 9   4520324.48646  22371733.257    22371733.7464   22371741.5474
     -1965.505       -1531.562
   7630299.742 9   5943233.882 8  22339723.297    22339723.869    22339731.631
     -2238.498       -1744.284
  -4782697.463 9  -3717779.24748  20707538.077    20707538.8174   20707545.5344
      -604.196        -470.802
  -4735593.486 8  -3669716.11645  23725440.592    23725442.3374   23725450.9914
      4500.132        3506.596
   1153015.752 9    899192.91048  21275563.087    21275563.4914   21275570.3834
      -564.650        -439.987
  -8217299.785 9  -6231944.72848  19514298.935    19514299.5084   19514305.9824
      1030.624         803.084
 -16890570.385 9 -13120225.55748  19149343.252    19149344.0944   19149350.5574
      2035.778        1586.321
  -7673211.445 9  -5960316.25147  22702482.771    22702483.1774   22702490.3024
        83.370          64.964
 -15683561.538 9 -12207804.07248  21441653.424    21441653.7314   21441660.8894
      1676.785        1306.586
 96 10 30 17 49 29.9960000  0  9 17 28  3 25 23 21  1  9 31         -0.004006565
   5861923.964 9   4566351.61946  22382973.355    22382973.9994   22382981.7204
     -1972.916       -1537.337
   7697491.100 9   5995590.704 8  22352509.360    22352509.974    22352517.653
     -2241.510       -1746.631
  -4764338.815 9  -3703473.84548  20711031.493    20711032.3864   20711039.1444
      -620.170        -483.249
  -4870641.142 8  -3774947.96545  23699741.862    23699743.8164   23699752.1754
      4502.472        3508.420
   1169987.065 9    912417.26348  21278792.302    21278793.0974   21278800.0984
      -567.430        -442.153
  -8248131.207 9  -6255969.22148  19508431.749    19508432.4704   19508439.0004
      1024.182         798.064
 -16951390.427 9 -13167617.80648  19137769.588    19137770.4054   19137776.8394
      2018.278        1572.684
  -7675461.952 9  -5962069.92947  22702053.922    22702055.0094   22702062.1334
        66.023          51.446
 -15733580.579 9 -12246779.97148  21432135.256    21432135.4594   21432142.5984
      1657.131        1291.271
 96 10 30 17 49 59.9950000  0  9 17 28  3 25 23 21  1  9 31         -0.004030851
   5921253.833 9   4612582.63146  22394263.221    22394264.0904   22394271.9434
     -1983.214       -1545.361
   7764792.191 9   6048033.039 8  22365316.638    22365317.062    22365324.691
     -2246.007       -1750.135
  -4745481.236 9  -3688779.64948  20714619.841    20714620.8464   20714627.5964
      -637.650        -496.870
  -5005733.913 9  -3880214.95345  23674034.562    23674036.4554   23674044.5214
      4503.394        3509.138
   1187068.252 9    925727.25448  21282043.044    21282043.6434   21282050.6094
      -572.133        -445.818
  -8278745.169 9  -6279824.25948  19502606.200    19502606.8704   19502613.4034
      1016.202         791.846
 -17011655.084 9 -13214577.27748  19126301.551    19126302.4054   19126308.7904
      1998.874        1557.564
  -7677168.898 9  -5963400.04747  22701729.872    22701730.3254   22701737.3954
        47.273          36.836
 -15782980.106 9 -12285273.12548  21422734.562    21422735.0944   21422742.1044
      1635.419        1274.352
 96 10 30 17 50 29.9950000  0  9 17 28  3 25 23 21  1  9 31         -0.004055128
   5980853.860 9   4659024.16346  22405604.514    22405605.6294   22405613.4774
     -1989.966       -1550.623
   7832187.713 9   6100548.949 8  22378140.721    22378142.056    22378149.722
     -2246.830       -1750.777
  -4726141.943 9  -3673710.10648  20718299.921    20718300.9374   20718307.7084
      -651.557        -507.707
  -5140902.640 8  -3985541.10446  23648313.322    23648314.8464   23648322.7144
      4508.084        3512.793
   1204254.376 9    939119.01648  21285313.672    21285314.1944   21285321.0764
      -573.447        -446.842
  -8309171.507 9  -6303533.10648  19496816.325    19496816.9314   19496823.4704
      1012.417         788.896
 -17071374.426 9 -13261111.83248  19114937.129    19114938.2184   19114944.5624
      1982.606        1544.888
  -7678370.652 9  -5964336.49547  22701501.865    22701501.6884   22701508.8084
        32.949          25.675
 -15831768.021 9 -12323289.69247  21413450.699    21413451.0714   21413457.9504
      1617.186        1260.145
 96 10 30 17 50 59.9950000  0  9 17 28  3 25 23 21  1  9 31         -0.004079414
   6040692.882 9   4705651.89746  22416991.739    22416992.5754   22417000.6574
     -1998.713       -1557.439
   7899641.746 9   6153110.450 8  22390976.830    22390978.216    22390985.901
     -2249.404       -1752.782
  -4706350.965 9  -3658288.59148  20722066.224    20722067.1054   20722073.8454
      -667.077        -519.800
  -5276181.132 8  -4090952.78946  23622570.847    23622572.2924   23622580.2774
      4511.134        3515.169
   1221516.117 9    952569.69148  21288598.629    21288599.0774   21288605.9194
      -576.650        -449.338
  -8339443.012 9  -6327121.29748  19491055.864    19491056.4494   19491063.0144
      1006.194         784.047
 -17130571.575 9 -13307239.47448  19103672.436    19103673.3734   19103679.7264
      1964.620        1530.873
  -7679094.491 9  -5964900.55346  22701363.467    22701363.9564   22701370.9324
        15.848          12.349
 -15879968.195 9 -12360848.28648  21404278.297    21404278.8514   21404285.7124
      1596.859        1244.306
 96 10 30 17 51 29.9950000  0  9 17 28  3 25 23 21  1  9 31         -0.004103712
   6100771.587 9   4752466.44346  22428425.009    22428425.2514   22428433.1844
     -2006.911       -1563.827
   7967138.463 9   6205705.203 8  22403821.127    22403822.528    22403830.232
     -2250.910       -1753.956
  -4686136.413 9  -3642537.02148  20725913.083    20725913.8534   20725920.5924
      -681.041        -530.681
  -5411588.882 8  -4196465.18446  23596803.715    23596804.7704   23596812.9264
      4515.539        3518.602
   1238847.292 9    966074.46148  21291896.551    21291897.1114   21291903.9294
      -579.285        -451.391
  -8369556.326 9  -6350586.22648  19485325.246    19485326.0194   19485332.6624
      1000.699         779.765
 -17189265.153 9 -13352974.73448  19092503.651    19092504.4084   19092510.6994
      1947.837        1517.795
  -7679331.057 9  -5965084.89347  22701317.761    22701318.9734   22701325.8744
        -0.590          -0.460
 -15927600.787 9 -12397964.60648  21395213.758    21395214.5734   21395221.5174
      1578.063        1229.659
 96 10 30 17 51 59.9950000  0  9 17 28  3 25 23 21  1  9 31         -0.004127998
   6161129.862 9   4799498.77546  22439910.671    22439910.9294   22439919.1534
     -2016.500       -1571.299
   8034713.562 9   6258361.051 8  22416681.322    22416681.672    22416689.602
     -2253.770       -1756.184
  -4665464.693 9  -3626429.21448  20729846.824    20729847.6084   20729854.3624
      -696.683        -542.870
  -5547096.938 8  -4302055.78045  23571017.130    23571018.4044   23571026.4604
      4518.597        3520.985
   1256293.367 9    979668.77548  21295216.196    21295216.9814   21295223.7884
      -583.504        -454.678
  -8399458.319 9  -6373886.49148  19479635.132    19479635.8154   19479642.4914
       993.124         773.863
 -17247421.718 9 -13398291.53648  19081437.010    19081437.6764   19081443.8944
      1929.714        1503.673
  -7679037.976 9  -5964856.53847  22701373.799    22701374.7474   22701381.6684
       -18.574         -14.473
 -15974639.038 9 -12434617.81447  21386262.818    21386263.5054   21386270.3534
      1558.185        1214.170
 96 10 30 17 52 29.9950000  0  9 17 28  3 25 23 21  1  9 31         -0.004152256
   6221757.051 9   4846740.68646  22451447.729    22451448.0724   22451456.1574
     -2024.683       -1577.675
   8102371.486 9   6311081.416 8  22429556.505    22429556.509    22429564.627
     -2256.200       -1758.078
  -4644332.054 9  -3609962.25448  20733867.875    20733869.0014   20733875.8654
      -711.672        -554.550
  -5682697.560 8  -4407718.51946  23545212.554    23545214.2694   23545222.4014
      4521.993        3523.631
   1273868.137 9    993363.36448  21298560.661    21298561.3674   21298568.2284
      -587.489        -457.784
  -8429137.061 9  -6397012.79348  19473987.409    19473988.1294   19473994.8584
       985.893         768.228
 -17305042.141 9 -13443190.57048  19070472.343    19070472.9284   19070479.0804
      1912.208        1490.032
  -7678204.350 9  -5964207.01847  22701532.249    22701533.3214   22701540.2824
       -36.624         -28.538
 -16021097.827 9 -12470819.48747  21377421.934    21377422.6984   21377429.4764
      1539.596        1199.685
 96 10 30 17 52 59.9950000  0  9 17 28  3 25 23 21  1  9 31         -0.004176539
   6282619.322 9   4894165.75246  22463029.110    22463029.7124   22463038.1654
     -2032.911       -1584.086
   8170094.761 9   6363852.723 8  22442443.702    22442443.814    22442452.022
     -2258.836       -1760.132
  -4622761.037 9  -3593153.70348  20737972.482    20737973.7774   20737980.8544
      -726.618        -566.196
  -5818408.416 9  -4513467.14046  23519387.437    23519389.3524   23519397.3194
      4525.136        3526.080
   1291551.868 9   1007142.85348  21301925.740    21301926.5224   21301933.3634
      -591.552        -460.950
  -8458596.319 9  -6419968.07848  19468381.544    19468382.2094   19468388.9614
       977.897         761.998
 -17362146.429 9 -13487687.42048  19059605.589    19059606.3144   19059612.4424
      1894.617        1476.325
  -7676822.321 9  -5963130.17147  22701795.105    22701796.3654   22701803.3874
       -55.589         -43.316
 -16067007.896 9 -12506593.58447  21368685.483    21368686.3164   21368693.0154
      1520.870        1185.093
 96 10 30 17 53 29.9950000  0  9 17 28  3 25 23 21  1  9 31         -0.004200803
   6343730.394 9   4941784.72346  22474658.313    22474658.9164   22474667.2854
     -2039.930       -1589.556
   8237913.798 9   6416698.628 8  22455349.093    22455349.443    22455357.765
     -2261.305       -1762.056
  -4600720.141 9  -3575979.01848  20742166.784    20742167.9564   20742175.2284
      -741.725        -577.967
  -5954191.428 8  -4619272.00246  23493549.762    23493550.7014   23493558.6264
      4528.068        3528.365
   1309378.958 9   1021034.04748  21305318.001    21305318.9004   21305325.7854
      -595.725        -464.201
  -8487804.588 9  -6442727.78548  19462823.396    19462824.1184   19462830.8134
       970.373         756.135
 -17418708.226 9 -13531761.54748  19048842.120    19048842.9424   19048849.0164
      1877.213        1462.763
  -7674857.966 9  -5961599.54347  22702168.810    22702170.2634   22702177.1164
       -74.249         -57.856
 -16112340.787 9 -12541917.94747  21360059.123    21360059.7734   21360066.3274
      1502.098        1170.466
 96 10 30 17 53 59.9950000  0  9 17 28  3 25 23 21  1  9 31         -0.004225066
   6405034.091 9   4989553.77646  22486324.784    22486324.6854   22486332.9134
     -2046.541       -1594.707
   8305793.890 9   6469592.136 8  22468265.227    22468266.706    22468275.091
     -2263.559       -1763.812
  -4578233.918 9  -3558457.31748  20746445.490    20746446.9104   20746454.2604
      -756.746        -589.672
  -6090056.566 8  -4725140.87346  23467695.111    23467696.5364   23467704.3974
      4530.122        3529.965
   1327318.018 9   1035012.49848  21308731.699    21308732.6184   21308739.4814
      -599.632        -467.246
  -8516793.295 9  -6465316.40548  19457307.009    19457307.7784   19457314.4144
       962.829         750.256
 -17474757.717 9 -13575436.47748  19038176.326    19038177.1174   19038183.1894
      1859.918        1449.287
  -7672346.939 9  -5959642.90547  22702646.498    22702647.9904   22702655.1284
       -92.705         -72.238
 -16157113.994 9 -12576806.18147  21351539.095    21351539.7744   21351546.2594
      1483.163        1155.711
 96 10 30 17 54 29.9950000  0  9 17 28  3 25 23 21  1  9 31         -0.004249316
   6466527.405 9   5037470.56546  22498026.401    22498026.7474   22498034.7384
     -2052.061       -1599.009
   8373736.097 9   6522534.018 8  22481195.430    22481195.657    22481204.352
     -2264.884       -1764.845
  -4555305.192 9  -3540590.81748  20750808.946    20750810.1314   20750817.4724
      -770.992        -600.773
  -6225986.941 8  -4831060.59446  23441828.132    23441829.8034   23441837.7484
      4532.846        3532.088
   1345369.755 9   1049078.73948  21312167.178    21312167.7874   21312174.7104
      -602.664        -469.608
  -8545565.517 9  -6487736.34448  19451831.917    19451832.6204   19451839.2074
       956.265         745.142
 -17530294.744 9 -13618712.08648  19027607.775    19027608.7714   19027614.9204
      1843.573        1436.550
  -7669280.938 9  -5957253.85547  22703230.137    22703231.3994   22703238.4074
      -110.677         -86.242
 -16201320.032 9 -12611252.45748  21343127.546    21343127.7374   21343134.2944
      1464.676        1141.306
 96 10 30 17 54 59.9950000  0  9 17 28  3 25 23 21  1  9 31         -0.004273565
   6528185.200 9   5085515.51346  22509759.418    22509760.0204   22509767.8864
     -2058.491       -1604.019
   8441712.255 9   6575502.389 8  22494131.238    22494131.081    22494139.824
     -2266.858       -1766.383
  -4531948.094 9  -3522390.52548  20755253.605    20755254.8764   20755262.1784
      -786.074        -612.525
  -6361994.183 8  -4937040.22146  23415947.192    23415948.3574   23415956.3564
      4534.215        3533.155
   1363502.351 9   1063208.00248  21315617.358    21315618.3274   21315625.2874
      -606.188        -472.354
  -8574141.875 9  -6510003.65148  19446394.009    19446394.6994   19446401.3174
       948.853         739.366
 -17585343.874 9 -13661607.51348  19017132.203    19017133.2514   19017139.5014
      1826.413        1423.179
  -7665681.628 9  -5954449.23747  22703915.031    22703916.2784   22703923.4064
      -129.156        -100.641
 -16244957.575 9 -12645255.76948  21334823.392    21334823.7354   21334830.4924
      1444.451        1125.546
 96 10 30 17 55 29.9950000  0  9 17 28  3 25 23 21  1  9 31         -0.004297769
   6590069.369 8   5133736.90846  22521535.903    22521536.0444   22521543.7874
     -2067.133       -1610.753
   8509780.469 9   6628542.462 8  22507083.717    22507084.081    22507092.882
     -2270.883       -1769.519
  -4508105.129 9  -3503811.63048  20759790.329    20759792.0804   20759799.2534
      -803.150        -625.831
  -6498003.947 8  -5043021.78246  23390064.699    23390066.4794   23390074.8614
      4533.330        3532.465
   1381781.923 9   1077451.79148  21319095.803    21319096.8724   21319103.7804
      -612.229        -477.062
  -8602460.445 9  -6532070.09248  19441005.097    19441005.8174   19441012.5104
       939.125         731.786
 -17639843.689 9 -13704074.90848  19006761.268    19006762.2314   19006768.5814
      1807.001        1408.053
  -7661500.747 9  -5951191.46747  22704710.957    22704711.9724   22704719.0154
      -149.369        -116.391
 -16287951.614 9 -12678757.63848  21326641.708    21326642.1964   21326649.0464
      1421.991        1108.045
 96 10 30 17 55 59.9950000  0  9 17 28  3 25 23 21  1  9 31         -0.004321939
   6652197.145 9   5182148.11246  22533357.900    22533358.3224   22533366.2004
     -2075.035       -1616.910
   8577935.416 9   6681650.139 8  22520052.333    22520053.634    22520062.375
     -2273.078       -1771.230
  -4483795.577 9  -3484869.16548  20764416.413    20764418.0534   20764425.1454
      -817.802        -637.248
  -6634022.500 9  -5149010.25146  23364181.375    23364182.9234   23364191.2334
      4534.391        3533.292
   1400200.840 9   1091804.14348  21322600.830    21322601.9164   21322608.8914
      -616.032        -480.025
  -8630514.800 9  -6553930.64948  19435666.474    19435667.2594   19435673.9724
       930.988         725.445
 -17693790.509 9 -13746111.39848  18996495.783    18996496.4904   18996502.8984
      1789.327        1394.281
  -7656752.811 9  -5947491.83247  22705614.750    22705615.6084   22705622.6704
      -167.278        -130.346
 -16330317.241 9 -12711769.84647  21318579.611    21318580.3244   21318587.2234
      1402.130        1092.569
 96 10 30 17 56 29.9950000  0  9 17 28  3 25 23 21  1  9 31         -0.004346100
   6714548.769 9   5230733.70346  22545222.811    22545223.4544   22545231.3344
     -2082.307       -1622.577
   8646137.114 9   6734794.252 8  22533031.024    22533032.096    22533040.805
     -2274.300       -1772.182
  -4459062.509 9  -3465596.68448  20769123.153    20769124.6494   20769131.7294
      -831.796        -648.153
  -6770098.564 9  -5255043.50046  23338287.490    23338288.4834   23338296.6934
      4536.660        3535.060
   1418716.148 9   1106231.62048  21326124.672    21326125.3234   21326132.3264
      -618.898        -482.258
  -8658341.215 9  -6575613.58748  19430371.349    19430372.0834   19430378.7584
       923.599         719.688
 -17747227.496 9 -13787750.60948  18986326.948    18986327.7654   18986334.2334
      1772.481        1381.154
  -7651491.715 9  -5943392.31047  22706615.357    22706616.8424   22706623.9394
      -184.054        -143.419
 -16372099.733 9 -12744327.64848  21310628.516    21310629.3964   21310636.2754
      1382.824        1077.525
 96 10 30 17 56 59.9950000  0  9 17 28  3 25 23 21  1  9 31         -0.004370250
   6777154.220 9   5279517.11146  22557135.779    22557136.7854   22557144.6004
     -2091.293       -1629.579
   8714403.911 9   6787989.084 8  22546021.843    22546022.815    22546031.451
     -2276.767       -1774.104
  -4433885.506 9  -3445978.28448  20773914.647    20773915.7994   20773922.8004
      -846.491        -659.603
  -6906207.456 9  -5361102.35646  23312386.785    23312387.7344   23312396.0304
      4537.410        3535.644
   1437335.825 9   1120740.41548  21329667.613    21329668.5464   21329675.5974
      -622.361        -484.957
  -8685920.282 9  -6597103.79148  19425123.279    19425124.0004   19425130.6044
       915.167         713.117
 -17800123.019 9 -13828967.90248  18976261.205    18976262.0264   18976268.5884
      1754.052        1366.794
  -7645708.002 9  -5938885.58747  22707716.074    22707717.3324   22707724.6124
      -201.473        -156.992
 -16413277.192 9 -12776413.99748  21302792.684    21302793.6074   21302800.4424
      1362.580        1061.751
 96 10 30 17 57 29.9950000  0  9 17 28  3 25 23 21  1  9 31         -0.004394423
   6839974.711 9   5328468.07246  22569089.996    22569091.1314   22569099.2334
     -2097.497       -1634.413
   8782687.086 9   6841196.674 8  22559015.188    22559016.657    22559025.304
     -2276.222       -1773.679
  -4408320.357 9  -3426057.42748  20778779.487    20778780.7804   20778787.6924
      -858.665        -669.090
  -7042395.878 9  -5467223.19546  23286470.309    23286471.8584   23286480.2094
      4541.165        3538.570
   1456007.701 9   1135289.88848  21333220.791    21333221.7054   21333228.7824
      -623.096        -485.529
  -8713304.260 9  -6618441.97648  19419912.361    19419913.0314   19419919.5594
       909.776         708.916
 -17852530.043 9 -13869804.55548  18966288.474    18966289.2734   18966295.8414
      1738.952        1355.028
  -7639454.686 9  -5934012.90447  22708906.272    22708907.1384   22708914.7024
      -216.107        -168.395
 -16453920.599 9 -12808084.21547  21295058.451    21295059.4614   21295066.1604
      1346.159        1048.955
 96 10 30 17 57 59.9950000  0  9 17 28  3 25 23 21  1  9 31         -0.004418617
   6903009.425 9   5377585.97746  22581085.368    22581086.4274   22581094.4314
     -2104.734       -1640.052
   8850982.523 9   6894413.819 8  22572011.057    22572012.881    22572021.537
     -2276.761       -1774.099
  -4382355.796 9  -3405825.34248  20783720.365    20783721.6954   20783728.5664
      -872.484        -679.858
  -7178665.046 9  -5573406.93546  23260538.742    23260540.6524   23260548.9404
      4543.500        3540.390
   1474726.368 9   1149875.81548  21336782.966    21336783.7464   21336790.8144
      -624.989        -487.004
  -8740501.903 9  -6639634.96548  19414736.822    19414737.5264   19414744.0294
       903.527         704.047
 -17904454.585 9 -13910265.25248  18956407.604    18956408.4484   18956414.8664
      1722.753        1342.405
  -7632730.612 9  -5928773.42647  22710186.013    22710186.7654   22710194.4034
      -232.131        -180.881
 -16494035.117 9 -12839342.30347  21287425.142    21287425.9664   21287432.5334
      1327.835        1034.677
 96 10 30 17 58 29.9950000  0  9 17 28  3 25 23 21  1  9 31         -0.004442786
   6966303.153 9   5426905.69646  22593130.140    22593130.9194   22593139.2294
     -2113.544       -1646.917
   8919343.207 9   6947681.836 8  22585019.988    22585021.631    22585030.243
     -2279.358       -1776.123
  -4355922.293 9  -3385227.84748  20788750.681    20788751.8494   20788758.7244
      -888.540        -692.369
  -7314956.690 9  -5679608.21746  23234602.456    23234605.0144   23234613.2134
      4543.801        3540.624
   1493559.904 9   1164551.24448  21340366.667    21340367.6764   21340374.6904
      -629.497        -490.517
  -8767471.214 9  -6660650.02048  19409604.712    19409605.4984   19409611.9744
       895.581         697.855
 -17955843.387 9 -13950308.48048  18946628.887    18946629.5144   18946635.8714
      1704.258        1327.993
  -7625475.673 9  -5923120.26547  22711565.892    22711567.3364   22711574.9314
      -250.499        -195.194
 -16533542.478 9 -12870127.27547  21279907.201    21279907.9524   21279914.5764
      1307.084        1018.507
 96 10 30 17 58 59.9950000  0  9 17 28  3 25 23 21  1  9 31         -0.004466938
   7029820.427 9   5476399.60046  22605216.542    22605217.9224   22605226.3924
     -2120.291       -1652.175
   8987745.239 9   7000982.043 8  22598037.475    22598038.315    22598046.777
     -2280.098       -1776.700
  -4329047.022 9  -3364286.12948  20793864.567    20793866.0374   20793872.9684
      -902.491        -703.240
  -7451290.519 9  -5785842.37046  23208659.665    23208661.7564   23208669.4754
      4545.896        3542.257
   1512502.529 9   1179311.67848  21343971.249    21343972.3544   21343979.4104
      -632.867        -493.143
  -8794237.025 9  -6681506.51248  19404511.474    19404512.1804   19404518.5984
       889.340         692.992
 -18006709.943 9 -13989944.76448  18936949.172    18936949.9574   18936956.2834
      1687.563        1314.984
  -7617699.595 9  -5917061.03546  22713046.193    22713047.1804   22713054.6984
      -267.336        -208.314
 -16572459.521 9 -12900452.27447  21272501.401    21272502.3214   21272508.9374
      1287.979        1003.620
 96 10 30 17 59 29.9950000  0  9 17 28  3 25 23 21  1  9 31         -0.004491065
   7093560.991 9   5526067.48746  22617346.595    22617347.3764   22617355.8894
     -2127.608       -1657.876
   9056187.410 9   7054313.527 8  22611061.828    22611062.593    22611070.896
     -2281.277       -1777.618
  -4301726.023 9  -3342997.07848  20799063.743    20799065.0544   20799071.9874
      -917.402        -714.859
  -7587671.918 9  -5892113.57746  23182708.121    23182709.4154   23182716.9174
      4547.651        3543.624
   1531582.286 9   1194178.97948  21347602.351    21347603.2274   21347610.2754
      -637.685        -496.897
  -8820795.368 9  -6702201.34748  19399457.625    19399458.2704   19399464.7254
       882.626         687.760
 -18057054.322 9 -14029174.15948  18927368.924    18927369.7494   18927376.0834
      1669.946        1301.257
  -7609398.242 9  -5910592.48646  22714626.010    22714626.8874   22714634.3274
      -284.596        -221.763
 -16610774.482 9 -12930308.10747  21265210.017    21265211.2184   21265217.8404
      1267.653         987.782
 96 10 30 17 59 59.9950000  0  9 17 28  3 25 23 21  1  9 31         -0.004515191
   7157496.308 9   5575887.16146  22629513.147    22629514.1604   22629522.4214
     -2134.898       -1663.557
   9124642.636 9   7107655.197 8  22624088.580    22624089.320    22624097.574
     -2282.394       -1778.489
  -4273993.019 9  -3321386.98348  20804340.898    20804342.4844   20804349.4024
      -931.520        -725.860
  -7724127.338 9  -5998442.47446  23156740.830    23156742.8494   23156750.2434
      4549.292        3544.903
   1550782.547 9   1209140.18148  21351255.853    21351256.9604   21351263.9434
      -642.418        -500.585
  -8847171.104 9  -6722753.87648  19394438.400    19394439.1534   19394445.5794
       875.582         682.272
 -18106877.666 9 -14067997.54648  18917887.833    18917888.6534   18917895.0684
      1651.671        1287.016
  -7600605.765 9  -5903741.26847  22716298.278    22716299.9704   22716307.5404
      -301.558        -234.980
 -16648491.724 9 -12959698.17847  21258032.530    21258033.8644   21258040.4894
      1246.831         971.557
 96 10 30 18  0 29.9950000  0  9 17 28  3 25 23 21  1  9 31         -0.004539312
   7221640.744 9   5625869.76346  22641719.867    22641720.6984   22641729.0264
     -2142.088       -1669.159
   9193117.327 9   7161012.058 8  22637118.803    22637119.652    22637127.711
     -2283.414       -1779.284
  -4245854.527 9  -3299460.92448  20809695.399    20809697.0894   20809704.0144
      -945.173        -736.498
  -7860646.469 9  -6104821.01746  23130762.126    23130764.2614   23130771.6414
      4550.930        3546.179
   1570110.316 9   1224200.71648  21354934.061    21354934.9384   21354941.9264
      -646.844        -504.034
  -8873346.874 9  -6743150.60648  19389457.345    19389458.0674   19389464.4584
       868.399         676.675
 -18156170.458 9 -14106407.52448  18908507.773    18908508.5464   18908514.9824
      1633.662        1272.983
  -7591322.593 9  -5896507.67747  22718065.444    22718066.5804   22718074.1244
      -318.385        -248.092
 -16685610.534 9 -12988621.95547  21250969.451    21250970.4194   21250977.0784
      1226.907         956.031
 96 10 30 18  0 59.9950000  0  9 17 28  3 25 23 21  1  9 31         -0.004563414
   7286017.164 8   5676033.11846  22653971.085    22653971.2774   22653979.6314
     -2149.056       -1674.589
   9261640.911 9   7214406.977 8  22650158.233    22650159.343    22650167.326
     -2284.066       -1779.792
  -4217289.584 9  -3277202.57248  20815131.371    20815132.8554   20815139.7904
      -958.391        -746.798
  -7997185.248 9  -6211214.82046  23104780.489    23104781.8124   23104789.1424
      4552.392        3547.318
   1589584.562 9   1239375.41148  21358639.755    21358640.8284   21358647.7124
      -650.548        -506.921
  -8899279.680 9  -6763358.00248  19384522.456    19384523.2554   19384529.5964
       861.143         671.021
 -18204904.330 9 -14144381.97948  18899234.063    18899234.8164   18899241.1884
      1616.001        1259.222
  -7581511.434 9  -5888862.68547  22719932.784    22719933.8094   22719941.1884
      -334.930        -260.984
 -16722113.284 9 -13017065.68547  21244023.368    21244024.1164   21244030.8704
      1207.378         940.814
 96 10 30 18  1 29.9950000  0  9 17 28  3 25 23 21  1  9 31         -0.004587529
   7350597.381 9   5726355.27246  22666260.271    22666260.3884   22666268.9244
     -2156.704       -1680.549
   9330175.850 9   7267810.742 8  22663199.843    22663201.200    22663209.210
     -2285.414       -1780.842
  -4188339.589 9  -3254644.18348  20820640.597    20820641.8244   20820648.8334
      -971.983        -757.389
  -8133768.154 8  -6317643.01946  23078789.308    23078790.9804   23078798.2434
      4552.653        3547.522
   1609154.255 9   1254624.49048  21362363.893    21362364.8604   21362371.6764
      -654.436        -509.950
  -8924997.528 9  -6783397.90148  19379628.641    19379629.3174   19379635.6974
       852.905         664.601
 -18253115.622 9 -14181949.23548  18890059.848    18890060.5264   18890066.8864
      1597.610        1244.891
  -7571214.981 9  -5880839.53346  22721892.173    22721893.2324   22721900.5504
      -351.982        -274.272
 -16758042.627 9 -13045062.59447  21237185.880    21237186.9884   21237193.9624
      1187.320         925.184
 96 10 30 18  1 59.9950000  0  9 17 28  3 25 23 21  1  9 31         -0.004611650
   7415370.590 9   5776827.84046  22678585.785    22678586.2344   22678594.7984
     -2161.100       -1683.974
   9398722.607 9   7321223.747 8  22676244.733    22676245.305    22676253.206
     -2283.869       -1779.638
  -4159016.877 9  -3231795.35148  20826220.465    20826221.8314   20826228.7364
      -982.573        -765.641
  -8270387.225 9  -6424099.37646  23052791.668    23052793.0454   23052800.4924
      4555.838        3550.004
   1628802.377 9   1269934.66548  21366102.786    21366103.6914   21366110.7024
      -654.981        -510.375
  -8950487.218 9  -6803260.01248  19374778.126    19374778.8414   19374785.2344
       846.890         659.914
 -18300813.569 9 -14219116.46848  18880982.968    18880983.9104   18880990.3024
      1582.926        1233.449
  -7560425.955 9  -5872432.55646  22723945.604    22723946.3494   22723953.5064
      -366.875        -285.877
 -16793400.670 9 -13072614.34847  21230457.450    21230458.4684   21230465.6604
      1170.251         911.884
 96 10 30 18  2 29.9950000  0  9 17 28  3 25 23 21  1  9 31         -0.004635763
   7480331.741 9   5827446.82146  22690946.990    22690947.7904   22690956.6084
     -2168.213       -1689.517
   9467283.538 9   7374647.770 8  22689291.554    22689292.045    22689300.010
     -2285.489       -1780.901
  -4129305.702 9  -3208643.83648  20831874.485    20831875.7644   20831882.6564
      -996.800        -776.727
  -8407040.602 9  -6530582.45446  23026787.212    23026788.5284   23026796.1934
      4555.735        3549.923
   1648528.014 9   1285305.22448  21369856.385    21369857.3134   21369864.5844
      -658.783        -513.337
  -8975738.175 9  -6822936.10348  19369973.110    19369973.8214   19369980.1994
       837.868         652.884
 -18348014.977 9 -14255896.80448  18872000.641    18872001.7204   18872008.2324
      1564.959        1219.448
  -7549117.980 9  -5863621.20246  22726097.515    22726098.2034   22726105.4484
      -385.736        -300.574
 -16828185.239 9 -13099719.24047  21223838.593    21223839.2584   21223846.4744
      1149.886         896.015
 96 10 30 18  2 59.9950000  0  9 17 28  3 25 23 21  1  9 31         -0.004659872
   7545474.047 9   5878206.99646  22703343.107    22703344.1924   22703352.6374
     -2173.659       -1693.760
   9535851.915 9   7428077.589 8  22702339.581    22702340.285    22702348.234
     -2284.676       -1780.267
  -4099204.550 9  -3185188.44248  20837602.662    20837603.8844   20837610.8064
     -1008.956        -786.199
  -8543728.734 9  -6637092.63846  23000776.613    23000777.5964   23000785.1974
      4558.016        3551.701
   1668328.657 9   1300734.24348  21373624.179    21373625.2654   21373632.4724
      -660.225        -514.461
  -9000755.495 9  -6842430.13948  19365212.545    19365213.2344   19365219.5614
       831.135         647.638
 -18394707.380 9 -14292280.50348  18863115.164    18863116.3564   18863123.0434
      1548.946        1206.971
  -7537281.616 9  -5854398.12847  22728349.513    22728350.7124   22728357.9264
      -402.197        -313.400
 -16862389.521 9 -13126371.95147  21217329.652    21217330.3924   21217337.6824
      1131.398         881.609
 96 10 30 18  3 29.9950000  0  9 17 28  3 25 23 21  1  9 31         -0.004683995
   7610779.382 8   5929094.23246  22715770.874    22715771.4334   22715779.8424
     -2180.104       -1698.782
   9604387.090 9   7481481.550 8  22715381.677    22715382.063    22715390.126
     -2284.517       -1780.143
  -4068741.030 9  -3161450.67748  20843399.535    20843400.9004   20843407.8264
     -1022.275        -796.578
  -8680495.243 9  -6743663.88246  22974750.827    22974751.8454   22974759.3084
      4559.618        3552.949
   1688168.867 9   1316194.10847  21377399.805    21377400.8284   21377407.8024
      -662.784        -516.455
  -9025586.318 9  -6861778.84848  19360487.450    19360488.0664   19360494.3784
       824.078         642.139
 -18440928.892 9 -14328297.27048  18854319.459    18854320.6884   18854327.4364
      1532.306        1194.005
  -7524961.308 9  -5844797.95547  22730694.149    22730695.4054   22730702.5254
      -419.459        -326.851
 -16896048.486 9 -13152599.74348  21210924.532    21210925.3854   21210932.6614
      1112.202         866.651
 96 10 30 18  3 59.9950000  0  9 17 28  3 25 23 21  1  9 31         -0.004708101
   7676281.037 9   5980134.37846  22728235.446    22728235.8774   22728244.4374
     -2186.787       -1703.990
   9672924.011 9   7534886.884 8  22728423.514    22728424.192    22728432.190
     -2284.490       -1780.122
  -4037861.206 9  -3137388.51248  20849275.909    20849277.1194   20849284.0844
     -1036.351        -807.546
  -8817307.266 8  -6850270.55446  22948715.850    22948717.3204   22948724.7474
      4561.168        3554.157
   1708099.836 9   1331724.68348  21381192.544    21381193.6434   21381200.5524
      -665.917        -518.896
  -9050199.409 9  -6880957.89548  19355803.691    19355804.3304   19355810.6204
       816.910         636.553
 -18486647.783 9 -14363922.38348  18845619.701    18845620.6964   18845627.4964
      1515.718        1181.079
  -7512108.452 9  -5834782.82146  22733140.226    22733141.3044   22733148.4284
      -437.219        -340.690
 -16929124.668 9 -13178373.41748  21204630.192    21204631.2394   21204638.4984
      1093.125         851.786
 96 10 30 18  4 29.9950000  0 10 17 28  3 25 23 15 21  1  9 31      -0.004732186
   7742002.322 8   6031345.65846  22740741.513    22740742.3784   22740751.1044
     -2194.757       -1710.200
   9741470.999 9   7588300.048 8  22741467.819    22741468.332    22741476.117
     -2285.461       -1780.879
  -4006547.484 9  -3112988.24948  20855234.658    20855235.9054   20855242.9034
     -1051.207        -819.122
  -8954141.145 9  -6956894.27146  22922676.592    22922678.5564   22922686.0184
      4560.813        3553.880
   1728149.211 9   1347347.52048  21385007.714    21385009.0024   21385015.9184
      -670.915        -522.791
   -455876.89119   -325474.41855  23328342.942    23328340.3895   23328350.5775
      4841.392        3772.513
  -9074589.830 9  -6899963.43248  19351162.400    19351163.0044   19351169.2284
       808.898         630.310
 -18531846.777 9 -14399142.38948  18837018.668    18837019.7224   18837026.4124
      1497.392        1166.799
  -7498721.850 9  -5824351.76946  22735687.766    22735688.5664   22735695.6794
      -455.174        -354.681
 -16961624.495 9 -13203697.99348  21198445.420    21198446.7764   21198453.9914
      1073.253         836.301
 96 10 30 18  4 59.9950000  0 10 17 28  3 25 23 15 21  1  9 31      -0.004756253
   7807946.315 8   6082730.49546  22753290.468    22753291.1884   22753299.8304
     -2201.369       -1715.352
   9810025.610 9   7641719.134 8  22754513.281    22754513.813    22754521.541
     -2284.751       -1780.325
  -3974814.399 9  -3088261.22048  20861273.366    20861274.5474   20861281.5694
     -1064.189        -829.238
  -9090979.095 9  -7063521.19046  22896637.245    22896639.2944   22896646.6424
      4561.840        3554.681
   1748328.069 9   1363071.24548  21388847.622    21388848.9834   21388855.8964
      -674.286        -525.418
   -601121.972 9   -438652.45555  23300705.093    23300703.6595   23300711.5445
      4841.619        3772.690
  -9098755.945 9  -6918794.19548  19346563.748    19346564.3744   19346570.5634
       802.256         625.135
 -18576525.920 9 -14433957.31448  18828516.606    18828517.6594   18828524.2494
      1481.505        1154.419
  -7484830.007 9  -5813527.00346  22738330.620    22738332.0554   22738339.3804
      -470.692        -366.773
 -16993547.646 9 -13228573.20347  21192371.004    21192372.1014   21192379.1704
      1054.943         822.034
 96 10 30 18  5 29.9950000  0 10 17 28  3 25 23 15 21  1  9 31      -0.004780311
   7874082.224 8   6134264.86846  22765875.675    22765876.5824   22765885.1284
     -2208.123       -1720.615
   9878564.501 9   7695126.021 8  22767556.119    22767556.366    22767564.020
     -2285.046       -1780.555
  -3942696.532 9  -3063234.35848  20867385.204    20867386.3994   20867393.4574
     -1077.498        -839.609
  -9227836.413 9  -7170163.16246  22870594.469    22870596.3224   22870603.6904
      4561.404        3554.341
   1768622.553 9   1378885.06647  21392709.938    21392710.9934   21392717.8254
      -679.212        -529.256
   -746364.464 9   -551828.43046  23273065.324    23273065.0034   23273072.9314
      4840.574        3771.876
  -9122713.763 9  -6937462.64448  19342004.625    19342005.3674   19342011.5334
       794.393         619.008
 -18620722.295 9 -14468396.05248  18820106.263    18820107.3834   18820113.9444
      1464.327        1141.034
  -7470467.827 9  -5802335.78246  22741064.023    22741065.0754   22741072.5614
      -487.263        -379.685
 -17024918.726 9 -13253018.24148  21186401.430    21186402.4064   21186409.4134
      1035.753         807.080
 96 10 30 18  5 59.9950000  0 10 17 28  3 25 23 15 21  1  9 31      -0.004804358
   7940406.853 8   6185946.28946  22778496.777    22778497.7994   22778506.4244
     -2213.622       -1724.900
   9947100.262 9   7748530.425 8  22780598.308    22780598.374    22780605.997
     -2284.085       -1779.806
  -3910199.686 9  -3037912.17648  20873569.099    20873570.3454   20873577.4274
     -1089.021        -848.588
  -9364684.101 9  -7276797.62446  22844553.125    22844554.8804   22844562.3994
      4561.747        3554.608
   1789051.260 9   1394803.48248  21396597.681    21396598.5114   21396605.3734
      -682.625        -531.916
   -891587.301 9   -664989.11445  23245429.570    23245429.9594   23245437.8704
      4840.745        3772.009
  -9146443.100 9  -6955953.05048  19337489.078    19337489.8444   19337496.0014
       787.537         613.665
 -18664410.165 9 -14502438.55648  18811792.794    18811793.8704   18811800.3454
      1448.086        1128.379
  -7455622.451 9  -5790768.03746  22743889.252    22743890.1434   22743897.6554
      -502.337        -391.431
 -17055718.604 9 -13277018.16447  21180540.318    21180541.4134   21180548.3434
      1017.377         792.761
 96 10 30 18  6 29.9950000  0 10 17 28  3 25 23 15 21  1  9 31      -0.004828414
   8006895.251 8   6237755.35146  22791149.443    22791150.2864   22791159.0474
     -2219.444       -1729.437
  10015608.891 9   7801913.692 8  22793634.868    22793635.235    22793642.971
     -2283.832       -1779.609
  -3877364.737 9  -3012326.54648  20879817.375    20879818.6234   20879825.7874
     -1100.688        -857.679
  -9501532.077 9  -7383432.34746  22818511.330    22818513.5464   22818521.0414
      4560.980        3554.010
   1809582.212 9   1410801.56447  21400504.904    21400505.4774   21400512.3284
      -686.627        -535.034
  -1036809.676 9   -778149.43246  23217795.041    23217795.1344   23217802.8324
      4840.031        3771.453
  -9169963.921 9  -6974280.99148  19333013.263    19333014.0034   19333020.2444
       779.965         607.765
 -18707601.337 9 -14536094.03548  18803573.803    18803574.8824   18803581.2664
      1430.738        1114.861
  -7440324.194 9  -5778847.38746  22746800.318    22746801.3404   22746808.8204
      -518.227        -403.813
 -17085954.442 9 -13300578.59947  21174786.552    21174787.7554   21174794.5704
       997.527         777.294
 96 10 30 18  6 59.9950000  0 10 17 28  3 25 23 15 21  1  9 31      -0.004852470
   8073549.969 8   6289694.02345  22803832.328    22803833.9364   22803843.1314
     -2224.990       -1733.758
  10084095.694 9   7855279.959 8  22806667.762    22806667.920    22806675.725
     -2282.687       -1778.717
  -3844187.133 9  -2986473.90648  20886131.165    20886132.2234   20886139.3654
     -1112.017        -866.507
  -9638372.456 9  -7490061.13746  22792471.743    22792473.6874   22792481.2734
      4561.059        3554.072
   1830213.604 9   1426877.92147  21404430.782    21404431.5144   21404438.3474
      -689.495        -537.269
  -1182021.289 9   -891301.34345  23190161.765    23190162.3824   23190170.1504
      4839.993        3771.423
  -9193272.750 9  -6992443.74248  19328577.865    19328578.4664   19328584.8304
       773.275         602.552
 -18750282.900 9 -14569352.40348  18795451.866    18795452.8044   18795459.2044
      1413.944        1101.774
  -7424551.872 9  -5766557.32546  22749801.283    22749802.7894   22749810.1904
      -534.158        -416.227
 -17115605.001 9 -13323682.96747  21169144.278    21169145.5384   21169152.1844
       978.563         762.517
 96 10 30 18  7 29.9950000  0 10 17 28  3 25 23 15 21  1  9 31      -0.004876522
   8140386.928 8   6341774.64145  22816551.137    22816552.4224   22816562.1994
     -2230.141       -1737.772
  10152566.042 9   7908633.386 8  22819697.248    22819697.476    22819705.330
     -2281.200       -1777.558
  -3810651.170 9  -2960342.02748  20892512.648    20892514.0024   20892521.1364
     -1123.051        -875.105
  -9775196.626 9  -7596677.30546  22766435.286    22766436.8684   22766444.3434
      4561.340        3554.291
   1850950.294 9   1443036.33647  21408376.794    21408377.5844   21408384.4754
      -692.094        -539.294
  -1327211.954 9  -1004436.94946  23162533.353    23162533.5994   23162541.5684
      4840.185        3771.573
  -9216371.978 9  -7010443.16248  19324182.218    19324182.8214   19324189.2404
       767.360         597.943
 -18792435.153 9 -14602198.32248  18787430.379    18787431.4334   18787437.8794
      1396.968        1088.546
  -7408270.570 9  -5753870.65746  22752899.388    22752901.0034   22752908.4404
      -550.458        -428.928
 -17144676.395 9 -13346336.03247  21163612.694    21163613.4484   21163620.1114
       960.345         748.321
 96 10 30 18  7 59.9950000  0 10 17 28  3 25 23 15 21  1  9 31      -0.004900593
   8207380.321 8   6393977.19445  22829300.278    22829301.1184   22829310.1854
     -2236.035       -1742.365
  10220981.833 8   7961944.334 8  22832715.748    22832716.679    22832724.370
     -2279.866       -1776.519
  -3776785.141 9  -2933952.95048  20898957.136    20898958.5344   20898965.6574
     -1134.833        -884.285
  -9912044.830 9  -7703312.21146  22740394.028    22740395.4354   22740402.8754
      4561.918        3554.741
   1871742.576 9   1459238.05847  21412333.469    21412334.2504   21412341.1284
      -694.210        -540.943
  -1472415.398 9  -1117582.48546  23134901.666    23134902.1414   23134910.4424
      4839.957        3771.395
  -9239305.943 9  -7028313.81148  19319817.980    19319818.6244   19319825.1134
       761.294         593.216
 -18834099.562 9 -14634664.11148  18779501.818    18779502.9634   18779509.4414
      1380.580        1075.777
  -7391507.910 9  -5740808.90546  22756089.915    22756090.8384   22756098.3054
      -567.035        -441.845
 -17173217.383 9 -13368575.79947  21158181.547    21158182.3144   21158188.9274
       942.397         734.335
 96 10 30 18  8 29.9950000  0 10 17 28  3 25 23 15 21  1  9 31      -0.004924664
   8274567.533 8   6446330.78646  22842084.709    22842086.6644   22842095.6464
     -2242.568       -1747.456
  10289376.263 9   8015238.622 8  22845730.923    22845731.847    22845739.421
     -2279.193       -1775.995
  -3742547.170 9  -2907274.03948  20905472.774    20905473.8944   20905480.9724
     -1147.275        -893.981
 -10048892.870 9  -7809946.96046  22714353.344    22714354.0824   22714361.5174
      4561.797        3554.647
   1892621.975 9   1475507.66447  21416306.941    21416307.4614   21416314.4324
      -697.294        -543.346
  -1617593.819 9  -1230708.52945  23107275.093    23107275.6274   23107284.0164
      4839.039        3770.680
  -9262033.739 9  -7046023.80548  19315493.064    19315493.6594   19315500.1614
       754.479         587.906
 -18875254.468 9 -14666732.88048  18771670.386    18771671.3814   18771677.9434
      1363.597        1062.543
  -7374228.304 9  -5727344.34446  22759377.636    22759378.9984   22759386.5524
      -584.332        -455.324
 -17201210.057 9 -13390388.30747  21152854.359    21152855.4854   21152862.1034
       924.344         720.268
 96 10 30 18  8 59.9950000  0 10 17 28  3 25 23 15 21  1  9 31      -0.004948737
   8341955.118 8   6498840.47445  22854909.060    22854910.1194   22854919.3304
     -2249.312       -1752.711
  10357744.073 8   8068512.181 8  22858740.490    22858741.882    22858749.406
     -2278.022       -1775.082
  -3707937.633 9  -2880305.61748  20912058.915    20912059.9014   20912067.0144
     -1159.387        -903.418
 -10185745.474 9  -7916585.31446  22688311.094    22688311.9424   22688319.2114
      4562.301        3555.040
   1913585.390 9   1491842.73148  21420295.930    21420296.6864   21420303.7594
      -699.679        -545.204
  -1762747.285 9  -1343815.13046  23079652.883    23079653.9534   23079662.1454
      4838.471        3770.237
  -9284565.852 9  -7063581.32048  19311205.302    19311205.9544   19311212.4814
       748.104         582.938
 -18915907.324 9 -14698410.44748  18763934.427    18763935.4674   18763941.9214
      1347.260        1049.813
  -7356440.065 9  -5713483.44246  22762761.874    22762763.9824   22762771.4354
      -600.836        -468.184
 -17228673.970 9 -13411788.78747  21147628.209    21147629.2994   21147635.8864
       907.076         706.812
 96 10 30 18  9 29.9950000  0 10 17 28  3 25 23 15 21  1  9 31      -0.004972819
   8409520.977 8   6551489.12646  22867767.267    22867767.7544   22867776.4194
     -2255.202       -1757.300
  10426066.034 9   8121749.997 8  22871741.814    22871743.099    22871750.695
     -2276.800       -1774.130
  -3672978.447 9  -2853064.72848  20918711.482    20918712.5164   20918719.5894
     -1171.092        -912.539
 -10322625.397 9  -8023244.93546  22662264.053    22662264.5664   22662271.7604
      4563.052        3555.625
   1934612.394 9   1508227.35447  21424297.277    21424298.0864   21424305.0654
      -702.014        -547.024
  -1907890.034 9  -1456913.42446  23052033.830    23052034.1924   23052042.2614
      4837.635        3769.586
  -9306911.942 9  -7080993.88348  19306953.133    19306953.7134   19306960.2034
       741.606         577.875
 -18956085.328 9 -14729717.99148  18756289.087    18756289.9064   18756296.3214
      1331.253        1037.340
  -7338176.671 9  -5699252.29146  22766237.741    22766239.5274   22766246.7914
      -616.595        -480.464
 -17255621.080 9 -13432786.56547  21142500.907    21142501.5104   21142508.0344
       889.175         692.864
 96 10 30 18  9 59.9950000  0 10 17 28  3 25 23 15 21  1  9 31      -0.004996907
   8477264.615 8   6604276.23845  22880659.160    22880659.0944   22880667.7544
     -2261.532       -1762.233
  10494353.260 9   8174960.735 8  22884736.545    22884737.789    22884745.487
     -2276.163       -1773.634
  -3637668.143 9  -2825550.25148  20925431.035    20925431.9264   20925438.9894
     -1183.400        -922.130
 -10459525.893 9  -8129920.56946  22636212.780    22636213.1404   22636220.3924
      4563.021        3555.601
   1955704.968 9   1524663.04247  21428311.333    21428311.9154   21428318.9634
      -704.954        -549.315
  -2053006.190 9  -1569990.92746  23024418.951    23024419.5134   23024427.6614
      4836.160        3768.436
  -9329054.305 9  -7098247.69749  19302739.702    19302740.2394   19302746.7224
       733.874         571.850
 -18995781.905 9 -14760650.40448  18748735.382    18748735.9724   18748742.3464
      1314.393        1024.202
  -7319443.707 9  -5684655.23246  22769803.032    22769804.3694   22769811.6474
      -632.745        -493.048
 -17282022.470 9 -13453359.11047  21137476.767    21137477.5174   21137484.2264
       870.123         678.018
 96 10 30 18 10 29.9950000  0 10 17 28  3 25 23 15 21  1  9 31      -0.005020993
   8545185.667 8   6657201.66646  22893583.515    22893584.4844   22893592.1814
     -2266.324       -1765.967
  10562609.639 9   8228147.453 8  22897724.379    22897726.505    22897734.263
     -2273.870       -1771.847
  -3602007.415 9  -2797762.72148  20932216.924    20932218.0174   20932225.0914
     -1193.742        -930.189
 -10596430.996 9  -8236599.82746  22610161.079    22610160.9374   22610167.9954
      4564.221        3556.536
   1976885.148 9   1541167.02347  21432341.844    21432342.5304   21432349.3954
      -706.746        -550.711
  -2198087.001 9  -1683040.88345  22996811.419    22996811.6464   22996819.9824
      4836.158        3768.435
  -9350972.571 9  -7115326.89949  19298568.866    19298569.3614   19298575.8704
       727.724         567.058
 -19034971.977 9 -14791188.13748  18741277.532    18741278.3504   18741284.7524
      1298.579        1011.880
  -7300242.620 9  -5669693.37947  22773457.384    22773458.2854   22773465.6844
      -647.065        -504.206
 -17307847.924 9 -13473482.86647  21132562.017    21132563.1334   21132569.9074
       851.721         663.679
 96 10 30 18 10 59.9940000  0 10 17 28  3 25 23 15 21  1  9 31      -0.005045071
   8613287.635 8   6710268.02546  22906543.222    22906544.0524   22906551.8644
     -2273.564       -1771.608
  10630832.754 9   8281308.261 8  22910706.874    22910709.067    22910716.818
     -2274.102       -1772.028
  -3565995.893 9  -2769701.83948  20939069.781    20939070.8244   20939077.9834
     -1206.740        -940.317
 -10733327.422 9  -8343272.30346  22584109.844    22584110.1334   22584117.3774
      4562.837        3555.457
   1998154.693 9   1557740.63847  21436389.483    21436390.0234   21436396.7814
      -710.922        -553.965
  -2343122.967 9  -1796055.97846  22969212.284    22969212.1764   22969220.6254
      4833.560        3766.410
  -9372663.591 9  -7132229.01549  19294441.108    19294441.7174   19294448.2444
       718.582         559.934
 -19073649.428 9 -14821326.41948  18733917.594    18733918.2644   18733924.7194
      1280.339         997.667
  -7280572.246 9  -5654365.87847  22777200.353    22777201.4514   22777209.0054
      -664.040        -517.434
 -17333075.256 9 -13493140.55547  21127761.473    21127762.4904   21127769.3424
       830.379         647.048
 96 10 30 18 11 29.9940000  0 10 17 28  3 25 23 15 21  1  9 31      -0.005069148
   8681543.839 9   6763454.53046  22919532.627    22919532.9354   22919540.6794
     -2277.346       -1774.555
  10699007.050 8   8334430.997 8  22923680.074    22923682.198    22923690.110
     -2271.328       -1769.866
  -3529652.405 9  -2741382.28848  20945985.842    20945986.8214   20945993.9844
     -1216.550        -947.961
 -10870241.903 9  -8449958.83746  22558055.417    22558055.9244   22558063.4674
      4564.312        3556.607
   2019498.067 9   1574371.76347  21440451.298    21440451.6284   21440458.5204
      -712.592        -555.266
  -2488138.982 9  -1909055.41246  22941615.896    22941616.5414   22941625.1414
      4833.717        3766.533
  -9394132.790 9  -7148958.28949  19290355.632    19290356.2574   19290362.8374
       712.170         554.938
 -19111841.292 9 -14851086.33048  18726649.752    18726650.6014   18726657.0894
      1265.248         985.908
  -7260451.298 9  -5638687.28746  22781029.176    22781030.4224   22781037.9754
      -677.846        -528.192
 -17357721.971 9 -13512345.82547  21123071.373    21123072.3714   21123079.2714
       812.310         632.969
 96 10 30 18 11 59.9940000  0 10 17 28  3 25 23 15 21  1  9 31      -0.005093224
   8749968.279 9   6816772.18846  22932553.689    22932553.5864   22932561.5044
     -2283.646       -1779.464
  10767137.522 9   8387519.583 8  22936645.493    22936647.067    22936655.150
     -2270.246       -1769.023
  -3492975.232 9  -2712802.71748  20952965.454    20952966.2874   20952973.4404
     -1228.141        -956.993
 -11007154.071 9  -8556643.59746  22532001.259    22532002.4144   22532009.9804
      4563.507        3555.979
   2040940.390 9   1591080.01847  21444531.504    21444532.0794   21444538.9744
      -716.617        -558.403
  -2633118.490 9  -2022026.50846  22914026.830    22914027.8404   22914036.2984
      4832.030        3765.218
  -9415356.069 9  -7165495.93849  19286317.095    19286317.6564   19286324.2544
       703.192         547.942
 -19149532.372 9 -14880456.01248  18719477.447    18719478.2964   18719484.7424
      1247.889         972.381
  -7239874.077 9  -5622653.14646  22784944.800    22784946.0084   22784953.6104
      -693.547        -540.426
 -17381796.921 9 -13531105.56648  21118490.330    21118491.1534   21118498.0634
       793.095         617.996
 96 10 30 18 12 29.9940000  0 10 17 28  3 25 23 15 21  1  9 31      -0.005117282
   8818560.398 8   6870220.48446  22945605.737    22945606.3924   22945614.4744
     -2289.024       -1783.655
  10835219.601 9   8440570.472 8  22949600.821    22949602.806    22949611.004
     -2268.409       -1767.591
  -3455969.252 9  -2683966.94148  20960007.382    20960008.3404   20960015.4554
     -1238.790        -965.291
 -11144058.224 9  -8663322.09046  22505948.169    22505950.3584   22505957.9344
      4563.504        3555.977
   2062496.235 9   1607876.71347  21448633.276    21448634.0664   21448641.0674
      -720.048        -561.076
  -2778061.147 8  -2134968.85046  22886445.337    22886446.3414   22886454.8534
      4830.997        3764.413
  -9436328.101 9  -7181837.81049  19282326.200    19282326.8654   19282333.5304
       695.275         541.773
 -19186724.492 9 -14909436.89448  18712400.017    18712400.8794   18712407.3164
      1231.929         959.945
  -7218839.936 9  -5606262.98646  22788947.094    22788948.7094   22788956.2994
      -708.627        -552.177
 -17405314.614 9 -13549431.08748  21114015.011    21114015.9144   21114022.9164
       774.996         603.893
 96 10 30 18 12 59.9940000  0 10 17 28  3 25 23 15 21  1  9 31      -0.005141351
   8887324.725 8   6923802.95646  22958690.356    22958691.6764   22958699.9614
     -2294.656       -1788.044
  10903256.076 8   8493585.808 8  22962548.439    22962549.817    22962558.033
     -2266.646       -1766.218
  -3418631.866 9  -2654872.93048  20967112.835    20967113.4534   20967120.5524
     -1249.659        -973.760
 -11280940.612 9  -8769983.64346  22479900.731    22479902.4124   22479909.9164
      4562.601        3555.274
   2084163.563 9   1624760.26147  21452756.624    21452757.2434   21452764.3524
      -723.860        -564.047
  -2922959.431 9  -2247876.62246  22858872.309    22858873.2174   22858881.5564
      4829.537        3763.276
  -9457049.923 9  -7197984.72349  19278383.044    19278383.6834   19278390.3644
       686.863         535.218
 -19223429.826 9 -14938038.47148  18705415.399    18705416.1014   18705422.5404
      1215.652         947.261
  -7197341.003 9  -5589510.60946  22793037.797    22793039.7214   22793047.5324
      -723.999        -564.155
 -17428290.050 9 -13567334.06648  21109643.022    21109643.8764   21109650.9724
       757.341         590.136
 96 10 30 18 13 29.9940000  0 10 17 28  3 25 23 15 21  1  9 31      -0.005165413
   8956256.312 8   6977515.79645  22971808.248    22971808.8004   22971817.1144
     -2301.171       -1793.120
  10971241.823 9   8546561.644 8  22975486.232    22975487.262    22975495.451
     -2265.946       -1765.672
  -3380974.754 9  -2625529.77148  20974278.263    20974279.3324   20974286.4834
     -1261.123        -982.693
 -11417790.442 9  -8876619.80546  22453859.271    22453860.8064   22453868.3754
      4560.440        3553.590
   2105958.520 9   1641743.28947  21456904.303    21456904.7054   21456911.8744
      -729.462        -568.412
  -3067813.194 9  -2360749.66845  22831308.071    22831308.5444   22831316.8554
      4827.086        3761.366
  -9477525.694 9  -7213939.90249  19274486.721    19274487.3384   19274494.0194
       678.022         528.329
 -19259646.667 9 -14966259.39848  18698523.396    18698524.2704   18698530.7584
      1198.487         933.886
  -7175379.958 9  -5572398.15146  22797217.606    22797218.8804   22797226.6364
      -740.423        -576.953
 -17450741.631 9 -13584828.84048  21105370.537    21105371.5494   21105378.7374
       738.999         575.843
 96 10 30 18 13 59.9940000  0 10 17 28  3 25 23 15 21  1  9 31      -0.005189463
   9025366.987 8   7031368.14645  22984959.246    22984959.8054   22984968.5544
     -2306.774       -1797.486
  11039182.078 8   8599501.989 8  22988415.245    22988416.034    22988424.386
     -2264.171       -1764.289
  -3342992.237 9  -2595933.05248  20981506.289    20981507.1534   20981514.3284
     -1271.827        -991.034
 -11554591.598 9  -8983218.03946  22427826.857    22427828.4744   22427835.9844
      4558.769        3552.288
   2127893.526 9   1658835.43447  21461078.661    21461078.7354   21461085.9344
      -733.622        -571.654
  -3212612.761 8  -2473580.50646  22803753.430    22803753.9184   22803762.2184
      4825.456        3760.096
  -9497765.831 9  -7229711.46449  19270635.284    19270635.8524   19270642.5014
       670.753         522.665
 -19295366.927 9 -14994093.37848  18691725.823    18691726.9294   18691733.5224
      1182.118         921.131
  -7152940.228 9  -5554912.70146  22801487.936    22801489.1264   22801496.7694
      -756.450        -589.442
 -17472657.097 9 -13601905.84948  21101200.249    21101201.1544   21101208.4494
       721.152         561.937
 96 10 30 18 14 29.9940000  0 10 17 28  3 25 23 15 21  1  9 31      -0.005213507
   9094624.042 8   7085334.59845  22998137.998    22998138.9364   22998147.5934
     -2311.637       -1801.276
  11107052.930 8   8652388.299 8  23001330.154    23001331.499    23001339.791
     -2261.596       -1762.283
  -3304700.578 9  -2566095.44748  20988792.818    20988793.7884   20988800.9714
     -1282.054        -999.003
 -11691351.021 9  -9089783.75646  22401802.877    22401804.0374   22401811.3944
      4557.503        3551.301
   2149937.315 9   1676012.34747  21465273.194    21465273.5444   21465280.7404
      -736.829        -574.152
  -3357376.889 9  -2586383.75546  22776205.444    22776206.2314   22776214.3694
      4824.428        3759.294
  -9517814.726 9  -7245334.00849  19266820.134    19266820.7024   19266827.3264
       664.895         518.100
 -19330613.638 9 -15021558.36248  18685018.658    18685019.6924   18685026.3364
      1166.594         909.034
  -7130028.252 9  -5537059.25746  22805848.849    22805849.2784   22805856.7404
      -771.861        -601.450
 -17494037.465 9 -13618565.92248  21097131.502    21097132.6034   21097139.7964
       703.198         547.946
 96 10 30 18 14 59.9940000  0 10 17 28  3 25 23 15 21  1  9 31      -0.005237533
   9164052.482 8   7139434.56245  23011349.378    23011350.6924   23011359.4184
     -2316.708       -1805.227
  11174872.102 8   8705234.317 8  23014235.555    23014237.025    23014245.249
     -2259.350       -1760.532
  -3266074.435 9  -2535997.18948  20996142.856    20996144.0254   20996151.3194
     -1292.797       -1007.374
 -11828044.781 9  -9196298.29346  22375790.980    22375792.0454   22375799.4134
      4555.898        3550.050
   2172105.732 9   1693286.38047  21469491.783    21469492.1104   21469499.3644
      -740.814        -577.258
  -3502083.263 8  -2699141.93046  22748669.159    22748669.5764   22748677.7794
      4822.978        3758.165
  -9537668.719 9  -7260804.67449  19263042.007    19263042.5874   19263049.2264
       658.976         513.488
 -19365364.492 9 -15048636.96248  18678405.773    18678406.8104   18678413.4624
      1150.462         896.464
  -7106633.981 9  -5518830.01446  22810300.936    22810301.1194   22810308.4274
      -787.364        -613.530
 -17514859.269 9 -13634790.72148  21093169.812    21093170.4604   21093177.5634
       685.043         533.800
 96 10 30 18 15 29.9940000  0 10 17 28  3 25 23 15 21  1  9 31      -0.005261544
   9233638.566 8   7193657.39046  23024591.824    23024592.8034   23024601.4454
     -2322.537       -1809.769
  11242625.401 9   8758029.011 8  23027128.690    23027130.217    23027138.028
     -2257.693       -1759.241
  -3227119.855 9  -2505643.01548  21003555.465    21003556.7784   21003564.2634
     -1304.413       -1016.426
 -11964702.313 9  -9302784.60446  22349786.154    22349786.8524   22349794.2604
      4554.405        3548.887
   2194399.172 9   1710657.82947  21473734.434    21473734.4054   21473741.7164
      -745.429        -580.854
  -3646741.202 9  -2811862.39646  22721141.073    22721141.9844   22721150.2414
      4820.710        3756.397
  -9557349.067 9  -7276140.03949  19259296.994    19259297.5164   19259304.1394
       652.773         508.654
 -19399634.617 9 -15075340.97648  18671884.253    18671885.4224   18671892.1114
      1134.089         883.706
  -7082768.459 9  -5500233.55546  22814841.743    22814842.6164   22814850.0874
      -803.687        -626.250
 -17535122.881 9 -13650580.59248  21089313.964    21089314.4214   21089321.5794
       665.515         518.583
 96 10 30 18 15 59.9940000  0 10 17 28  3 25 23 15 21  1  9 31      -0.005285552
   9303390.907 8   7248009.75445  23037865.053    23037866.3854   23037875.2114
     -2326.893       -1813.163
  11310325.065 9   8810781.907 8  23040012.425    23040013.299    23040020.846
     -2254.793       -1756.982
  -3187816.392 9  -2475017.00048  21011034.628    21011035.9834   21011043.5844
     -1315.152       -1024.794
 -12101318.831 9  -9409238.96646  22323788.068    22323789.5964   22323797.0054
      4554.077        3548.631
   2216812.873 9   1728122.97147  21477999.222    21477999.5354   21478006.9884
      -748.137        -582.964
  -3791333.592 9  -2924531.80946  22693626.627    22693626.9294   22693635.3144
      4819.578        3755.515
  -9576838.898 9  -7291326.94949  19255588.094    19255588.7154   19255595.2684
       647.163         504.283
 -19433412.547 9 -15101661.46348  18665456.492    18665457.7674   18665464.3624
      1118.483         871.545
  -7058420.921 9  -5481261.49346  22819474.576    22819475.7374   22819483.4064
      -818.646        -637.906
 -17554795.469 9 -13665909.92848  21085569.890    21085570.8284   21085577.9904
       646.747         503.959
 96 10 30 18 16 29.9940000  0 10 17 28  3 25 23 15 21  1  9 31      -0.005309541
   9373312.341 9   7302493.88445  23051170.484    23051172.2294   23051180.7394
     -2333.197       -1818.076
  11377968.272 9   8863490.797 8  23052884.239    23052885.399    23052892.940
     -2253.379       -1755.880
  -3148152.270 9  -2444109.93948  21018582.765    21018583.8624   21018591.4934
     -1327.686       -1034.561
 -12237894.942 9  -9515661.82146  22297798.791    22297799.8624   22297807.4184
      4552.499        3547.402
   2239348.217 9   1745682.91947  21482287.851    21482288.0184   21482295.3074
      -752.647        -586.478
  -3935858.273 9  -3037148.44246  22666123.949    22666124.7554   22666132.9964
      4816.790        3753.343
  -9596117.441 9  -7306349.21249  19251919.580    19251920.1934   19251926.6354
       639.393         498.228
 -19466691.766 9 -15127593.33148  18659123.723    18659124.9974   18659131.4684
      1101.572         858.368
  -7033597.916 9  -5461918.93846  22824198.173    22824199.4104   22824207.2654
      -834.704        -650.419
 -17573873.723 9 -13680776.12448  21081939.239    21081940.3904   21081947.4694
       626.682         488.324
 96 10 30 18 16 59.9940000  0 10 17 28  3 25 23 15 21  1  9 31      -0.005333487
   9443392.726 8   7357101.86845  23064507.235    23064508.3614   23064516.9604
     -2338.727       -1822.385
  11445539.809 8   8916143.862 8  23065743.017    23065743.817    23065751.265
     -2251.359       -1754.306
  -3108143.714 9  -2412934.49648  21026196.614    21026197.2674   21026204.9074
     -1339.427       -1043.709
 -12374457.834 9  -9622074.37646  22271811.671    22271812.6004   22271820.4174
      4551.668        3546.754
   2261987.973 9   1763324.21047  21486596.193    21486596.2984   21486603.4654
      -756.600        -589.558
  -4080325.626 9  -3149720.39146  22638633.427    22638633.4704   22638641.8264
      4814.403        3751.483
  -9615185.042 9  -7321207.10949  19248291.093    19248291.7944   19248298.2474
       631.735         492.261
 -19499493.896 9 -15153153.45148  18652881.981    18652883.0794   18652889.4084
      1085.303         845.691
  -7008322.645 9  -5442223.94546  22829007.989    22829009.0984   22829016.9564
      -850.463        -662.698
 -17592388.308 9 -13695203.11947  21078416.174    21078417.2094   21078424.1464
       607.607         473.460
 96 10 30 18 17 29.9940000  0 10 17 28  3 25 23 15 21  1  9 31      -0.005357430
   9513614.873 8   7411820.26945  23077870.562    23077871.3234   23077880.0514
     -2342.796       -1825.555
  11513029.090 8   8968732.853 8  23078586.035    23078586.574    23078593.979
     -2248.194       -1751.839
  -3067812.129 9  -2381507.33448  21033871.633    21033872.1714   21033879.7444
     -1349.433       -1051.506
 -12511004.743 9  -9728474.49946  22245827.000    22245828.4964   22245836.3734
      4551.040        3546.265
   2284717.518 9   1781035.48447  21490921.471    21490921.7104   21490928.6684
      -758.809        -591.280
  -4224741.253 9  -3262252.03046  22611151.754    22611152.0394   22611160.6324
      4813.030        3750.413
  -9634032.298 9  -7335893.31149  19244704.579    19244705.3194   19244711.8344
       624.522         486.641
 -19531823.662 9 -15178345.49248  18646729.910    18646730.9964   18646737.2244
      1069.624         833.473
  -6982589.472 9  -5422172.14746  22833904.852    22833905.9274   22833913.9954
      -865.385        -674.326
 -17610348.331 9 -13709197.98148  21074998.644    21074999.5824   21075006.4844
       589.540         459.382
 96 10 30 18 17 59.9940000  0 10 17 28  3 25 23 15 21  1  9 31      -0.005381366
   9583985.259 8   7466654.21945  23091261.276    23091262.1884   23091271.0594
     -2347.653       -1829.340
  11580450.132 8   9021268.624 8  23091415.540    23091416.379    23091424.073
     -2245.756       -1749.940
  -3027158.130 9  -2349828.94148  21041607.866    21041608.4264   21041615.9624
     -1359.919       -1059.677
 -12647490.302 9  -9834826.80046  22219854.546    22219856.0924   22219863.9274
      4548.815        3544.531
   2307536.556 9   1798816.48847  21495263.568    21495264.1764   21495270.9714
      -761.809        -593.617
  -4369086.606 9  -3374728.94146  22583684.052    22583684.0804   22583692.6884
      4810.845        3748.710
  -9652631.826 9  -7350386.47549  19241165.114    19241165.9464   19241172.5094
       616.358         480.279
 -19563644.637 9 -15203141.07348  18640674.687    18640675.6684   18640681.8984
      1052.645         820.243
  -6956375.545 9  -5401745.77046  22838893.218    22838894.4114   22838902.4624
      -881.386        -686.794
 -17627747.301 9 -13722755.64748  21071688.050    21071688.7024   21071695.6174
       571.315         445.180
 96 10 30 18 18 29.9940000  0 10 17 28  3 25 23 15 21  1  9 31      -0.005405295
   9654502.996 8   7521602.99445  23104680.151    23104681.4904   23104690.4024
     -2354.313       -1834.530
  11647797.633 9   9073747.068 8  23104231.201    23104232.152    23104239.969
     -2244.943       -1749.306
  -2986199.788 9  -2317913.40248  21049401.845    21049402.5544   21049410.0934
     -1371.326       -1068.566
 -12783906.096 9  -9941124.73746  22193895.385    22193897.0144   22193904.7704
      4544.851        3541.442
   2330453.234 9   1816673.57947  21499624.838    21499625.1914   21499631.9374
      -766.690        -597.421
  -4513362.071 9  -3487151.37146  22556229.187    22556229.3674   22556238.0464
      4806.742        3745.513
  -9670992.570 9  -7364693.57149  19237671.314    19237671.9884   19237678.6264
       606.947         472.946
 -19594965.602 9 -15227547.03748  18634714.544    18634715.5214   18634721.7774
      1034.561         806.151
  -6929677.166 9  -5380941.88446  22843974.172    22843975.0094   22843983.1844
      -899.211        -700.684
 -17644609.323 9 -13735894.93548  21068479.454    21068480.0014   21068486.9814
       552.118         430.222
 96 10 30 18 18 59.9940000  0 10 17 28  3 25 23 15 21  1  9 31      -0.005429232
   9725156.021 8   7576657.11946  23118125.589    23118126.5074   23118135.5484
     -2356.638       -1836.341
  11715057.161 8   9126157.015 8  23117030.893    23117031.431    23117039.116
     -2239.768       -1745.274
  -2944974.558 9  -2285789.91348  21057246.720    21057247.5614   21057254.9674
     -1377.886       -1073.677
 -12920263.499 9 -10047377.17246  22167947.692    22167949.0234   22167956.8214
      4544.807        3541.408
   2353451.090 9   1834593.91447  21504001.067    21504001.5534   21504008.3764
      -767.396        -597.971
  -4657577.054 9  -3599526.65846  22528786.123    22528786.1904   22528794.9284
      4806.866        3745.610
  -9689136.635 9  -7378831.83848  19234218.590    19234219.2864   19234225.9664
       601.860         468.982
 -19625798.741 9 -15251572.88448  18628847.228    18628848.1594   18628854.4904
      1020.238         794.991
  -6902509.842 9  -5359772.58246  22849144.199    22849144.9604   22849153.1074
      -912.619        -711.132
 -17660964.710 9 -13748639.42647  21065367.446    21065367.7254   21065374.7184
       537.228         418.619
 96 10 30 18 19 29.9940000  0 10 17 28  3 25 23 15 21  1  9 31      -0.005453182
   9795935.498 8   7631809.83445  23131594.461    23131595.5904   23131604.5664
     -2361.407       -1840.057
  11782217.867 8   9178489.933 8  23129811.259    23129811.659    23129819.668
     -2236.988       -1743.108
  -2903493.968 9  -2253467.43648  21065140.528    21065141.1404   21065148.4374
     -1387.014       -1080.790
 -13056555.340 9 -10153578.53446  22142012.370    22142013.5144   22142021.3464
      4542.129        3539.321
   2376526.469 9   1852574.65047  21508392.183    21508392.6344   21508399.6044
      -770.379        -600.295
  -4801737.755 9  -3711859.65846  22501352.789    22501353.2744   22501362.3164
      4804.480        3743.751
  -9707063.905 9  -7392801.17348  19230807.101    19230807.7824   19230814.4744
       594.008         462.863
 -19656147.130 9 -15275221.00248  18623072.161    18623073.0704   18623079.4034
      1003.760         782.151
  -6874889.487 9  -5338250.29646  22854400.184    22854401.0754   22854409.0594
      -928.060        -723.164
 -17676808.714 9 -13760985.46447  21062352.348    21062352.5874   21062359.6794
       519.717         404.974
 96 10 30 18 19 59.9940000  0 10 17 28  3 25 23 15 21  1  9 31      -0.005477121
   9866875.860 8   7687087.93645  23145094.670    23145095.4674   23145103.8844
     -2367.237       -1844.600
  11849301.921 8   9230763.102 8  23142577.249    23142577.471    23142585.637
     -2234.628       -1741.269
  -2861718.425 9  -2220915.12648  21073090.091    21073090.8614   21073098.0574
     -1397.353       -1088.846
 -13192765.102 9 -10259715.93847  22116092.691    22116093.7254   22116101.4154
      4539.327        3537.138
   2399707.647 9   1870637.85047  21512803.420    21512803.8654   21512810.9724
      -774.378        -603.411
  -4945817.137 9  -3824129.32946  22473935.246    22473935.9134   22473944.8964
      4801.471        3741.406
  -9724751.848 9  -7406584.01249  19227440.966    19227441.8474   19227448.5794
       585.761         456.437
 -19686009.182 9 -15298490.15148  18617389.621    18617390.4494   18617396.8234
       987.886         769.781
  -6846804.629 9  -5316366.04446  22859744.899    22859745.4864   22859753.3334
      -943.438        -735.146
 -17692120.135 9 -13772916.46848  21059438.254    21059438.9934   21059446.0084
       501.676         390.916
 96 10 30 18 20 29.9940000  0 10 17 28  3 25 23 15 21  1  9 31      -0.005501036
   9938004.683 8   7742512.77745  23158630.061    23158630.8414   23158639.4894
     -2373.784       -1849.702
  11916318.401 8   9282983.628 8  23155329.682    23155330.483    23155338.672
     -2232.433       -1739.558
  -2819628.623 9  -2188117.93647  21081099.164    21081100.3184   21081107.5004
     -1407.951       -1097.105
 -13328895.901 9 -10365791.82147  22090187.775    22090188.8794   22090196.4844
      4536.746        3535.127
   2423013.103 9   1888797.87347  21517238.251    21517238.7994   21517245.9054
      -778.561        -606.671
  -5089801.082 9  -3936324.60946  22446535.857    22446536.5334   22446545.6274
      4798.104        3738.782
  -9742182.934 9  -7420166.70549  19224123.988    19224124.8564   19224131.5524
       576.961         449.580
 -19715395.552 9 -15321388.63948  18611797.379    18611798.3814   18611804.8284
       971.828         757.269
  -6818270.506 9  -5294131.70646  22865174.878    22865175.4084   22865183.0334
      -958.124        -746.590
 -17706885.474 9 -13784421.96848  21056628.618    21056629.2884   21056636.3914
       483.359         376.643
 96 10 30 18 20 59.9940000  0 10 17 28  3 25 23 15 21  1  9 31      -0.005524954
  10009284.877 8   7798055.67345  23172194.308    23172194.9844   23172203.3164
     -2377.785       -1852.819
  11983231.323 9   9335123.414 8  23168062.588    23168063.569    23168072.115
     -2228.166       -1736.233
  -2777258.461 9  -2155102.29247  21089162.499    21089163.0944   21089170.2924
     -1416.536       -1103.794
 -13464976.193 9 -10471828.33047  22064292.479    22064293.5894   22064301.2264
      4535.490        3534.148
   2446407.998 9   1907027.57647  21521690.412    21521690.7044   21521697.8834
      -780.954        -608.536
  -5233720.609 9  -4048469.68646  22419148.919    22419149.6974   22419158.5784
      4796.734        3737.715
  -9759387.235 9  -7433572.68449  19220850.418    19220851.0604   19220857.7294
       570.215         444.323
 -19744331.211 9 -15343935.92448  18606291.305    18606292.1294   18606298.5884
       957.462         746.074
  -6789338.312 9  -5271587.19746  22870680.096    22870681.0204   22870688.8174
      -970.534        -756.260
 -17721134.141 9 -13795524.88248  21053917.454    21053917.8284   21053925.0204
       466.606         363.589
 96 10 30 18 21 29.9940000  0 10 17 28  3 25 23 15 21  1  9 31      -0.005548867
  10080703.474 8   7853706.42745  23185784.300    23185785.3344   23185793.8854
     -2383.890       -1857.577
  12050037.960 8   9387180.436 8  23180775.326    23180776.407    23180785.166
     -2226.039       -1734.576
  -2734606.646 9  -2121867.17247  21097278.871    21097279.5034   21097286.6214
     -1427.214       -1112.115
 -13600997.520 9 -10577818.91647  22038408.641    22038409.6134   22038417.2094
      4532.305        3531.666
   2469903.441 9   1925335.64247  21526161.549    21526161.7904   21526169.0484
      -785.811        -612.320
  -5377573.673 9  -4160562.97946  22391775.393    22391775.3634   22391784.3404
      4793.019        3734.820
  -9776369.378 9  -7446805.55249  19217618.832    19217619.5564   19217626.2044
       561.656         437.654
 -19772819.466 9 -15366134.58048  18600870.244    18600870.9824   18600877.4624
       941.239         733.433
  -6760003.179 9  -5248728.71946  22876263.027    22876263.2834   22876271.2244
      -985.624        -768.019
 -17734860.161 9 -13806220.52748  21051305.385    21051305.9434   21051313.0684
       447.999         349.090
 96 10 30 18 21 59.9940000  0 10 17 28  3 25 23 15 21  1  9 31      -0.005572767
  10152283.070 8   7909482.51546  23199406.254    23199406.6644   23199415.7114
     -2388.272       -1860.991
  12116758.671 9   9439170.481 8  23193471.230    23193473.155    23193481.915
     -2222.350       -1731.701
  -2691665.575 9  -2088406.65247  21105449.827    21105450.9604   21105458.1134
     -1435.694       -1118.723
 -13736948.900 9 -10683754.99947  22012537.762    22012538.9174   22012546.4964
      4530.658        3530.383
   2493524.349 9   1943741.47047  21530656.060    21530656.7924   21530663.9994
      -789.185        -614.949
  -5521335.548 9  -4272585.21546  22364417.967    22364418.3484   22364427.5274
      4790.726        3733.033
  -9793126.191 9  -7459862.84249  19214430.224    19214430.9344   19214437.5804
       555.100         432.545
 -19800830.137 9 -15387961.10748  18595539.759    18595540.7364   18595547.2074
       925.678         721.308
  -6730233.347 9  -5225531.48146  22881928.565    22881928.2754   22881936.2474
      -999.219        -778.612
 -17748045.751 9 -13816495.05448  21048796.271    21048796.8444   21048803.8954
       430.592         335.526
 96 10 30 18 22 29.9940000  0 10 17 28  3 25 23 15 21  1  9 31      -0.005596681
  10223992.386 8   7965359.72745  23213051.759    23213052.6864   23213061.7914
     -2392.719       -1864.456
  12183372.399 9   9491077.178 8  23206148.365    23206149.750    23206158.196
     -2218.980       -1729.075
  -2648477.243 9  -2054753.47547  21113668.285    21113669.3984   21113676.6444
     -1444.141       -1125.305
 -13872842.975 9 -10789646.43247  21986678.032    21986679.2044   21986686.8084
      4528.430        3528.647
   2517249.888 9   1962228.82647  21535171.076    21535171.7194   21535178.9434
      -792.889        -617.836
  -5665021.993 9  -4384548.71046  22337075.062    22337075.7994   22337084.6734
      4787.826        3730.774
  -9809685.350 9  -7472766.10349  19211279.194    19211279.9024   19211286.5734
       548.399         427.324
 -19828352.532 9 -15409407.14548  18590302.455    18590303.4444   18590309.8424
       908.634         708.026
  -6700056.052 9  -5202016.74246  22887670.602    22887670.8614   22887678.7714
     -1013.093        -789.423
 -17760706.958 9 -13826360.96348  21046386.714    21046387.5654   21046394.5634
       412.999         321.817
 96 10 30 18 22 59.9940000  0 10 17 28  3 25 23 15 21  1  9 31      -0.005620608
  10295824.123 9   8021332.42445  23226720.770    23226721.7654   23226730.3174
     -2395.975       -1866.994
  12249880.633 8   9542901.629 8  23218804.131    23218805.948    23218814.518
     -2214.720       -1725.756
  -2605034.856 9  -2020902.32047  21121935.410    21121936.1904   21121943.4564
     -1451.953       -1131.392
 -14008669.292 9 -10895485.06447  21960831.274    21960832.2824   21960839.9174
      4526.933        3527.480
   2541080.930 9   1980798.40047  21539705.742    21539706.6554   21539713.9404
      -795.602        -619.950
  -5808626.820 9  -4496448.55846  22309748.222    22309748.7004   22309757.5364
      4785.911        3729.281
  -9826049.267 9  -7485517.23749  19208165.264    19208165.9904   19208172.6824
       542.576         422.786
 -19855366.860 9 -15430457.29648  18585161.642    18585162.7554   18585169.1484
       892.496         695.451
  -6669462.694 9  -5178177.82346  22893492.428    22893492.6444   22893500.4934
     -1026.379        -799.776
 -17772838.729 9 -13835814.33147  21044078.528    21044079.0154   21044086.0284
       395.802         308.417
 96 10 30 18 23 29.9940000  0 10 17 28  3 25 23 15 21  1  9 31      -0.005644556
  10367769.736 8   8077393.75745  23240412.344    23240412.9484   23240421.8574
     -2399.435       -1869.690
  12316267.600 8   9594631.634 8  23231436.566    23231438.860    23231447.592
     -2210.182       -1722.220
  -2561349.158 9  -1986861.57247  21130248.337    21130249.1954   21130256.6154
     -1459.579       -1137.334
 -14144445.581 9 -11001284.71747  21934993.783    21934994.9044   21935002.5734
      4525.876        3526.657
   2564995.871 9   1999433.33447  21544257.208    21544257.5784   21544265.0394
      -797.731        -621.609
  -5952160.798 9  -4608293.21746  22282434.943    22282435.0404   22282443.9254
      4783.995        3727.788
  -9842216.775 9  -7498115.32149  19205088.633    19205089.4594   19205096.1374
       536.143         417.774
 -19881887.919 9 -15451123.06948  18580114.898    18580115.9514   18580122.3864
       876.680         683.127
  -6638458.679 9  -5154018.90446  22899392.444    22899392.5524   22899400.2764
     -1039.583        -810.065
 -17784441.946 9 -13844855.85147  21041870.102    21041870.9594   21041877.9874
       378.671         295.068
 96 10 30 18 23 59.9940000  0 10 17 28  3 25 23 15 21  1  9 31      -0.005668512
  10439855.026 8   8133563.87445  23254129.317    23254129.9774   23254139.5684
     -2404.971       -1874.003
  12382551.890 8   9646281.599 8  23244049.755    23244052.397    23244061.283
     -2207.783       -1720.350
  -2517395.626 9  -1952612.13147  21138612.369    21138613.2584   21138620.7674
     -1469.672       -1145.199
 -14280147.154 9 -11107026.16147  21909170.606    21909171.7364   21909179.3764
      4521.792        3523.474
   2589006.471 9   2018142.82547  21548825.748    21548826.6554   21548834.2824
      -802.074        -624.993
  -6095600.264 9  -4720064.21946  22255139.604    22255139.3144   22255148.2224
      4779.732        3724.466
  -9858150.931 9  -7510531.57049  19202056.585    19202057.3144   19202064.0154
       527.013         410.659
 -19907908.703 9 -15471399.02348  18575163.331    18575164.3704   18575170.7954
       859.350         669.623
  -6607030.239 9  -5129529.25946  22905372.326    22905373.2804   22905380.8214
     -1054.429        -821.633
 -17795495.084 9 -13853468.73747  21039766.738    21039767.5924   21039774.6324
       359.350         280.013
 96 10 30 18 24 29.9940000  0 10 17 28  3 25 23 15 21  1  9 31      -0.005692464
  10512062.035 8   8189828.92945  23267869.283    23267870.3634   23267879.9564
     -2408.945       -1877.100
  12448724.590 8   9697844.645 8  23256642.519    23256644.785    23256653.564
     -2203.791       -1717.240
  -2473167.430 9  -1918148.66147  21147028.935    21147029.5974   21147037.3254
     -1478.979       -1152.451
 -14415759.043 9 -11212697.73647  21883364.237    21883365.5904   21883373.0764
      4518.800        3521.143
   2613114.374 9   2036928.12047  21553412.442    21553414.1594   21553421.9894
      -805.278        -627.489
  -6238949.629 9  -4831765.03046  22227860.727    22227860.8034   22227869.6794
      4776.812        3722.191
  -9873838.351 9  -7522755.56349  19199071.220    19199072.1244   19199078.7604
       518.760         404.228
 -19933462.185 9 -15491310.84748  18570300.808    18570301.7934   18570308.1794
       844.239         657.849
  -6575194.688 9  -5104722.34946  22911429.697    22911431.3624   22911439.1034
     -1068.160        -832.332
 -17806012.156 9 -13861663.89847  21037765.913    21037766.3114   21037773.2934
       341.735         266.287
 96 10 30 18 24 59.9940000  0 10 17 28  3 25 23 15 21  1  9 31      -0.005716389
  10584396.139 8   8246192.99145  23281635.160    23281635.7254   23281644.7874
     -2413.282       -1880.479
  12514786.726 8   9749321.505 8  23269213.680    23269215.914    23269225.033
     -2200.255       -1714.484
  -2428657.393 9  -1883465.57047  21155498.761    21155499.5714   21155507.4154
     -1488.084       -1159.546
 -14551266.502 9 -11318287.93947  21857577.874    21857579.3254   21857586.6254
      4515.053        3518.223
   2637329.681 9   2055797.12347  21558021.216    21558022.2474   21558030.0424
      -809.083        -630.454
  -6382202.860 9  -4943390.91646  22200600.572    22200600.5904   22200609.3274
      4773.363        3719.504
  -9889270.563 9  -7534780.69549  19196134.730    19196135.4674   19196142.1094
       510.146         397.516
 -19958567.727 9 -15510873.62748  18565523.442    18565524.3884   18565530.7814
       829.501         646.364
  -6542926.904 9  -5079578.63546  22917570.600    22917571.6114   22917579.7884
     -1083.136        -844.002
 -17815992.628 9 -13869440.93647  21035866.467    21035867.0934   21035874.0614
       323.773         252.291
 96 10 30 18 25 29.9940000  0 10 17 28  3 25 23 15 21  1  9 31      -0.005740291
  10656839.457 8   8302642.00645  23295420.931    23295421.3504   23295430.9444
     -2416.165       -1882.726
  12580726.970 8   9800703.426 8  23281761.791    23281763.792    23281773.233
     -2195.719       -1710.950
  -2383894.661 9  -1848585.60447  21164016.874    21164017.6634   21164025.6274
     -1496.051       -1165.754
 -14686670.511 9 -11423797.53747  21831811.873    21831812.7324   21831819.9344
      4511.936        3515.794
   2661650.222 9   2074748.13047  21562649.469    21562650.2884   21562658.1394
      -812.255        -632.926
  -6525366.554 9  -5054947.02446  22173357.272    22173357.3824   22173366.0644
      4770.873        3717.563
  -9904462.471 9  -7546618.57949  19193243.895    19193244.5804   19193251.1334
       502.860         391.839
 -19983248.780 9 -15530105.64348  18560826.856    18560827.7994   18560834.0974
       815.966         635.818
  -6510217.405 9  -5054090.74846  22923795.444    22923796.0354   22923804.2214
     -1097.404        -855.120
 -17825457.955 9 -13876816.56547  21034065.074    21034066.0064   21034073.0094
       307.352         239.495
 96 10 30 18 25 59.9940000  0 10 17 28  3 25 23 15 21  1  9 31      -0.005764176
  10729370.900 8   8359159.94945  23309222.573    23309223.9084   23309232.7424
     -2419.840       -1885.590
  12646536.544 8   9851983.485 8  23294286.108    23294287.033    23294296.507
     -2192.058       -1708.097
  -2338884.871 9  -1813513.09447  21172581.412    21172582.7074   21172590.7214
     -1505.048       -1172.765
 -14821969.094 9 -11529224.99247  21806065.738    21806066.2474   21806073.3134
      4507.498        3512.336
   2686072.513 9   2093778.40347  21567296.184    21567297.7444   21567305.7294
      -816.426        -636.176
  -6668444.529 9  -5166436.34146  22146130.504    22146130.5724   22146139.1454
      4767.157        3714.668
  -9919439.598 9  -7558289.09649  19190393.804    19190394.5304   19190401.0504
       495.143         385.826
 -20007512.348 9 -15549012.34048  18556209.968    18556210.6804   18556216.9194
       800.782         623.986
  -6477079.098 9  -5028268.77146  22930101.045    22930102.1964   22930110.1884
     -1112.279        -866.711
 -17834431.984 9 -13883809.36147  21032357.813    21032358.3264   21032365.4384
       290.299         226.207
 96 10 30 18 26 29.9940000  0 10 17 28  3 25 23 15 21  1  9 31      -0.005788020
  10802016.774 8   8415767.03045  23323046.913    23323048.2544   23323057.2194
     -2423.412       -1888.373
  12712238.804 8   9903179.951 8  23306788.448    23306789.794    23306799.046
     -2188.008       -1704.941
  -2293605.125 9  -1778230.24247  21181197.725    21181199.1844   21181207.2254
     -1513.541       -1179.383
 -14957144.765 9 -11634556.65447  21780342.372    21780343.0114   21780350.1294
      4504.278        3509.827
   2710610.223 9   2112898.59647  21571965.848    21571967.1144   21571975.2354
      -819.414        -638.504
  -6811408.405 9  -5277836.78346  22118925.486    22118925.5494   22118933.9434
      4763.640        3711.927
  -9934191.785 9  -7569784.33849  19187586.383    19187587.3014   19187593.8524
       488.289         380.485
 -20031298.955 9 -15567547.38448  18551683.426    18551684.2674   18551690.5444
       784.691         611.447
  -6443493.504 9  -5002098.27246  22936492.030    22936493.4814   22936501.3034
     -1126.894        -878.099
 -17842894.698 9 -13890403.72447  21030746.957    21030747.9174   21030755.1564
       273.765         213.323
 96 10 30 18 26 59.9940000  0 10 17 28  3 25 23 15 21  1  9 31      -0.005811906
  10874770.600 8   8472458.03845  23336892.396    23336893.1914   23336902.7984
     -2427.405       -1891.484
  12777810.643 8   9954274.730 7  23319266.542    23319267.354    23319276.904
     -2184.047       -1701.855
  -2248091.559 9  -1742765.19147  21189859.571    21189860.1454   21189868.2804
     -1521.284       -1185.416
 -15092239.948 9 -11739825.62847  21754634.800    21754635.1314   21754642.3314
      4501.478        3507.645
   2735224.748 9   2132078.66147  21576650.401    21576651.1864   21576659.3344
      -822.291        -640.746
  -6954276.405 9  -5389162.50246  22091737.677    22091738.6944   22091747.0444
      4760.246        3709.283
  -9948750.555 9  -7581128.86549  19184816.084    19184816.8824   19184823.4804
       481.571         375.250
 -20054602.863 9 -15585706.30048  18547248.798    18547249.7204   18547255.9574
       768.246         598.633
  -6409480.434 9  -4975594.64546  22942965.091    22942965.9754   22942973.8234
     -1141.170        -889.223
 -17850873.361 9 -13896620.90447  21029228.852    21029229.6814   21029236.9294
       257.381         200.557
 96 10 30 18 27 29.9940000  0 10 17 28  3 25 23 15 21  1  9 31      -0.005835820
  10947645.769 8   8529243.70945  23350760.614    23350760.9684   23350770.4364
     -2431.590       -1894.745
  12843259.012 8  10005273.406 8  23331720.691    23331721.884    23331731.163
     -2179.760       -1698.514
  -2202339.715 9  -1707114.48547  21198565.876    21198566.4614   21198574.6314
     -1529.486       -1191.807
 -15227254.719 9 -11845031.90347  21728941.978    21728942.4894   21728950.0244
      4498.945        3505.671
   2759927.063 9   2151327.13247  21581350.848    21581351.9284   21581359.8794
      -825.026        -642.877
  -7097036.973 9  -5500404.48946  22064571.407    22064572.1634   22064580.4964
      4756.609        3706.448
  -9963101.255 9  -7592311.26549  19182085.058    19182086.0514   19182092.7904
       474.498         369.739
 -20077409.093 9 -15603477.41448  18542908.941    18542909.8374   18542916.0774
       751.649         585.701
  -6375049.831 9  -4948765.65746  22949516.711    22949517.8314   22949525.7634
     -1154.539        -899.641
 -17858360.222 9 -13902454.86747  21027804.030    21027804.9914   21027812.3534
       240.958         187.759
 96 10 30 18 27 59.9940000  0 10 17 28  3 25 23 15 21  1  9 31      -0.005859758
  11020658.327 8   8586136.50045  23364653.787    23364654.8384   23364663.9964
     -2436.090       -1898.252
  12908580.889 8  10056173.514 7  23344151.842    23344152.443    23344161.474
     -2175.224       -1694.980
  -2156343.913 9  -1671273.67447  21207318.546    21207319.2174   21207327.4044
     -1537.016       -1197.675
 -15362196.830 9 -11950181.58247  21703262.727    21703263.6924   21703271.5144
      4496.920        3504.093
   2784713.748 9   2170641.36947  21586068.415    21586068.7634   21586076.6064
      -827.671        -644.938
  -7239688.237 9  -5611561.27846  22037425.538    22037426.4724   22037434.7824
      4753.269        3703.846
  -9977233.193 9  -7603323.18849  19179396.093    19179396.8334   19179403.6724
       467.418         364.222
 -20099719.847 9 -15620862.43348  18538663.218    18538664.1644   18538670.5004
       735.582         573.181
  -6340222.201 9  -4921627.22846  22956143.768    22956145.2824   22956153.2274
     -1167.511        -909.749
 -17865346.334 9 -13907898.63747  21026474.812    21026475.5244   21026483.0224
       224.379         174.841
 96 10 30 18 28 29.9940000  0 10 17 28  3 25 23 15 21  1  9 31      -0.005883724
  11093794.202 8   8643125.35245  23378570.545    23378572.0504   23378581.6394
     -2439.842       -1901.176
  12973754.156 8  10106957.714 7  23356553.853    23356554.698    23356563.581
     -2169.838       -1690.783
  -2110138.551 9  -1635269.56347  21216110.992    21216111.8994   21216120.0404
     -1543.413       -1202.659
 -15497081.090 9 -12055286.19847  21677594.802    21677596.0154   21677604.0204
      4495.123        3502.693
   2809576.534 9   2190014.88847  21590799.483    21590800.0424   21590807.8104
      -830.168        -646.884
  -7382247.319 9  -5722646.29846  22010297.157    22010298.4464   22010306.6314
      4750.507        3701.694
  -9991160.589 9  -7614175.74049  19176745.762    19176746.4974   19176753.4364
       460.883         359.130
 -20121571.975 9 -15637890.08648  18534504.839    18534505.8354   18534512.1964
       721.329         562.075
  -6305008.162 9  -4894187.81146  22962845.324    22962846.4934   22962854.3774
     -1180.423        -919.810
 -17871839.140 9 -13912958.00947  21025239.034    21025240.0694   21025247.4794
       208.197         162.231
 96 10 30 18 28 59.9940000  0 10 17 28  3 25 23 15 21  1  9 31      -0.005907665
  11167069.894 8   8700223.09345  23392515.099    23392516.1684   23392525.9734
     -2444.964       -1905.167
  13038799.324 8  10157642.246 8  23368930.753    23368932.371    23368941.299
     -2166.318       -1688.040
  -2063714.431 9  -1599094.99547  21224945.150    21224946.2194   21224954.2874
     -1551.483       -1208.948
 -15631871.932 9 -12160318.02347  21651944.917    21651946.1854   21651954.2504
      4490.978        3499.463
   2834567.621 9   2209488.37647  21595554.492    21595555.7094   21595563.4574
      -835.659        -651.163
  -7524688.771 9  -5833639.61146  21983192.699    21983192.7514   21983200.9564
      4745.759        3697.994
 -10004855.133 9  -7624846.85248  19174139.826    19174140.5274   19174147.4244
       452.271         352.419
 -20142984.159 9 -15654574.91948  18530429.970    18530431.2254   18530437.5954
       706.385         550.430
  -6269368.956 8  -4866417.05245  22969627.898    22969628.5004   22969636.4044
     -1195.255        -931.368
 -17877803.507 9 -13917605.62447  21024104.156    21024105.1534   21024112.4844
       189.563         147.711
 96 10 30 18 29 29.9940000  0  9 17  3 25 23 15 21  1  9 31         -0.005931573
  11240467.495 8   8757415.89745  23406482.742    23406483.2614   23406493.0944
     -2450.085       -1909.157
  -2017064.642 9  -1562744.58547  21233822.560    21233823.5664   21233831.5174
     -1560.616       -1216.064
 -15766559.606 9 -12265269.45947  21626314.585    21626315.9824   21626324.0474
      4486.072        3495.640
   2859693.655 9   2229067.03547  21600336.261    21600337.0624   21600344.7364
      -841.261        -655.528
  -7667019.575 9  -5944546.70346  21956107.398    21956108.0314   21956116.3564
      4740.842        3694.163
 -10018325.682 9  -7635343.41448  19171576.415    19171577.1774   19171584.0054
       443.732         345.765
 -20163982.513 9 -15670937.29148  18526434.511    18526435.3794   18526441.7914
       691.481         538.816
  -6233322.558 7  -4838328.96845  22976486.926    22976487.6694   22976495.8344
     -1209.951        -942.819
 -17883238.927 9 -13921841.06047  21023069.950    21023070.8994   21023078.2114
       170.683         133.000
 96 10 30 18 29 59.9940000  0  8  3 25 23 15 21  1  9 31            -0.005955425
  -1970159.208 9  -1526194.97447  21242748.640    21242749.4694   21242757.3004
     -1567.085       -1221.105
 -15901107.100 9 -12370111.66747  21600711.024    21600712.3524   21600720.4404
      4483.046        3493.283
   2884974.055 9   2248765.97347  21605147.123    21605147.7914   21605155.4514
      -844.807        -658.291
  -7809216.142 9  -6055349.22146  21929047.777    21929048.8994   21929057.3484
      4738.148        3692.063
 -10031558.246 9  -7645654.53848  19169058.447    19169059.1594   19169065.8824
       437.630         341.010
 -20184552.078 9 -15686965.54648  18522520.157    18522521.1454   18522527.5974
       678.974         529.071
  -6196846.484 7  -4809906.11755  22983428.103    22983429.0564          0.0005
     -1222.580        -952.660
 -17888121.777 9 -13925645.91947  21022141.358    21022141.8294   21022149.0554
       154.088         120.069
 96 10 30 18 30 29.9940000  0  8  3 25 23 15 21  1  9 31            -0.005979238
  -1923022.276 9  -1489464.96547  21251718.305    21251719.4494   21251727.1874
     -1575.929       -1227.997
 -16035525.530 9 -12474853.30647  21575132.105    21575133.3374   21575141.3854
      4477.915        3489.284
   2910393.829 9   2268573.51247  21609983.881    21609985.0034   21609992.7344
      -850.081        -662.401
  -7951292.853 9  -6166058.34446  21902011.991    21902012.6924   21902021.1364
      4733.221        3688.224
 -10044567.716 9  -7655791.82348  19166582.718    19166583.5624   19166590.2504
       429.067         334.338
 -20204704.968 9 -15702669.11448  18518685.221    18518686.1844   18518692.6494
       664.012         517.412
  -6159959.79117  -4781163.28154  22990447.562    22990446.7245          0.0005
     -1236.680        -963.647
 -17892477.047 9 -13929039.67747  21021312.828    21021313.1294   21021320.2304
       135.934         105.922
 96 10 30 18 30 59.9940000  0  8  3 25 23 15 21  1  9 31            -0.006003023
  -1875638.894 9  -1452542.92347  21260735.044    21260736.3074   21260743.9674
     -1583.413       -1233.828
 -16169812.414 9 -12579492.44347  21549577.735    21549579.4004   21549587.3764
      4474.185        3486.378
   2935940.121 9   2288479.62947  21614845.167    21614846.3944   21614854.2374
      -853.188        -664.822
  -8093244.824 9  -6276670.22746  21874999.489    21875000.0894   21875008.5874
      4729.996        3685.711
 -10057336.687 9  -7665741.70248  19164152.750    19164153.7314   19164160.4114
       421.891         328.746
 -20224420.151 9 -15718031.62048  18514933.454    18514934.5274   18514940.9634
       649.936         506.444
  -6122678.17316  -4752112.56754  22997541.394           0.0005          0.0005
     -1248.367        -972.754
 -17896319.014 9 -13932033.45947  21020581.788    21020582.0724   21020589.1494
       119.971          93.484
 96 10 30 18 31 29.9930000  0  8  3 25 23 15 21  1  9 31            -0.006026809
  -1828023.083 9  -1415439.78147  21269795.868    21269797.3604   21269805.1104
     -1591.478       -1240.113
 -16303969.944 9 -12684030.79847  21524049.059    21524050.1524   21524058.0244
      4469.349        3482.610
   2961572.277 9   2308452.63847  21619722.938    21619724.0744   21619732.0964
      -856.226        -667.189
  -8235086.052 9  -6387195.85746  21848007.754    21848008.5374   21848017.0844
      4725.821        3682.458
 -10069881.340 9  -7675516.79848  19161765.612    19161766.5854   19161773.2424
       413.795         322.438
 -20243698.411 9 -15733053.66348  18511265.060    18511266.0124   18511272.4434
       634.748         494.609
  -6085039.04416  -4722783.47354  23004704.812           0.0005          0.0005
     -1261.244        -982.788
 -17899686.600 9 -13934657.61147  21019940.373    21019941.1964   21019948.2984
       103.761          80.853
 96 10 30 18 31 59.9930000  0  7  3 25 23 15 21  1 31               -0.006050601
  -1780185.213 9  -1378163.59947  21278898.696    21278900.6524   21278908.5494
     -1597.382       -1244.713
 -16437990.837 9 -12788462.66747  21498545.538    21498546.9334   21498554.6494
      4465.872        3479.900
   2987292.178 9   2328494.04447  21624617.691    21624618.4964   21624626.6004
      -858.097        -668.647
  -8376805.729 9  -6497626.75746  21821038.937    21821040.2104   21821048.8874
      4722.524        3679.889
 -10082176.515 9  -7685097.48548  19159425.965    19159426.9174   19159433.5554
       406.223         316.537
 -20262516.413 9 -15747717.05848  18507684.077    18507685.0514   18507691.5214
       620.028         483.139
 -17902569.630 9 -13936904.16747  21019391.276    21019392.5444   21019399.6524
        88.711          69.125
 96 10 30 18 32 29.9930000  0  7  3 25 23 15 21  1 31               -0.006074410
  -1732143.150 9  -1340728.30447  21288041.097    21288042.8264   21288050.7534
     -1605.349       -1250.921
 -16571886.490 9 -12892796.94947  21473065.633    21473067.5124   21473075.1874
      4460.495        3475.710
   3013089.428 9   2348595.70647  21629526.829    21629527.6534   21629535.7344
      -861.665        -671.427
  -8518397.045 9  -6607957.63346  21794095.668    21794096.4044   21794104.9884
      4717.004        3675.588
 -10094214.602 9  -7694477.84948  19157135.441    19157136.1484   19157142.7994
       396.528         308.983
 -20280859.743 9 -15762010.58848  18504193.396    18504194.4184   18504200.9434
       603.042         469.903
 -17904972.841 9 -13938776.85747  21018933.828    21018935.1914   21018942.4084
        71.424          55.655
 96 10 30 18 32 59.9930000  0  7  3 25 23 15 21  1 31               -0.006098244
  -1683906.788 9  -1303141.61247  21297219.554    21297221.8864   21297229.8974
     -1611.054       -1255.367
 -16705657.241 9 -12997033.92247  21447610.683    21447611.8934   21447619.3754
      4456.826        3472.851
   3038956.433 9   2368751.73847  21634448.912    21634449.9384   21634458.0624
      -863.638        -672.965
  -8659862.292 9  -6718190.27646  21767176.116    21767176.6064   21767185.0154
      4713.305        3672.705
 -10106015.390 9  -7703673.29648  19154889.635    19154890.5514   19154897.2064
       389.595         303.581
 -20298737.025 9 -15775940.95848  18500791.494    18500792.4724   18500799.0384
       588.223         458.356
 -17906894.384 9 -13940274.21447  21018567.938    21018569.5654   21018576.8364
        55.808          43.487
 96 10 30 18 33 29.9930000  0  7  3 25 23 15 21  1 31               -0.006122099
  -1635496.698 9  -1265419.54647  21306432.134    21306434.0304   21306441.9604
     -1615.840       -1259.096
 -16839313.691 9 -13101181.80547  21422176.699    21422178.0354   21422185.3954
      4454.072        3470.705
   3064896.203 9   2388964.46147  21639384.836    21639386.1734   21639394.2684
      -865.353        -674.301
  -8801202.008 9  -6828325.12046  21740279.855    21740280.4924   21740288.8724
      4709.766        3669.948
 -10117599.716 9  -7712700.07049  19152685.070    19152686.1334   19152692.8634
       383.072         298.498
 -20316161.466 9 -15789518.46148  18497475.631    18497476.8064   18497483.3124
       573.859         447.163
 -17908326.740 9 -13941390.38747  21018295.953    21018297.0364   21018304.3594
        39.969          31.145
 96 10 30 18 33 59.9930000  0  7  3 25 23 15 21  1 31               -0.006145976
  -1586923.220 9  -1227570.15147  21315676.109    21315677.3474   21315685.1834
     -1622.052       -1263.937
 -16972876.137 9 -13205256.44747  21396759.758    21396761.8844   21396769.3454
      4450.535        3467.949
   3090915.032 9   2409238.78847  21644336.632    21644337.4654   21644345.6044
      -868.811        -676.995
  -8942418.237 9  -6938363.74946  21713407.779    21713407.8334   21713416.1854
      4705.086        3666.301
 -10128973.737 9  -7721562.97749  19150520.809    19150521.7524   19150528.5624
       375.788         292.822
 -20333138.040 9 -15802746.98148  18494245.249    18494246.3104   18494252.8084
       558.427         435.138
 -17909268.532 9 -13942124.30247  21018116.730    21018117.8224   21018125.2264
        23.192          18.072
 96 10 30 18 34 29.9930000  0  7  3 25 23 15 21  1 31               -0.006169867
  -1538169.317 9  -1189580.17747  21324953.700    21324954.9814   21324962.6574
     -1627.685       -1268.326
 -17106338.701 9 -13309253.25847  21371363.131    21371364.7864   21371372.2994
      4447.417        3465.520
   3117027.655 9   2429586.19747  21649306.032    21649306.7764   21649314.6514
      -871.514        -679.102
  -9083511.553 9  -7048306.55346  21686558.093    21686558.5634   21686567.1874
      4701.613        3663.595
 -10140159.352 9  -7730279.06449  19148392.211    19148393.2354   19148400.0524
       370.432         288.648
 -20349680.911 9 -15815637.54948  18491097.215    18491098.2924   18491104.8334
       545.142         424.786
 -17909721.275 9 -13942477.15447  21018030.571    21018031.6984   21018039.1074
         7.495           5.840
 96 10 30 18 34 59.9930000  0  7  3 25 23 15 21  1 31               -0.006193765
  -1489244.606 9  -1151457.09647  21334263.955    21334265.1174   21334272.7464
     -1635.052       -1274.066
 -17239705.525 9 -13413175.46347  21345984.752    21345985.9354   21345993.5244
      4442.591        3461.759
   3143225.997 9   2450000.41947  21654291.536    21654292.2784   21654300.2154
      -876.096        -682.672
  -9224502.255 9  -7158169.42846  21659727.639    21659728.8224   21659737.6914
      4696.608        3659.695
 -10151188.686 9  -7738873.38249  19146293.600    19146294.4384   19146301.2954
       363.495         283.243
 -20365838.747 9 -15828228.09448  18488022.399    18488023.4824   18488030.1424
       530.839         413.641
 -17909716.098 9 -13942473.16047  21018031.740    21018032.6704   21018040.1304
        -8.926          -6.955
 96 10 30 18 35 29.9930000  0  7  3 25 23 15 21  1 31               -0.006217637
  -1440093.002 9  -1113157.22447  21343617.010    21343618.4564   21343625.9684
     -1642.622       -1279.965
 -17372920.464 9 -13516979.30247  21320634.555    21320635.9104   21320643.6694
      4437.445        3457.749
   3169569.857 9   2470528.03047  21659304.771    21659305.4994   21659313.4164
      -880.940        -686.447
  -9365337.005 9  -7267910.76946  21632927.226    21632928.8444   21632937.8074
      4691.516        3655.727
 -10161988.943 9  -7747289.19448  19144238.356    19144239.2324   19144246.0604
       355.685         277.157
 -20381554.764 9 -15840474.35848  18485031.683    18485032.7724   18485039.5614
       515.997         402.076
 -17909221.008 9 -13942087.43547  21018126.249    21018126.9434   21018134.3824
       -24.905         -19.406
 96 10 30 18 35 59.9930000  0  7  3 25 23 15 21  1 31               -0.006241493
  -1390722.193 9  -1074686.54947  21353012.153    21353013.4654   21353020.9674
     -1648.817       -1284.792
 -17505983.850 9 -13620665.07247  21295313.638    21295314.7134   21295322.6114
      4433.209        3454.448
   3196044.696 9   2491157.68147  21664342.791    21664343.7304   21664351.7514
      -884.155        -688.952
  -9506029.574 9  -7377541.34146  21606154.581    21606155.9454   21606164.9324
      4687.750        3652.792
 -10172565.329 9  -7755530.56548  19142225.740    19142226.6364   19142233.4984
       349.138         272.055
 -20396840.590 9 -15852385.41248  18482122.859    18482123.9254   18482130.8074
       502.921         391.886
 -17908267.042 9 -13941344.12447  21018308.530    21018308.6794   21018315.9614
       -38.914         -30.323
 96 10 30 18 36 29.9930000  0  7  3 25 23 15 21  1 31               -0.006265342
  -1341158.840 9  -1036065.81247  21362443.893    21362445.1874   21362452.6844
     -1655.501       -1290.001
 -17638906.503 9 -13724241.17647  21270019.109    21270020.3734   21270028.2204
      4428.060        3450.436
   3222623.258 9   2511868.17947  21669400.503    21669401.5534   21669409.5424
      -887.951        -691.910
  -9646597.650 9  -7487074.89746  21579406.126    21579406.8014   21579415.6924
      4683.108        3649.175
 -10182923.545 9  -7763601.93549  19140254.536    19140255.5444   19140262.4524
       340.888         265.627
 -20411729.576 9 -15863987.23948  18479289.463    18479290.6924   18479297.5614
       489.244         381.229
 -17906885.440 9 -13940267.61447  21018571.572    21018571.6204   21018578.9504
       -53.449         -41.648
 96 10 30 18 36 59.9930000  0  7  3 25 23 15 21  1 31               -0.006289177
  -1291390.739 9   -997285.55147  21371914.575    21371915.8614   21371923.2424
     -1662.230       -1295.244
 -17771660.551 9 -13827685.90047  21244756.437    21244758.1774   21244765.8094
      4422.269        3445.924
   3249326.530 9   2532675.84547  21674482.199    21674483.0364   21674490.9314
      -892.163        -695.192
  -9787008.127 9  -7596485.61646  21552687.169    21552687.4694   21552696.4454
      4677.571        3644.861
 -10192999.253 9  -7771453.16249  19138337.231    19138338.2724   19138345.1464
       330.977         257.904
 -20426178.230 9 -15875245.94648  18476540.361    18476541.2714   18476548.0664
       473.894         369.268
 -17905057.893 9 -13938843.58847  21018918.983    21018919.5384   21018926.8434
       -68.556         -53.420
 96 10 30 18 37 29.9930000  0  7  3 25 23 15 21  1 31               -0.006313017
  -1241441.932 9   -958364.47847  21381419.259    21381420.8664   21381428.2334
     -1667.805       -1299.588
 -17904253.282 9 -13931004.92547  21219525.200    21219526.7184   21219534.2054
      4417.072        3441.874
   3276134.509 9   2553565.08147  21679583.993    21679584.5214   21679592.3894
      -895.240        -697.590
  -9927262.714 9  -7705774.89246  21525997.544    21525997.9084   21526006.7794
      4672.527        3640.930
 -10202801.965 9  -7779091.66549  19136471.927    19136472.9514   19136479.8334
       322.575         251.357
 -20440171.172 9 -15886149.56648  18473877.616    18473878.5844   18473885.3134
       458.966         357.636
 -17902780.012 9 -13937068.65847  21019352.135    21019353.0304   21019360.4694
       -83.683         -65.208
 96 10 30 18 37 59.9930000  0  7  3 25 23 15 21  1 31               -0.006336863
  -1191328.423 9   -919315.07647  21390955.576    21390957.2374   21390964.6194
     -1672.828       -1303.502
 -18036685.418 9 -14034198.80747  21194324.866    21194325.8364   21194333.1684
      4411.930        3437.868
   3303031.066 9   2574523.35147  21684701.848    21684702.8234   21684710.7534
      -897.870        -699.639
 -10067360.670 9  -7814942.13646  21499336.833    21499338.0804   21499347.0164
      4667.388        3636.926
 -10212357.593 9  -7786537.64049  19134653.634    19134654.6584   19134661.5294
       314.540         245.096
 -20453730.563 9 -15896715.34348  18471297.308    18471298.3794   18471305.0554
       445.040         346.784
 -17900043.345 9 -13934936.25847  21019872.697    21019873.7304   21019881.3484
       -98.874         -77.045
 96 10 30 18 38 29.9930000  0  7  3 25 23 15 21  1 31               -0.006360712
  -1141062.183 9   -880146.64747  21400521.632    21400522.7194   21400530.0514
     -1678.204       -1307.691
 -18168961.806 9 -14137271.33847  21169153.748    21169154.5744   21169161.7804
      4406.478        3433.619
   3330016.484 9   2595550.85147  21689836.846    21689837.8744   21689846.1064
      -901.079        -702.139
 -10207297.434 9  -7923983.75446  21472707.096    21472709.0674   21472717.9034
      4661.782        3632.557
 -10221670.340 9  -7793794.34648  19132881.575    19132882.5034   19132889.3394
       306.559         238.877
 -20466862.876 9 -15906948.33648  18468798.656    18468799.3804   18468806.1044
       430.462         335.425
 -17896836.332 9 -13932437.33247  21020483.102    21020484.0764   21020491.6334
      -114.929         -89.555
 96 10 30 18 38 59.9930000  0  7  3 25 23 15 21  1 31               -0.006384567
  -1090646.877 9   -840862.05647  21410115.510    21410116.4144   21410123.7444
     -1683.021       -1311.445
 -18301076.973 9 -14240218.24047  21144013.183    21144013.9604   21144021.1814
      4401.046        3429.386
   3357089.058 9   2616646.25747  21694989.035    21694989.5634   21694997.9894
      -903.914        -704.349
 -10347074.356 9  -8032900.80246  21446107.971    21446110.4184   21446119.2084
      4656.575        3628.500
 -10230769.806 9  -7800884.86548  19131150.136    19131150.9314   19131157.7784
       300.140         233.875
 -20479566.527 9 -15916847.30348  18466381.441    18466381.9494   18466388.6774
       416.471         324.523
 -17893150.080 9 -13929564.97747  21021184.813    21021185.6364   21021193.1194
      -130.950        -102.039
 96 10 30 18 39 29.9930000  0  7  3 25 23 15 21  1 31               -0.006408416
  -1040081.017 9   -801460.15047  21419737.618    21419738.7534   21419746.2414
     -1687.882       -1315.233
 -18433023.389 9 -14343033.64147  21118904.317    21118905.3894   21118912.7064
      4395.588        3425.134
   3384262.079 9   2637819.95347  21700159.957    21700160.5544   21700168.8054
      -907.432        -707.090
 -10486688.299 9  -8141690.87646  21419541.668    21419542.8394   21419551.5364
      4651.240        3624.343
 -10239677.476 9  -7807825.93648  19129455.088    19129455.8684   19129462.6724
       293.644         228.814
 -20491854.617 9 -15926422.44849  18464043.002    18464043.6644   18464050.3524
       403.075         314.084
 -17888974.902 9 -13926311.65547  21021979.703    21021980.1964   21021987.7784
      -147.019        -114.560
 96 10 30 18 39 59.9930000  0  7  3 25 23 15 21  1 31               -0.006432261
   -989370.433 9   -761945.48947  21429387.794    21429388.6584   21429396.3264
     -1693.746       -1319.802
 -18564815.369 9 -14445728.68947  21093824.665    21093826.1574   21093833.5184
      4389.498        3420.388
   3411540.830 9   2659076.03647  21705351.077    21705351.5864   21705359.8524
      -912.085        -710.716
 -10626149.149 9  -8250361.63947  21393002.409    21393004.3044   21393012.9714
      4645.218        3619.650
 -10248377.843 9  -7814605.46948  19127799.426    19127800.2664   19127807.0124
       285.414         222.401
 -20503749.990 9 -15935691.58949  18461779.351    18461780.0794   18461786.7374
       388.942         303.072
 -17884335.165 9 -13922696.32747  21022861.919    21022863.1394   21022870.8694
      -163.313        -127.257
 96 10 30 18 40 29.9930000  0  7  3 25 23 15 21  1 31               -0.006456072
   -938471.735 9   -722284.25947  21439073.889    21439074.4824   21439082.2034
     -1699.560       -1324.332
 -18696410.918 9 -14548270.69447  21068783.436    21068784.3744   21068791.5994
      4383.383        3415.623
   3438974.017 9   2680452.47547  21710571.142    21710572.0004   21710580.0164
      -916.728        -714.334
 -10765421.504 9  -8358885.53546  21366500.292    21366501.6694   21366510.3494
      4639.526        3615.215
 -10256826.096 9  -7821188.55048  19126191.766    19126192.6634   19126199.3534
       277.784         216.455
 -20515205.810 9 -15944618.21949  18459599.377    18459600.1364   18459606.7984
       374.805         292.056
 -17879199.725 9 -13918694.75047  21023839.833    21023840.3734   21023848.1314
      -178.975        -139.461
 96 10 30 18 40 59.9930000  0  7  3 25 23 15 21  1 31               -0.006479876
   -887415.836 9   -682500.53747  21448789.074    21448790.1294   21448797.9374
     -1704.414       -1328.115
 -18827834.062 9 -14650678.34747  21043774.385    21043775.3444   21043782.6054
      4378.034        3411.455
   3466527.482 9   2701922.63147  21715814.250    21715815.3444   21715823.2844
      -920.384        -717.182
 -10904536.150 9  -8467286.53446  21340027.724    21340028.9454   21340037.7364
      4634.489        3611.290
 -10265059.143 9  -7827603.93148  19124625.059    19124625.9744   19124632.6864
       270.804         211.016
 -20526258.661 9 -15953230.84449  18457496.090    18457496.8844   18457503.5434
       361.835         281.949
 -17873619.576 9 -13914346.64847  21024901.619    21024902.2454   21024909.8764
      -193.330        -150.647
 96 10 30 18 41 29.9930000  0  7  3 25 23 15 21  1 31               -0.006503680
   -836213.380 9   -642602.60947  21458532.751    21458533.6424   21458541.6794
     -1709.810       -1332.319
 -18959104.694 9 -14752967.14747  21018794.544    21018795.3114   21018802.6074
      4372.512        3407.152
   3494186.277 9   2723474.84647  21721077.696    21721078.7574   21721086.7644
      -924.253        -720.197
 -11043501.512 9  -8575571.21446  21313582.499    21313584.6104   21313593.4184
      4629.067        3607.065
 -10273082.384 9  -7833855.83148  19123098.208    19123099.1874   19123105.9544
       263.168         205.066
 -20536923.885 9 -15961541.42749  18455466.648    18455467.4564   18455474.0914
       348.352         271.443
 -17867614.479 9 -13909667.39547  21026044.617    21026045.0644   21026052.6794
      -207.884        -161.988
 96 10 30 18 41 59.9930000  0  7  3 25 23 15 21  1 31               -0.006527475
   -784845.233 9   -602575.56647  21468308.086    21468308.6784   21468316.8554
     -1714.724       -1336.149
 -19090199.856 9 -14855119.23347  20993848.229    20993848.8384   20993856.0854
      4367.003        3402.859
   3521958.887 9   2745115.76047  21726362.903    21726363.8994   21726371.9684
      -927.318        -722.585
 -11182296.880 9  -8683723.42247  21287171.234    21287172.6744   21287181.3754
      4623.783        3602.948
 -10280873.102 9  -7839926.54448  19121615.761    19121616.6784   19121623.4784
       256.310         199.722
 -20547176.145 9 -15969530.21349  18453515.777    18453516.5814   18453523.2504
       335.110         261.125
 -17861165.913 9 -13904642.58947  21027271.980    21027272.2404   21027279.8664
      -222.346        -173.257
 96 10 30 18 42 29.9930000  0  7  3 25 23 15 21  1 31               -0.006551274
   -733323.299 9   -562428.67147  21478112.110    21478113.0754   21478121.4084
     -1720.189       -1340.407
 -19221114.287 9 -14957130.48247  20968936.214    20968936.7134   20968943.8894
      4360.492        3397.786
   3549826.582 9   2766830.76047  21731665.575    21731667.0914   21731675.3074
      -930.775        -725.279
 -11320922.054 9  -8791742.99847  21260791.912    21260793.1814   21260801.8574
      4617.661        3598.177
 -10288457.156 9  -7845836.22148  19120172.621    19120173.5174   19120180.3184
       249.010         194.034
 -20557022.970 9 -15977203.08149  18451641.891    18451642.7864   18451649.4674
       321.196         250.282
 -17854269.497 9 -13899268.82147  21028584.331    21028584.5884   21028592.2344
      -237.573        -185.122
 96 10 30 18 42 59.9930000  0  7  3 25 23 15 21  1 31               -0.006575074
   -681652.152 9   -522165.52647  21487944.624    21487945.8434   21487954.2944
     -1724.550       -1343.805
 -19351847.672 9 -15059000.66247  20944058.546    20944058.9884   20944066.0364
      4355.132        3393.609
   3577785.492 9   2788616.81947  21736986.137    21736987.5384   21736995.9464
      -933.331        -727.271
 -11459372.949 9  -8899626.77147  21234446.296    21234446.9034   21234455.5734
      4612.333        3594.026
 -10295826.362 9  -7851578.48348  19118770.368    19118771.2354   19118778.0794
       242.054         188.614
 -20566463.907 9 -15984559.67149  18449845.253    18449846.2304   18449852.8264
       308.058         240.045
 -17846922.380 9 -13893543.85247  21029982.055    21029982.7334   21029990.4354
      -252.486        -196.742
 96 10 30 18 43 29.9930000  0  7  3 25 23 15 21  1 31               -0.006598874
   -629837.452 9   -481790.51347  21497804.683    21497805.8904   21497814.3394
     -1728.727       -1347.060
 -19482400.477 9 -15160730.12847  20919214.659    20919215.5144   20919222.5524
      4349.316        3389.077
   3605847.305 9   2810483.09847  21742326.670    21742327.6274   21742336.0314
      -936.419        -729.677
 -11597644.623 9  -9007370.91447  21208134.383    21208134.7734   21208143.3604
      4606.745        3589.671
 -10302954.080 9  -7857132.57348  19117414.004    19117414.8894   19117421.7714
       234.069         182.391
 -20575487.208 9 -15991590.84049  18448128.282    18448129.1594   18448135.6794
       294.542         229.513
 -17839102.398 9 -13887450.42547  21031470.403    21031470.9224   21031478.6834
      -267.772        -208.654
 96 10 30 18 43 59.9930000  0  7  3 25 23 15 21  1 31               -0.006622674
   -577885.853 9   -441308.82947  21507690.682    21507692.0234   21507700.2714
     -1734.252       -1351.365
 -19612765.861 9 -15262313.54647  20894406.709    20894407.7204   20894414.8184
      4342.143        3383.488
   3634010.663 9   2832428.49647  21747686.405    21747687.0854   21747695.6074
      -940.817        -733.104
 -11735731.838 9  -9114971.30147  21181857.135    21181857.6734   21181866.1624
      4599.447        3583.985
 -10309825.537 9  -7862486.98448  19116106.530    19116107.3024   19116114.2924
       224.488         174.926
 -20584093.976 9 -15998297.42849  18446490.581    18446491.4374   18446497.8674
       279.692         217.942
 -17830819.502 9 -13880996.28447  21033046.615    21033047.2164   21033054.9374
      -283.998        -221.297
 96 10 30 18 44 29.9930000  0  7  3 25 23 15 21  1 31               -0.006646470
   -525802.091 9   -400724.15847  21517602.247    21517603.3514   21517611.4084
     -1738.033       -1354.311
 -19742942.394 9 -15363749.81747  20869635.250    20869635.9054   20869643.0664
      4336.244        3378.891
   3662281.622 9   2854457.71647  21753066.993    21753066.8724   21753075.5874
      -944.014        -735.595
 -11873629.568 9  -9222424.05047  21155616.748    21155616.6884   21155625.0384
      4593.657        3579.473
 -10316434.992 9  -7867637.23748  19114848.862    19114849.5894   19114856.6284
       216.076         168.371
 -20592281.687 9 -16004677.48049  18444932.688    18444933.4294   18444939.7914
       266.031         207.297
 -17822087.170 9 -13874191.91447  21034708.335    21034708.9454   21034716.6734
      -298.150        -232.325
 96 10 30 18 44 59.9930000  0  7  3 25 23 15 21  1 31               -0.006670274
   -473603.523 9   -360050.05047  21527535.524    21527536.4594   21527544.5064
     -1741.562       -1357.061
 -19872936.334 9 -15465043.80247  20844897.772    20844898.7974   20844906.1874
      4330.322        3374.277
   3690660.569 9   2876571.10947  21758467.037    21758467.1444   21758475.9194
      -947.561        -738.359
 -12011342.577 9  -9329732.86947  21129411.059    21129410.8054   21129419.1434
      4587.487        3574.665
 -10322779.045 9  -7872580.68448  19113641.813    19113642.4114   19113649.4214
       207.328         161.554
 -20600052.420 9 -16010732.61849  18443454.004    18443454.7414   18443461.0504
       252.273         196.576
 -17812921.464 9 -13867049.87547  21036451.927    21036453.0904   21036460.8494
      -312.549        -243.545
 96 10 30 18 45 29.9930000  0  7  3 25 23 15 21  1 31               -0.006694078
   -421284.320 9   -319281.93647  21537491.884    21537492.5214   21537500.5724
     -1746.053       -1360.561
 -20002730.405 9 -15566182.04547  20820198.634    20820199.8104   20820207.3014
      4323.002        3368.573
   3719155.131 9   2898774.58347  21763889.342    21763889.5694   21763898.1704
      -951.471        -741.406
 -12148849.524 9  -9436881.10147  21103243.544    21103244.0664   21103252.5054
      4580.108        3568.915
 -10328854.033 9  -7877314.47148  19112485.811    19112486.4684   19112493.4454
       198.380         154.582
 -20607395.451 9 -16016454.47849  18442056.722    18442057.3714   18442063.7064
       237.819         185.314
 -17803324.652 9 -13859571.88947  21038278.292    21038279.3684   21038287.1124
      -326.716        -254.584
 96 10 30 18 45 59.9930000  0  7  3 25 23 15 21  1 31               -0.006717895
   -368858.987 9   -278431.11647  21547468.507    21547468.8044   21547476.8524
     -1749.698       -1363.401
 -20132332.953 9 -15667171.05347  20795536.178    20795537.2564   20795544.8494
      4316.278        3363.334
   3747736.601 9   2921045.76947  21769328.462    21769328.5014   21769337.0754
      -954.806        -744.005
 -12286166.797 9  -9543881.54147  21077112.754    21077113.4224   21077121.8764
      4573.624        3563.863
 -10334705.982 9  -7881874.46548  19111372.414    19111372.9834   19111379.8404
       190.932         148.778
 -20614339.144 9 -16021865.16649  18440735.310    18440736.0374   18440742.3704
       224.259         174.747
 -17793338.720 9 -13851790.70947  21040179.225    21040179.8114   21040187.4334
      -339.896        -264.854
 96 10 30 18 46 29.9930000  0  7  3 25 23 15 21  1 31               -0.006741722
   -316334.508 9   -237503.04047  21557464.111    21557463.7934   21557472.0884
     -1753.349       -1366.246
 -20261726.352 9 -15767997.07947  20770913.364    20770914.5464   20770922.2494
      4308.629        3357.373
   3776416.516 9   2943393.68646  21774785.660    21774786.0884   21774794.5524
      -958.559        -746.929
 -12423294.368 9  -9650734.16847  21051018.566    21051018.8964   21051027.4514
      4566.848        3558.583
 -10340339.643 9  -7886264.35948  19110300.490    19110301.0014   19110307.7574
       183.199         142.752
 -20620886.140 9 -16026966.73849  18439489.448    18439490.1554   18439496.5184
       210.932         164.363
 -17782959.003 9 -13843702.68347  21042154.615    21042155.0814   21042162.6094
      -353.557        -275.499
 96 10 30 18 46 59.9930000  0  7  3 25 23 15 21  1 31               -0.006765537
   -263692.268 9   -196483.17747  21567481.492    21567481.3074   21567489.8094
     -1756.950       -1369.052
 -20390888.781 9 -15868643.12747  20746334.553    20746335.8344   20746343.5464
      4301.535        3351.845
   3805218.314 9   2965836.56047  21780266.630    21780266.8914   21780275.5134
      -962.302        -749.846
 -12560210.542 9  -9757422.06847  21024963.597    21024964.5414   21024973.1904
      4560.137        3553.354
 -10345731.503 9  -7890465.84248  19109274.509    19109274.9834   19109281.7604
       175.568         136.806
 -20627037.683 9 -16031760.16249  18438318.860    18438319.5084   18438325.9314
       198.321         154.536
 -17772163.089 9 -13835290.33547  21044208.843    21044209.5854   21044216.9574
      -367.037        -286.003
 96 10 30 18 47 29.9930000  0  7  3 25 23 15 21  1 31               -0.006789344
   -210932.580 9   -155371.82447  21577521.273    21577521.1344   21577529.8914
     -1760.899       -1372.129
 -20519839.617 9 -15969124.30447  20721796.492    20721797.4074   20721805.0934
      4294.569        3346.417
   3834132.735 9   2988367.17746  21785768.895    21785769.3084   21785778.0014
      -965.897        -752.647
 -12696927.511 9  -9863954.76147  20998947.141    20998948.1924   20998956.8144
      4553.774        3548.395
 -10350900.659 9  -7894493.78948  19108290.761    19108291.2714   19108298.1544
       168.394         131.216
 -20632810.712 9 -16036258.64349  18437220.501    18437220.8814   18437227.3684
       186.092         145.007
 -17760966.862 9 -13826566.06647  21046339.626    21046340.2274   21046347.4524
      -380.052        -296.144
 96 10 30 18 47 59.9930000  0  7  3 25 23 15 21  1 31               -0.006813134
   -158050.242 9   -114164.89947  21587584.437    21587584.3074   21587593.1364
     -1765.042       -1375.357
 -20648569.326 9 -16069433.17047  20697300.075    20697300.9864   20697308.7044
      4286.813        3340.374
   3863172.723 9   3010995.68346  21791295.030    21791295.4544   21791304.0494
      -970.709        -756.397
 -12833444.907 9  -9970331.92347  20972969.655    20972969.8004   20972978.3814
      4546.756        3542.927
 -10355836.126 9  -7898339.63448  19107351.389    19107352.0654   19107358.9524
       160.051         124.715
 -20638207.305 9 -16040463.79349  18436193.591    18436193.9164   18436200.4184
       173.081         134.868
 -17749361.830 9 -13817523.24947  21048547.960    21048548.6324   21048555.9184
      -394.260        -307.216
 96 10 30 18 48 29.9930000  0  7  3 25 23 15 21  1 31               -0.006836904
   -105045.432 9    -72862.54547  21597670.352    21597670.9044   21597679.6604
     -1769.021       -1378.458
 -20777070.802 9 -16169564.18347  20672846.511    20672847.9814   20672855.7104
      4279.895        3334.983
   3892347.276 9   3033729.00946  21796846.111    21796847.3304   21796855.8094
      -974.427        -759.294
 -12969749.143 9 -10076542.98847  20947031.632    20947031.8554   20947040.5864
      4539.865        3537.557
 -10360518.754 9  -7901988.46748  19106460.332    19106460.9804   19106467.9014
       151.947         118.400
 -20643216.271 9 -16044366.90249  18435240.206    18435240.7674   18435247.2664
       160.482         125.051
 -17737325.896 9 -13808144.66347  21050837.664    21050838.8844   21050846.3764
      -408.459        -318.280
 96 10 30 18 48 59.9930000  0  7  3 25 23 15 21  1 31               -0.006860670
    -51919.717 9    -31465.99747  21607780.260    21607780.5584   21607789.2974
     -1772.819       -1381.417
 -20905380.560 9 -16269545.81147  20648429.933    20648431.5234   20648439.2334
      4273.955        3330.355
   3921622.317 9   3056540.64346  21802417.092    21802418.1124   21802426.7344
      -977.306        -761.537
 -13105845.721 9 -10182592.24547  20921133.497    20921133.5024   20921142.3124
      4533.098        3532.284
 -10364963.144 9  -7905451.66248  19105614.790    19105615.3134   19105622.1784
       144.331         112.466
 -20647838.291 9 -16047968.49449  18434360.647    18434361.2784   18434367.6934
       147.480         114.919
 -17724866.887 9 -13798436.42247  21053208.522    21053209.6974   21053217.2264
      -422.294        -329.060
 96 10 30 18 49 29.9930000  0  7  3 25 23 15 21  1 31               -0.006884445
      1330.745 9     10027.80347  21617913.620    21617913.9454   21617922.6894
     -1776.764       -1384.491
 -21033493.061 9 -16369373.72547  20624051.131    20624052.4804   20624060.1984
      4266.987        3324.925
   3950979.578 9   3079416.34547  21808003.714    21808004.7974   21808013.4864
      -979.708        -763.409
 -13241728.851 9 -10288475.18647  20895275.747    20895275.7514   20895284.6454
      4525.949        3526.714
 -10369180.355 9  -7908737.82948  19104812.468    19104812.8504   19104819.6484
       136.940         106.706
 -20652066.429 9 -16051263.16449  18433555.989    18433556.7544   18433563.0944
       134.655         104.926
 -17711982.767 9 -13788396.89847  21055660.359    21055661.5224   21055668.9294
      -436.407        -340.057
 96 10 30 18 49 59.9930000  0  7  3 25 23 15 21  1 31               -0.006908259
     54643.613 9     51570.21247  21628058.098    21628059.0994   21628067.9994
     -1778.582       -1385.908
 -21161438.334 9 -16469071.32247  20599703.652    20599705.2174   20599713.0014
      4261.562        3320.698
   3980369.032 9   3102317.13447  21813596.488    21813597.4854   21813606.3394
      -980.836        -764.288
 -13377435.754 9 -10394220.80447  20869450.983    20869451.4994   20869460.4444
      4519.966        3522.051
 -10373208.042 9  -7911876.31048  19104046.084    19104046.3864   19104053.1774
       130.392         101.604
 -20655950.091 9 -16054289.41449  18432817.047    18432817.7534   18432824.0654
       123.097          95.920
 -17698715.311 9 -13778058.66947  21058185.258    21058186.3234   21058193.6934
      -449.354        -350.146
 96 10 30 18 50 29.9930000  0  7  3 25 23 15 21  1 31               -0.006932085
    108037.727 9     93175.92447  21638218.539    21638219.8604   21638228.6604
     -1780.320       -1387.262
 -21289197.571 9 -16568623.96847  20575391.716    20575393.3824   20575401.1654
      4256.572        3316.809
   4009823.443 9   3125268.49347  21819201.721    21819202.4334   21819211.5924
      -982.001        -765.196
 -13512929.618 9 -10499800.40447  20843666.969    20843667.9494   20843676.7904
      4513.796        3517.244
 -10377007.656 9  -7914837.07648  19103322.843    19103323.3184   19103330.1584
       123.676          96.371
 -20659459.709 9 -16057024.19849  18432149.309    18432149.9134   18432156.2544
       111.711          87.047
 -17685027.760 9 -13767393.10847  21060790.403    21060791.0904   21060798.4194
      -462.279        -360.217
 96 10 30 18 50 59.9930000  0  7  3 25 23 15 21  1 31               -0.006955919
    161503.891 9    134837.76947  21648393.011    21648394.1874   21648402.9834
     -1783.530       -1389.764
 -21416775.422 9 -16668035.25447  20551115.209    20551116.0764   20551123.9004
      4248.832        3310.778
   4039351.803 9   3148277.51347  21824821.216    21824821.6364   21824830.7934
      -986.259        -768.514
 -13648215.523 9 -10605217.95947  20817923.547    20817923.8824   20817932.7354
      4505.699        3510.934
 -10380580.178 9  -7917620.88948  19102642.995    19102643.4774   19102650.3694
       115.006          89.615
 -20662609.784 9 -16059478.81849  18431549.927    18431550.5154   18431556.9244
        98.879          77.049
 -17670934.939 9 -13756411.73647  21063472.317    21063472.8994   21063480.1244
      -476.691        -371.447
 96 10 30 18 51 29.9930000  0  7  3 25 23 15 21  1 31               -0.006979733
    215045.566 9    176558.48547  21658581.800    21658582.8564   21658591.6044
     -1785.788       -1391.523
 -21544119.551 9 -16767264.43647  20526883.127    20526883.2614   20526890.9944
      4240.838        3304.549
   4069005.303 9   3171384.06246  21830464.938    21830464.6464   21830473.7044
      -990.739        -772.004
 -13783270.613 9 -10710455.65547  20792223.818    20792223.6984   20792232.5944
      4497.942        3504.890
 -10383908.338 9  -7920214.28648  19102009.803    19102010.1884   19102017.0984
       106.722          83.160
 -20665394.499 9 -16061648.75049  18431020.114    18431020.6014   18431027.0994
        86.639          67.511
 -17656423.443 9 -13745104.14847  21066233.787    21066234.3424   21066241.6674
      -490.731        -382.388
 96 10 30 18 51 59.9930000  0  7  3 25 23 15 21  1 31               -0.007003534
    268638.340 9    218318.96047  21668780.281    21668781.2084   21668790.0354
     -1787.837       -1393.120
 -21671240.681 9 -16866319.84747  20502692.303    20502692.8874   20502700.5334
      4233.312        3298.685
   4098792.687 9   3194594.91146  21836133.573    21836133.1304   21836142.1374
      -995.544        -775.749
 -13918104.289 9 -10815520.83147  20766565.547    20766565.6544   20766574.5984
      4490.367        3498.987
 -10386989.265 9  -7922615.03748  19101423.625    19101423.9484   19101430.8774
        98.153          76.483
 -20667811.946 9 -16063532.49149  18430560.042    18430560.6164   18430567.1364
        74.057          57.707
 -17641496.975 9 -13733473.20047  21069073.976    21069074.7304   21069082.2574
      -504.830        -393.374
 96 10 30 18 52 29.9920000  0  7  3 25 23 15 21  1 31               -0.007027320
    322297.678 9    260131.32647  21678991.259    21678992.4084   21679001.0944
     -1790.080       -1394.868
 -21798121.850 9 -16965188.27247  20478547.297    20478548.2194   20478555.8034
      4225.352        3292.482
   4128717.847 9   3217913.10946  21841828.211    21841827.9344   21841836.5904
      -999.748        -779.024
 -14052707.534 9 -10920406.43447  20740951.290    20740951.4264   20740960.4034
      4483.148        3493.362
 -10389830.635 9  -7924829.11248  19100882.853    19100883.3054   19100890.2504
        90.921          70.847
 -20669856.611 9 -16065125.75449  18430171.078    18430171.5264   18430178.0064
        61.844          48.190
 -17626153.648 9 -13721517.42747  21071993.776    21071994.5494   21072002.1814
      -518.271        -403.848
